ftp/pub/palmer/observations_modified/2019/March/AR190304_BASE.txt

Download

Sample DateTime	Unit Id	WS Avg 2min	WD Avg 2min	WGS 10min	WGD 10min	Air Temp	Rel Humidity	Dew Point	Pyranometer	Quantum	Air Pressure	Snow Level	Rainfall	PW Current	Visibility	CBase 1	CBase 2	CBase 3	Vert Vis
2019/03/04  00:00:00  BASE  1.45824  338  1.75224  350  1.3   100   1.3   0     0     985.3    NA       0.0000   9999     4820  0     0    
2019/03/04  00:01:00  BASE  1.56996  347  1.75224  350  1.3   100   1.3   0     0     985.3    NA       0.0000   9999     0     0     0    
2019/03/04  00:02:00  BASE  1.54644  355  1.75224  350  1.3   100   1.3   0     0     985.3    NA       0.0000   9999     3350  0     0    
2019/03/04  00:03:00  BASE  1.4112   1    1.75224  350  1.2   100   1.2   0     0     985.3    NA       0.0000   9999     3220  0     0    
2019/03/04  00:04:00  BASE  1.14072  13   1.75224  350  1.2   100   1.2   0     0     985.3    NA       0.0000   9999     2990  0     0    
2019/03/04  00:05:00  BASE  1.07016  27   1.75224  350  1.3   100   1.3   0     0     985.3    NA       0.0000   9999     3080  0     0    
2019/03/04  00:06:00  BASE  1.07604  33   1.75224  350  1.3   100   1.3   0     0     985.3    NA       0.0000   9999     0     0     0    
2019/03/04  00:07:00  BASE  1.18776  29   1.75224  350  1.3   100   1.3   0     0     985.3    NA       0.0000   9999     0     0     0    
2019/03/04  00:08:00  BASE  1.53468  23   1.84632  21   1.4   100   1.4   0     0     985.3    NA       0.0000   UP       9999  3220  0    
2019/03/04  00:09:00  BASE  1.72872  21   1.84632  19   1.4   100   1.4   0     0     985.3    NA       0.0000   UP       9999  0     0    
2019/03/04  00:10:00  BASE  1.54056  21   1.84632  19   1.4   100   1.4   0     0     985.3    NA       0.0000   UP       9999  0     0    
2019/03/04  00:11:00  BASE  0.95844  24   1.84632  19   1.5   100   1.5   0     0     985.3    NA       0.0000   UP       9999  0     0    
2019/03/04  00:12:00  BASE  0.27636  56   1.84632  19   1.5   100   1.5   0     0     985.3    NA       0.0000   UP       9999  0     0    
2019/03/04  00:13:00  BASE  0        116  1.84632  19   1.6   100   1.6   0     0     985.2    NA       0.0000   UP       9999  0     0    
2019/03/04  00:14:01  BASE  0        126  1.84632  19   1.6   100   1.6   0     0     985.2    NA       0.0000   UP       9999  0     0    
2019/03/04  00:15:01  BASE  0        92   1.84632  19   1.6   100   1.6   0     0     985.2    NA       0.0000   UP       9999  5450  0    
2019/03/04  00:16:01  BASE  0.02352  291  1.84632  19   1.7   100   1.7   0     0     985.1    NA       0.0000   UP       9999  0     0    
2019/03/04  00:17:01  BASE  0.02352  260  1.84632  19   1.7   100   1.7   0     0     985.1    NA       0.0000   UP       9999  0     0    
2019/03/04  00:18:01  BASE  0        248  1.84632  19   1.7   100   1.7   0     0     985.1    NA       0.0000   UP       9999  4920  0    
2019/03/04  00:19:01  BASE  0.09408  258  1.57584  21   1.6   100   1.6   0     0     985.1    NA       0.0000   UP       9999  0     0    
2019/03/04  00:20:01  BASE  0.6468   286  1.42296  313  1.6   100   1.6   0     0     985.1    NA       0.0000   UP       9999  430   0    
2019/03/04  00:21:01  BASE  1.45824  306  1.96392  316  1.6   100   1.6   0     0     985.0    NA       0.0000   UP       9999  0     0    
2019/03/04  00:22:01  BASE  1.79928  316  1.96392  316  1.5   100   1.5   0     0     984.9    NA       0.0000   UP       9999  0     0    
2019/03/04  00:23:01  BASE  1.50528  312  1.96392  316  1.5   100   1.5   0     0     984.9    NA       0.0000   UP       9999  3870  0    
2019/03/04  00:24:01  BASE  0.97608  302  1.96392  316  1.4   100   1.4   0     0     984.9    NA       0.0000   UP       9999  4760  0    
2019/03/04  00:25:01  BASE  0.78792  306  1.96392  316  1.4   100   1.4   0     0     984.9    NA       0.0000   UP       9999  3970  0    
2019/03/04  00:26:01  BASE  1.00548  311  1.96392  316  1.3   100   1.3   0     0     984.9    NA       0.0000   UP       9999  5120  0    
2019/03/04  00:27:01  BASE  1.19364  311  1.96392  316  1.3   100   1.3   0     0     984.9    NA       0.0000   UP       9999  4950  0    
2019/03/04  00:28:01  BASE  1.27008  316  1.96392  316  1.2   100   1.2   0     0     984.9    NA       0.0000   UP       9999  4860  0    
2019/03/04  00:29:01  BASE  1.2348   321  1.96392  316  1.2   100   1.2   0     0     984.9    NA       0.0000   UP       9999  4690  0    
2019/03/04  00:30:01  BASE  0.68208  319  1.96392  316  1.2   100   1.2   0     0     984.9    NA       0.0000   UP       9999  4920  0    
2019/03/04  00:31:01  BASE  0.09408  306  1.93452  314  1.1   100   1.1   0     0     984.9    NA       0.0000   UP       9999  4690  0    
2019/03/04  00:32:01  BASE  0.21168  312  1.63464  314  1.2   100   1.2   0     0     984.9    NA       0.0000   9999     4490  0     0    
2019/03/04  00:33:01  BASE  0.72912  330  1.48176  323  1.2   100   1.2   0     0     984.9    NA       0.0000   9999     4660  0     0    
2019/03/04  00:34:01  BASE  1.176    331  1.54056  327  1.2   100   1.2   0     0     984.9    NA       0.0000   9999     4590  0     0    
2019/03/04  00:35:01  BASE  1.37592  328  1.60524  322  1.2   100   1.2   0     0     984.9    NA       0.0000   9999     4590  0     0    
2019/03/04  00:36:01  BASE  1.41708  333  1.60524  322  1.2   100   1.2   0     0     984.9    NA       0.0000   9999     4490  0     0    
2019/03/04  00:37:01  BASE  1.63464  346  2.0874   2    1.2   100   1.2   0     0     984.9    NA       0.0000   9999     4530  0     0    
2019/03/04  00:38:01  BASE  1.88748  4    2.0874   2    1.1   100   1.1   0     0     984.9    NA       0.0000   9999     4400  0     0    
2019/03/04  00:39:01  BASE  1.65816  3    2.0874   2    1.1   100   1.1   0     0     984.9    NA       0.0000   9999     3580  0     0    
2019/03/04  00:40:01  BASE  1.28772  352  2.0874   2    1.1   100   1.1   0     0     984.8    NA       0.0000   9999     4270  0     0    
2019/03/04  00:41:01  BASE  0.96432  349  2.0874   2    1.1   100   1.1   0     0     984.8    NA       0.2540   9999     4330  0     0    
2019/03/04  00:42:01  BASE  0.68796  351  2.0874   2    1.1   100   1.1   0     0     984.9    NA       0.0000   9999     4360  0     0    
2019/03/04  00:43:01  BASE  0.40572  355  2.0874   2    1.2   100   1.2   0     0     984.9    NA       0.0000   9999     4360  0     0    
2019/03/04  00:44:01  BASE  0.28224  348  2.0874   2    1.2   100   1.2   0     0     984.8    NA       0.0000   9999     4270  0     0    
2019/03/04  00:45:01  BASE  0.52332  329  2.0874   2    1.3   100   1.3   0     0     984.8    NA       0.0000   9999     4300  0     0    
2019/03/04  00:46:01  BASE  0.39984  319  2.0874   2    1.3   100   1.3   0     0     984.8    NA       0.0000   9999     4400  0     0    
2019/03/04  00:47:01  BASE  0.05292  314  2.058    1    1.4   100   1.4   0     0     984.8    NA       0.0000   9999     4330  0     0    
2019/03/04  00:48:01  BASE  0        291  1.66404  1    1.4   100   1.4   0     0     984.8    NA       0.0000   9999     4360  0     0    
2019/03/04  00:49:01  BASE  0        213  1.29948  348  1.4   100   1.4   0     0     984.7    NA       0.0000   9999     4400  0     0    
2019/03/04  00:50:01  BASE  0        196  0.93492  352  1.4   100   1.4   0     0     984.7    NA       0.0000   9999     4590  0     0    
2019/03/04  00:51:01  BASE  0        196  0.81732  321  1.4   100   1.4   0     0     984.7    NA       0.0000   9999     4630  0     0    
2019/03/04  00:52:01  BASE  0        196  0.81732  321  1.4   100   1.4   0     0     984.7    NA       0.0000   9999     4430  0     0    
2019/03/04  00:53:01  BASE  0        181  0.81732  321  1.4   100   1.4   0     0     984.7    NA       0.0000   9999     4590  0     0    
2019/03/04  00:54:01  BASE  0        165  0.81732  321  1.4   100   1.4   0     0     984.7    NA       0.0000   9999     4530  0     0    
2019/03/04  00:55:01  BASE  0        154  0.66444  318  1.5   100   1.5   0     0     984.7    NA       0.0000   9999     4690  0     0    
2019/03/04  00:56:01  BASE  0        43   0        M    1.5   100   1.5   0     0     984.7    NA       0.0000   9999     4660  0     0    
2019/03/04  00:57:01  BASE  0.12936  351  0.63504  338  1.5   100   1.5   0     0     984.7    NA       0.0000   9999     4630  0     0    
2019/03/04  00:58:01  BASE  0.47628  340  0.78792  339  1.5   100   1.5   0     0     984.7    NA       0.0000   9999     4820  0     0    
2019/03/04  00:59:01  BASE  0.39984  346  0.78792  339  1.5   100   1.5   0     0     984.7    NA       0.0000   9999     4760  0     0    
2019/03/04  01:00:01  BASE  0.05292  344  0.78792  339  1.5   100   1.5   0     0     984.7    NA       0.0000   9999     4690  0     0    
2019/03/04  01:01:01  BASE  0        327  0.78792  339  1.6   100   1.6   0     0     984.7    NA       0.0000   9999     4790  0     0    
2019/03/04  01:02:01  BASE  0        319  0.78792  339  1.6   100   1.6   0     0     984.8    NA       0.0000   9999     4790  0     0    
2019/03/04  01:03:01  BASE  0.32928  322  1.0878   331  1.6   100   1.6   0     0     984.8    NA       0.0000   9999     4300  0     0    
2019/03/04  01:04:01  BASE  1.029    328  1.45236  326  1.6   100   1.6   0     0     984.8    NA       0.0000   9999     4660  0     0    
2019/03/04  01:05:01  BASE  1.2642   327  1.45236  326  1.6   100   1.6   0     0     984.8    NA       0.0000   9999     4690  0     0    
2019/03/04  01:06:01  BASE  1.09956  318  1.45236  326  1.6   100   1.6   0     0     984.8    NA       0.0000   9999     4460  0     0    
2019/03/04  01:07:01  BASE  0.98196  307  1.45236  326  1.5   100   1.5   0     0     984.8    NA       0.0000   9999     4530  0     0    
2019/03/04  01:08:01  BASE  0.441    300  1.45236  326  1.4   100   1.4   0     0     984.8    NA       0.0000   9999     4490  0     0    
2019/03/04  01:09:01  BASE  0        285  1.45236  326  1.4   100   1.4   0     0     984.8    NA       0.0000   9999     4360  0     0    
2019/03/04  01:10:01  BASE  0        271  1.45236  326  1.3   100   1.3   0     0     984.8    NA       0.0000   9999     4490  0     0    
2019/03/04  01:11:01  BASE  0        266  1.45236  326  1.3   100   1.3   0     0     984.8    NA       0.0000   9999     4400  0     0    
2019/03/04  01:12:01  BASE  0.02352  305  1.45236  326  1.3   100   1.3   0     0     984.8    NA       0.0000   9999     4430  0     0    
2019/03/04  01:13:01  BASE  0.3234   357  1.45236  326  1.3   100   1.3   0     0     984.8    NA       0.0000   9999     4490  0     0    
2019/03/04  01:14:01  BASE  0.52332  360  1.29948  327  1.3   100   1.3   0     0     984.7    NA       0.0000   9999     4460  0     0    
2019/03/04  01:15:01  BASE  0.22932  355  1.18188  307  1.3   100   1.3   0     0     984.6    NA       0.0000   9999     4300  0     0    
2019/03/04  01:16:01  BASE  0        350  1.0584   306  1.4   100   1.4   0     0     984.6    NA       0.0000   9999     4360  0     0    
2019/03/04  01:17:01  BASE  0.0294   205  0.75852  355  1.4   100   1.4   0     0     984.6    NA       0.0000   9999     4330  0     0    
2019/03/04  01:18:01  BASE  0.05292  238  0.75852  355  1.4   100   1.4   0     0     984.6    NA       0.0000   9999     4300  0     0    
2019/03/04  01:19:01  BASE  0.57624  309  1.57584  346  1.4   100   1.4   0     0     984.7    NA       0.0000   9999     4330  0     0    
2019/03/04  01:20:01  BASE  1.50528  337  1.96392  340  1.4   100   1.4   0     0     984.8    NA       0.0000   9999     4330  0     0    
2019/03/04  01:21:01  BASE  1.84632  339  1.96392  341  1.4   100   1.4   0     0     984.8    NA       0.0000   9999     4360  0     0    
2019/03/04  01:22:01  BASE  1.50528  330  1.96392  341  1.3   100   1.3   0     0     984.7    NA       0.0000   9999     4170  0     0    
2019/03/04  01:23:01  BASE  1.16424  313  1.96392  341  1.3   100   1.3   0     0     984.6    NA       0.0000   9999     4170  0     0    
2019/03/04  01:24:01  BASE  1.22892  305  1.96392  341  1.2   100   1.2   0     0     984.6    NA       0.0000   9999     4170  0     0    
2019/03/04  01:25:01  BASE  1.43472  319  1.96392  341  1.2   100   1.2   0     0     984.6    NA       0.0000   9999     4100  0     0    
2019/03/04  01:26:01  BASE  1.75812  348  2.24028  13   1.2   100   1.2   0     0     984.7    NA       0.0000   9999     4070  0     0    
2019/03/04  01:27:00  BASE  2.02272  12   2.24028  13   1.2   100   1.2   0     0     984.7    NA       0.0000   9999     4100  0     0    
2019/03/04  01:28:01  BASE  1.91688  27   2.24028  13   1.2   100   1.2   0     0     984.7    NA       0.0000   9999     4130  0     0    
2019/03/04  01:29:01  BASE  1.56996  40   2.24028  13   1.1   100   1.1   0     0     984.7    NA       0.0000   9999     4040  0     0    
2019/03/04  01:30:01  BASE  1.2054   48   2.24028  13   1.1   100   1.1   0     0     984.6    NA       0.0000   9999     4040  0     0    
2019/03/04  01:31:00  BASE  0.89376  40   2.24028  13   1.1   100   1.1   0     0     984.6    NA       0.0000   9999     4130  0     0    
2019/03/04  01:32:01  BASE  0.93492  20   2.24028  13   1.1   100   1.1   0     0     984.6    NA       0.0000   9999     3940  0     0    
2019/03/04  01:33:00  BASE  1.51704  10   2.24028  13   1.2   100   1.2   0     0     984.6    NA       0.0000   9999     3970  0     0    
2019/03/04  01:34:01  BASE  2.01684  12   2.26968  12   1.3   100   1.3   0     0     984.6    NA       0.0000   9999     3900  0     0    
2019/03/04  01:35:01  BASE  1.89924  19   2.26968  12   1.3   100   1.3   0     0     984.7    NA       0.0000   9999     3840  0     0    
2019/03/04  01:36:01  BASE  1.65816  43   2.26968  12   1.3   100   1.3   0     0     984.7    NA       0.0000   9999     3870  0     0    
2019/03/04  01:37:01  BASE  1.83456  65   2.38728  76   1.3   100   1.3   0     0     984.7    NA       0.0000   9999     4000  0     0    
2019/03/04  01:38:01  BASE  1.6464   53   2.38728  76   1.4   100   1.4   0     0     984.6    NA       0.0000   9999     4100  0     0    
2019/03/04  01:39:00  BASE  1.1466   26   2.38728  76   1.4   100   1.4   0     0     984.6    NA       0.0000   9999     4170  0     0    
2019/03/04  01:40:00  BASE  0.89964  2    2.38728  76   1.6   100   1.6   0     0     984.5    NA       0.0000   9999     4130  0     0    
2019/03/04  01:41:01  BASE  0.58212  331  2.38728  76   1.8   100   1.8   0     0     984.5    NA       0.0000   9999     4130  0     0    
2019/03/04  01:42:00  BASE  0.21756  292  2.38728  76   2.0   100   2.0   0     0     984.4    NA       0.0000   9999     4070  0     0    
2019/03/04  01:43:00  BASE  0.0294   248  2.38728  76   2.2   100   2.2   0     0     984.4    NA       0.0000   9999     4000  0     0    
2019/03/04  01:44:00  BASE  0.02352  279  2.38728  76   2.3   100   2.3   0     0     984.3    NA       0.0000   9999     3900  0     0    
2019/03/04  01:45:00  BASE  0.13524  345  2.38728  76   2.5   100   2.5   0     0     984.3    NA       0.0000   9999     3870  0     0    
2019/03/04  01:46:00  BASE  0.441    1    2.38728  76   2.6   100   2.6   0     0     984.3    NA       0.0000   9999     3810  0     0    
2019/03/04  01:47:00  BASE  0.75852  6    1.72284  62   2.7   100   2.7   0     0     984.4    NA       0.0000   9999     3940  0     0    
2019/03/04  01:48:00  BASE  0.8526   28   1.1466   23   2.8   100   2.8   0     0     984.4    NA       0.0000   9999     4000  0     0    
2019/03/04  01:49:00  BASE  1.06428  48   1.45236  53   2.9   100   2.9   0     0     984.4    NA       0.0000   9999     3940  0     0    
2019/03/04  01:50:00  BASE  0.98196  53   1.45236  53   3.0   100   3.0   0     0     984.3    NA       0.0000   9999     3840  0     0    
2019/03/04  01:51:00  BASE  0.37044  21   1.45236  53   3.0   100   3.0   0     0     984.2    NA       0.0000   9999     3810  0     0    
2019/03/04  01:52:00  BASE  0.37044  327  1.45236  53   2.9   100   2.9   0     0     984.1    NA       0.0000   9999     3870  0     0    
2019/03/04  01:53:00  BASE  1.04076  319  1.63464  340  2.7   100   2.7   0     0     984.2    NA       0.0000   9999     3900  0     0    
2019/03/04  01:54:00  BASE  1.34652  347  1.63464  340  2.3   100   2.3   0     0     984.2    NA       0.0000   9999     3940  0     0    
2019/03/04  01:55:00  BASE  0.95256  29   1.63464  340  2.1   100   2.1   0     0     984.2    NA       0.0000   9999     3870  0     0    
2019/03/04  01:56:00  BASE  0.30576  62   1.63464  340  2.0   100   2.0   0     0     984.1    NA       0.0000   9999     3940  0     0    
2019/03/04  01:57:00  BASE  0        99   1.63464  340  2.0   100   2.0   0     0     984.2    NA       0.0000   9999     3900  0     0    
2019/03/04  01:58:00  BASE  0.28224  330  1.63464  340  2.0   100   2.0   0     0     984.2    NA       0.0000   9999     3900  0     0    
2019/03/04  01:59:00  BASE  0.588    296  1.63464  340  2.1   100   2.1   0     0     984.2    NA       0.0000   9999     3900  0     0    
2019/03/04  02:00:00  BASE  0.97608  273  2.058    259  2.2   100   2.2   0     0     984.2    NA       0.0000   9999     3900  0     0    
2019/03/04  02:01:00  BASE  1.46412  253  2.058    259  2.2   100   2.2   0     0     984.1    NA       0.0000   9999     3870  0     0    
2019/03/04  02:02:00  BASE  1.84632  243  2.29908  243  1.9   100   1.9   0     0     984.0    NA       0.0000   9999     3770  0     0    
2019/03/04  02:03:00  BASE  1.39944  249  2.29908  243  1.9   100   1.9   0     0     984.2    NA       0.0000   9999     3710  0     0    
2019/03/04  02:04:00  BASE  1.01724  29   2.35788  69   1.8   100   1.8   0     0     984.3    NA       0.0000   9999     3840  0     0    
2019/03/04  02:05:00  BASE  1.53468  76   2.35788  69   1.9   100   1.9   0     0     984.3    NA       0.0000   9999     3670  0     0    
2019/03/04  02:06:00  BASE  1.28772  104  2.35788  69   1.9   100   1.9   0     0     984.2    NA       0.0000   9999     3610  0     0    
2019/03/04  02:07:00  BASE  0.98784  133  2.35788  69   2.0   100   2.0   0     0     984.2    NA       0.0000   9999     3740  0     0    
2019/03/04  02:08:00  BASE  1.37004  147  2.35788  69   2.1   100   2.1   0     0     984.1    NA       0.0000   9999     3710  0     0    
2019/03/04  02:09:00  BASE  1.8816   146  2.35788  69   2.1   100   2.1   0     0     984.1    NA       0.0000   9999     3940  0     0    
2019/03/04  02:10:00  BASE  1.92864  136  2.35788  69   2.1   100   2.1   0     0     984.2    NA       0.0000   9999     3840  0     0    
2019/03/04  02:11:00  BASE  1.323    125  2.35788  69   2.0   100   2.0   0     0     984.2    NA       0.0000   9999     3740  0     0    
2019/03/04  02:12:00  BASE  0.86436  131  2.35788  69   2.0   100   2.0   0     0     984.1    NA       0.0000   9999     3710  0     0    
2019/03/04  02:13:02  BASE  0.81144  138  2.35788  69   2.0   100   2.0   0     0     M        NA       0.0000   M        3710  0     0    
2019/03/04  02:14:02  BASE  0.46452  150  2.35788  69   2.1   100   2.1   0     0     984.1    NA       0.0000   9999     3740  0     0    
2019/03/04  02:15:02  BASE  0.05292  148  2.32848  146  2.2   100   2.2   0     0     984.1    NA       0.0000   9999     3710  0     0    
2019/03/04  02:16:01  BASE  0.3822   166  2.32848  146  2.3   100   2.3   0     0     984.1    NA       0.0000   9999     3770  0     0    
2019/03/04  02:17:03  BASE  1.52292  185  2.63424  179  2.4   100   2.4   0     0     984.0    NA       0.0000   9999     3770  0     0    
2019/03/04  02:18:01  BASE  2.49312  175  2.84592  172  2.4   100   2.4   0     0     984.0    NA       0.0000   9999     3740  0     0    
2019/03/04  02:19:02  BASE  2.74008  158  2.87532  144  2.4   100   2.4   0     0     984.1    NA       0.0000   9999     3540  0     0    
2019/03/04  02:20:02  BASE  2.71068  143  2.93412  141  2.4   100   2.4   0     0     984.1    NA       0.0000   9999     3640  0     0    
2019/03/04  02:21:02  BASE  2.0286   129  2.93412  141  2.3   100   2.3   0     0     984.1    NA       0.0000   9999     3610  0     0    
2019/03/04  02:22:02  BASE  0.97608  139  2.93412  141  2.2   100   2.2   0     0     984.0    NA       0.0000   9999     3670  0     0    
2019/03/04  02:23:02  BASE  0.85848  169  2.93412  141  2.2   100   2.2   0     0     984.0    NA       0.0000   9999     3640  0     0    
2019/03/04  02:24:02  BASE  1.24656  160  2.93412  141  2.1   100   2.1   0     0     984.0    NA       0.0000   9999     3580  0     0    
2019/03/04  02:25:02  BASE  0.98196  136  2.93412  141  2.1   100   2.1   0     0     984.1    NA       0.0000   9999     3580  0     0    
2019/03/04  02:26:02  BASE  0.55272  123  2.93412  141  2.1   100   2.1   0     0     984.1    NA       0.0000   9999     3540  0     0    
2019/03/04  02:27:03  BASE  0.2646   90   2.93412  141  2.1   100   2.1   0     0     984.1    NA       0.0000   9999     3640  0     0    
2019/03/04  02:28:02  BASE  0.51744  33   2.93412  141  2.1   100   2.1   0     0     984.1    NA       0.0000   9999     3640  0     0    
2019/03/04  02:29:02  BASE  0.9702   10   2.93412  141  2.1   100   2.1   0     0     984.1    NA       0.0000   9999     3640  0     0    
2019/03/04  02:30:02  BASE  0.54096  14   1.96392  133  2.1   100   2.1   0     0     984.1    NA       0.0000   9999     3540  0     0    
2019/03/04  02:31:01  BASE  0.28812  19   1.48176  149  2.0   100   2.0   0     0     984.1    NA       0.0000   9999     3480  0     0    
2019/03/04  02:32:02  BASE  0.22932  338  1.48176  149  2.0   100   2.0   0     0     984.0    NA       0.0000   UP       9999  3640  0    
2019/03/04  02:33:02  BASE  0        281  1.48176  149  1.9   100   1.9   0     0     984.0    NA       0.0000   UP       9999  3670  0    
2019/03/04  02:34:02  BASE  0        301  1.39356  8    1.8   100   1.8   0     0     984.1    NA       0.0000   UP       9999  3670  0    
2019/03/04  02:35:01  BASE  0.22932  5    1.39356  8    1.8   100   1.8   0     0     984.1    NA       0.0000   UP       9999  3540  0    
2019/03/04  02:36:02  BASE  0.22932  21   1.39356  8    1.8   100   1.8   0     0     984.1    NA       0.0000   UP       9999  3640  0    
2019/03/04  02:37:02  BASE  0.0588   2    1.39356  8    1.9   100   1.9   0     0     984.1    NA       0.0000   UP       9999  3580  0    
2019/03/04  02:38:01  BASE  0.91728  331  2.32848  318  2.1   100   2.1   0     0     984.1    NA       0.0000   UP       9999  3740  0    
2019/03/04  02:39:02  BASE  1.99332  320  2.48136  318  2.1   100   2.1   0     0     984.1    NA       0.0000   UP       9999  3670  0    
2019/03/04  02:40:02  BASE  2.04036  317  2.48136  318  2.1   100   2.1   0     0     984.1    NA       0.0000   UP       9999  3640  0    
2019/03/04  02:41:02  BASE  1.9698   312  2.48136  318  2.0   100   2.0   0     0     984.1    NA       0.0000   UP       9999  3510  0    
2019/03/04  02:42:02  BASE  1.9698   307  2.48136  318  1.8   100   1.8   0     0     984.1    NA       0.0000   UP       9999  3580  0    
2019/03/04  02:43:02  BASE  1.40532  306  2.48136  318  1.7   100   1.7   0     0     984.1    NA       0.0000   9999     3640  0     0    
2019/03/04  02:44:01  BASE  0.49392  319  2.48136  318  1.7   100   1.7   0     0     984.1    NA       0.0000   9999     3710  0     0    
2019/03/04  02:45:03  BASE  0.21168  346  2.48136  318  1.8   100   1.8   0     0     984.1    NA       0.0000   9999     3670  0     0    
2019/03/04  02:46:01  BASE  0.6468   353  2.48136  318  1.9   100   1.9   0     0     984.1    NA       0.0000   9999     3610  0     0    
2019/03/04  02:47:02  BASE  0.92904  342  2.48136  318  2.0   100   2.0   0     0     984.1    NA       0.0000   9999     3610  0     0    
2019/03/04  02:48:02  BASE  1.029    342  2.48136  318  2.1   100   2.1   0     0     984.1    NA       0.0000   9999     3580  0     0    
2019/03/04  02:49:01  BASE  1.06428  6    2.29908  306  2.1   100   2.1   0     0     984.1    NA       0.0000   9999     3540  0     0    
2019/03/04  02:50:01  BASE  0.92316  17   2.29908  306  2.2   100   2.2   0     0     984.1    NA       0.0000   9999     3710  0     0    
2019/03/04  02:51:01  BASE  0.7056   6    2.29908  306  2.2   100   2.2   0     0     984.1    NA       0.0000   9999     3610  0     0    
2019/03/04  02:52:02  BASE  0.42924  356  1.29948  303  2.1   100   2.1   0     0     984.1    NA       0.0000   9999     3580  0     0    
2019/03/04  02:53:02  BASE  0.5292   340  1.21128  17   2.1   100   2.1   0     0     984.0    NA       0.0000   9999     3670  0     0    
2019/03/04  02:54:02  BASE  0.78792  325  1.21128  17   2.0   100   2.0   0     0     984.0    NA       0.0000   9999     3670  0     0    
2019/03/04  02:55:02  BASE  0.39984  338  1.21128  17   2.0   100   2.0   0     0     984.0    NA       0.0000   9999     3670  0     0    
2019/03/04  02:56:02  BASE  0.0294   6    1.21128  17   2.0   100   2.0   0     0     984.0    NA       0.0000   9999     3770  0     0    
2019/03/04  02:57:01  BASE  0.22344  14   1.21128  17   1.9   100   1.9   0     0     984.0    NA       0.0000   9999     3870  0     0    
2019/03/04  02:58:01  BASE  0.72324  4    1.21128  17   1.9   100   1.9   0     0     984.1    NA       0.0000   9999     3970  0     0    
2019/03/04  02:59:01  BASE  0.87024  351  1.1172   360  1.9   100   1.9   0     0     984.0    NA       0.0000   9999     3840  0     0    
2019/03/04  03:00:01  BASE  0.42336  322  1.1172   360  1.9   100   1.9   0     0     984.0    NA       0.0000   9999     3740  0     0    
2019/03/04  03:01:02  BASE  0.45864  294  1.75224  285  2.0   100   2.0   0     0     984.0    NA       0.0000   9999     3870  0     0    
2019/03/04  03:02:02  BASE  0.68208  291  1.75224  285  2.2   100   2.2   0     0     984.0    NA       0.0000   9999     3900  0     0    
2019/03/04  03:03:02  BASE  0.62328  328  1.75224  285  2.3   100   2.3   0     0     984.1    NA       0.0000   9999     3970  0     0    
2019/03/04  03:04:01  BASE  0.89376  350  1.75224  285  2.5   100   2.5   0     0     984.0    NA       0.0000   9999     3900  0     0    
2019/03/04  03:05:03  BASE  0.9996   328  1.75224  285  2.6   100   2.6   0     0     984.0    NA       0.0000   9999     4040  0     0    
2019/03/04  03:06:02  BASE  0.54684  305  1.75224  285  2.6   100   2.6   0     0     983.9    NA       0.0000   9999     3970  0     0    
2019/03/04  03:07:01  BASE  0.47628  305  1.75224  285  2.6   100   2.6   0     0     984.0    NA       0.0000   9999     3900  0     0    
2019/03/04  03:08:02  BASE  0.92904  334  1.75224  285  2.6   100   2.6   0     0     984.0    NA       0.0000   9999     3770  0     0    
2019/03/04  03:09:02  BASE  1.07016  347  1.75224  285  2.6   100   2.6   0     0     984.0    NA       0.0000   9999     3900  0     0    
2019/03/04  03:10:01  BASE  1.19364  350  1.75224  285  2.7   100   2.7   0     0     984.0    NA       0.0000   9999     3900  0     0    
2019/03/04  03:11:01  BASE  1.39944  350  1.66404  345  2.6   100   2.6   0     0     984.0    NA       0.0000   9999     3900  0     0    
2019/03/04  03:12:02  BASE  1.47     353  1.81692  354  2.6   100   2.6   0     0     984.0    NA       0.0000   9999     3810  0     0    
2019/03/04  03:13:02  BASE  1.48764  1    1.81692  354  2.5   100   2.5   0     0     984.0    NA       0.0000   9999     3710  0     0    
2019/03/04  03:14:01  BASE  1.323    8    1.81692  354  2.4   100   2.4   0     0     984.0    NA       0.0000   9999     3710  0     0    
2019/03/04  03:15:02  BASE  1.27008  16   1.81692  354  2.4   100   2.4   0     0     984.0    NA       0.0000   9999     3710  0     0    
2019/03/04  03:16:02  BASE  1.4406   16   1.81692  354  2.3   100   2.3   0     0     984.0    NA       0.0000   9999     3670  0     0    
2019/03/04  03:17:02  BASE  1.27596  15   1.81692  354  2.2   100   2.2   0     0     984.0    NA       0.0000   9999     3770  0     0    
2019/03/04  03:18:03  BASE  1.03488  22   1.81692  354  2.2   100   2.2   0     0     984.0    NA       0.0000   9999     3740  0     0    
2019/03/04  03:19:02  BASE  1.08192  29   1.81692  354  2.1   100   2.1   0     0     983.9    NA       0.0000   9999     3640  0     0    
2019/03/04  03:20:02  BASE  1.0878   34   1.81692  354  2.0   100   2.0   0     0     983.9    NA       0.0000   9999     3840  0     0    
2019/03/04  03:21:01  BASE  0.96432  45   1.81692  354  2.0   100   2.0   0     0     983.9    NA       0.0000   9999     3770  0     0    
2019/03/04  03:22:02  BASE  0.99372  50   1.69344  9    2.0   100   2.0   0     0     983.9    NA       0.0000   9999     3740  0     0    
2019/03/04  03:23:03  BASE  1.19364  48   1.69344  9    2.1   100   2.1   0     0     983.9    NA       0.0000   9999     3510  0     0    
2019/03/04  03:24:03  BASE  1.3818   64   1.69344  9    2.2   100   2.2   0     0     983.8    NA       0.0000   9999     3610  0     0    
2019/03/04  03:25:02  BASE  1.19364  90   1.63464  83   2.3   100   2.3   0     0     983.7    NA       0.0000   9999     3670  0     0    
2019/03/04  03:26:02  BASE  0.53508  89   1.63464  83   2.4   100   2.4   0     0     983.7    NA       0.0000   9999     3610  0     0    
2019/03/04  03:27:03  BASE  0.735    67   1.69344  64   2.5   100   2.5   0     0     983.7    NA       0.0000   9999     3540  0     0    
2019/03/04  03:28:03  BASE  1.37592  58   1.90512  53   2.6   100   2.6   0     0     983.7    NA       0.0000   9999     3640  0     0    
2019/03/04  03:29:02  BASE  0.95256  53   1.90512  53   2.7   100   2.7   0     0     983.7    NA       0.0000   9999     3410  0     0    
2019/03/04  03:30:02  BASE  0.24108  46   1.90512  53   2.7   100   2.7   0     0     983.7    NA       0.0000   9999     3380  0     0    
2019/03/04  03:31:03  BASE  0.5586   41   1.90512  53   2.8   100   2.8   0     0     983.7    NA       0.0000   9999     3450  0     0    
2019/03/04  03:32:02  BASE  1.11132  41   1.90512  53   2.8   100   2.8   0     0     983.7    NA       0.0000   9999     3480  0     0    
2019/03/04  03:33:03  BASE  1.3524   41   1.90512  53   2.8   100   2.8   0     0     983.7    NA       0.0000   9999     3480  0     0    
2019/03/04  03:34:02  BASE  1.6464   46   1.90512  56   2.8   100   2.8   0     0     983.7    NA       0.0000   9999     3510  0     0    
2019/03/04  03:35:02  BASE  1.81692  57   2.1462   63   2.8   100   2.8   0     0     983.7    NA       0.0000   9999     3450  0     0    
2019/03/04  03:36:03  BASE  1.51704  66   2.1462   63   2.8   100   2.8   0     0     983.7    NA       0.0000   9999     3670  0     0    
2019/03/04  03:37:02  BASE  0.79968  52   2.1462   63   2.7   100   2.7   0     0     983.7    NA       0.0000   9999     3510  0     0    
2019/03/04  03:38:03  BASE  0.86436  33   2.1462   63   2.8   100   2.8   0     0     983.7    NA       0.0000   9999     3480  0     0    
2019/03/04  03:39:03  BASE  1.30536  44   2.1462   63   2.8   100   2.8   0     0     983.7    NA       0.0000   9999     3640  0     0    
2019/03/04  03:40:03  BASE  1.35828  55   2.1462   63   2.8   100   2.8   0     0     983.7    NA       0.0000   9999     3540  0     0    
2019/03/04  03:41:03  BASE  1.29948  51   2.1462   63   2.8   100   2.8   0     0     983.7    NA       0.0000   9999     3480  0     0    
2019/03/04  03:42:02  BASE  1.2642   50   2.1462   63   2.9   100   2.9   0     0     983.7    NA       0.0000   9999     3510  0     0    
2019/03/04  03:43:03  BASE  1.09956  71   2.1462   63   2.8   100   2.8   0     0     983.6    NA       0.0000   9999     3510  0     0    
2019/03/04  03:44:03  BASE  0.9996   83   2.1462   63   2.9   100   2.9   0     0     983.5    NA       0.0000   9999     3510  0     0    
2019/03/04  03:45:03  BASE  0.74088  73   1.69344  60   2.9   100   2.9   0     0     983.5    NA       0.0000   9999     3510  0     0    
2019/03/04  03:46:03  BASE  0.2646   55   1.57584  35   2.9   100   2.9   0     0     983.5    NA       0.0000   9999     3540  0     0    
2019/03/04  03:47:03  BASE  0.25872  45   1.57584  35   2.9   100   2.9   0     0     983.6    NA       0.0000   9999     3580  0     0    
2019/03/04  03:48:02  BASE  0.65856  72   1.54056  54   3.0   100   3.0   0     0     983.7    NA       0.0000   9999     3510  4300  0    
2019/03/04  03:49:03  BASE  0.5292   92   1.51116  42   3.0   100   3.0   0     0     983.7    NA       0.0000   9999     3640  0     0    
2019/03/04  03:50:02  BASE  0.12936  102  1.51116  42   3.0   100   3.0   0     0     983.6    NA       0.0000   9999     3640  4200  0    
2019/03/04  03:51:03  BASE  0.09996  132  1.51116  42   3.0   100   3.0   0     0     983.5    NA       0.0000   9999     3610  4330  0    
2019/03/04  03:52:03  BASE  0.05292  130  1.35828  88   3.1   100   3.1   0     0     983.6    NA       0.0000   9999     3670  0     0    
2019/03/04  03:53:02  BASE  0        92   1.35828  88   3.1   100   3.1   0     0     983.7    NA       0.0000   9999     3580  0     0    
2019/03/04  03:54:02  BASE  0.0588   82   1.35828  88   3.1   100   3.1   0     0     983.6    NA       0.0000   9999     3770  0     0    
2019/03/04  03:55:03  BASE  0.53508  86   1.35828  88   3.2   100   3.2   0     0     983.6    NA       0.0000   9999     3710  0     0    
2019/03/04  03:56:02  BASE  1.07604  77   1.57584  71   3.2   100   3.2   0     0     983.6    NA       0.0000   9999     3580  0     0    
2019/03/04  03:57:03  BASE  0.89376  80   1.57584  71   3.3   100   3.3   0     0     983.5    NA       0.0000   9999     3640  0     0    
2019/03/04  03:58:03  BASE  0.31752  97   1.57584  71   3.3   100   3.3   0     0     983.5    NA       0.0000   9999     3640  0     0    
2019/03/04  03:59:03  BASE  0.42336  111  1.57584  71   3.3   100   3.3   0     0     983.5    NA       0.0000   9999     3580  0     0    
2019/03/04  04:00:02  BASE  0.89376  120  1.57584  71   3.2   100   3.2   0     0     983.5    NA       0.0000   9999     3640  0     0    
2019/03/04  04:01:03  BASE  1.07016  123  1.57584  71   3.2   100   3.2   0     0     983.5    NA       0.0000   9999     3580  0     0    
2019/03/04  04:02:02  BASE  1.17012  120  1.57584  71   3.1   100   3.1   0     0     983.5    NA       0.0000   9999     3610  0     0    
2019/03/04  04:03:03  BASE  1.24068  117  1.57584  71   3.1   100   3.1   0     0     983.5    NA       0.0000   9999     3610  0     0    
2019/03/04  04:04:02  BASE  1.24068  118  1.57584  71   3.0   100   3.0   0     0     983.5    NA       0.0000   9999     3450  0     0    
2019/03/04  04:05:04  BASE  1.12308  114  1.57584  71   3.0   100   3.0   0     0     983.5    NA       0.0000   9999     3580  0     0    
2019/03/04  04:06:03  BASE  0.77028  102  1.42296  117  3.0   100   3.0   0     0     983.5    NA       0.0000   9999     3610  0     0    
2019/03/04  04:07:03  BASE  0.24696  98   1.42296  117  3.0   100   3.0   0     0     983.5    NA       0.0000   9999     3480  0     0    
2019/03/04  04:08:03  BASE  0.0882   117  1.42296  117  3.0   100   3.0   0     0     983.5    NA       0.0000   9999     3540  0     0    
2019/03/04  04:09:03  BASE  0.57036  132  1.42296  117  3.0   100   3.0   0     0     983.5    NA       0.0000   9999     3640  0     0    
2019/03/04  04:10:04  BASE  1.0584   127  1.42296  117  3.0   100   3.0   0     0     983.5    NA       0.0000   9999     3740  0     0    
2019/03/04  04:11:03  BASE  1.2642   131  1.57584  142  3.0   100   3.0   0     0     983.5    NA       0.0000   9999     3640  0     0    
2019/03/04  04:12:03  BASE  1.5288   143  1.81692  151  3.0   100   3.0   0     0     983.4    NA       0.0000   9999     3540  4230  6790 
2019/03/04  04:13:03  BASE  1.55232  150  1.81692  151  2.9   100   2.9   0     0     983.4    NA       0.0000   9999     3610  0     0    
2019/03/04  04:14:03  BASE  0.95256  145  1.81692  151  2.9   100   2.9   0     0     983.5    NA       0.0000   9999     3580  0     0    
2019/03/04  04:15:03  BASE  0.24108  122  1.81692  151  2.8   100   2.8   0     0     983.5    NA       0.0000   9999     3610  0     0    
2019/03/04  04:16:02  BASE  0.2352   121  1.81692  151  2.8   100   2.8   0     0     983.4    NA       0.0000   9999     3510  0     0    
2019/03/04  04:17:03  BASE  0.882    156  1.81692  151  2.8   100   2.8   0     0     983.4    NA       0.0000   9999     3610  0     0    
2019/03/04  04:18:03  BASE  1.04076  157  1.81692  151  2.9   100   2.9   0     0     983.4    NA       0.0000   9999     3640  4170  0    
2019/03/04  04:19:03  BASE  0.7644   131  1.81692  151  2.9   100   2.9   0     0     983.4    NA       0.0000   9999     3380  0     0    
2019/03/04  04:20:03  BASE  0.78204  132  1.81692  151  3.0   100   3.0   0     0     983.4    NA       0.0000   9999     3540  0     0    
2019/03/04  04:21:03  BASE  0.74676  152  1.81692  151  3.0   100   3.0   0     0     983.4    NA       0.0000   9999     3610  0     0    
2019/03/04  04:22:03  BASE  0.68208  149  1.69344  153  3.0   100   3.0   0     0     983.4    NA       0.0000   9999     3710  0     0    
2019/03/04  04:23:03  BASE  1.05252  131  1.57584  120  3.0   100   3.0   0     0     983.4    NA       0.0000   9999     3450  0     0    
2019/03/04  04:24:03  BASE  1.54056  126  1.72284  127  3.0   100   3.0   0     0     983.4    NA       0.0000   9999     3640  0     0    
2019/03/04  04:25:02  BASE  1.58172  135  1.72284  127  3.0   100   3.0   0     0     983.3    NA       0.0000   9999     3510  0     0    
2019/03/04  04:26:03  BASE  1.38768  140  1.72284  127  3.0   100   3.0   0     0     983.3    NA       0.0000   9999     3610  0     0    
2019/03/04  04:27:03  BASE  0.93492  143  1.72284  127  3.0   100   3.0   0     0     983.3    NA       0.0000   9999     3350  0     0    
2019/03/04  04:28:03  BASE  0.39984  158  1.72284  127  3.0   100   3.0   0     0     983.3    NA       0.0000   9999     3450  0     0    
2019/03/04  04:29:03  BASE  0.62916  172  1.72284  127  3.0   100   3.0   0     0     983.3    NA       0.0000   9999     3670  0     0    
2019/03/04  04:30:02  BASE  1.2054   163  1.72284  127  3.1   100   3.1   0     0     983.3    NA       0.0000   9999     3670  0     0    
2019/03/04  04:31:03  BASE  1.39944  144  1.72284  127  3.1   100   3.1   0     0     983.3    NA       0.0000   9999     3740  0     0    
2019/03/04  04:32:03  BASE  1.28184  134  1.72284  127  3.0   100   3.0   0     0     983.3    NA       0.0000   9999     3480  0     0    
2019/03/04  04:33:03  BASE  1.21716  131  1.72284  127  3.0   100   3.0   0     0     983.3    NA       0.0000   9999     3640  0     0    
2019/03/04  04:34:03  BASE  1.51704  131  1.9992   126  2.9   100   2.9   0     0     983.3    NA       0.0000   9999     3840  0     0    
2019/03/04  04:35:03  BASE  1.87572  129  2.32848  143  2.9   100   2.9   0     0     983.3    NA       0.0000   9999     3350  0     0    
2019/03/04  04:36:03  BASE  1.5582   122  2.32848  143  2.9   100   2.9   0     0     983.2    NA       0.0000   9999     3640  0     0    
2019/03/04  04:37:03  BASE  1.08192  119  2.32848  143  3.0   100   3.0   0     0     983.2    NA       0.0000   9999     3450  0     0    
2019/03/04  04:38:03  BASE  1.22304  130  2.32848  143  3.0   100   3.0   0     0     983.1    NA       0.0000   9999     3350  0     0    
2019/03/04  04:39:03  BASE  1.28772  144  2.32848  143  3.1   100   3.1   0     0     983.1    NA       0.0000   9999     3410  0     0    
2019/03/04  04:40:02  BASE  0.59388  142  2.32848  143  3.1   100   3.1   0     0     983.2    NA       0.0000   9999     3580  0     0    
2019/03/04  04:41:03  BASE  0.2058   115  2.32848  143  3.2   100   3.2   0     0     983.2    NA       0.0000   9999     3740  0     0    
2019/03/04  04:42:03  BASE  0.98784  118  2.32848  143  3.2   100   3.2   0     0     983.1    NA       0.0000   9999     3770  0     0    
2019/03/04  04:43:04  BASE  1.71108  151  2.32848  143  3.2   100   3.2   0     0     983.1    NA       0.0000   9999     3710  0     0    
2019/03/04  04:44:03  BASE  1.7052   171  2.32848  143  3.2   100   3.2   0     0     982.9    NA       0.0000   9999     3580  0     0    
2019/03/04  04:45:03  BASE  1.58172  173  2.0286   160  3.2   100   3.2   0     0     982.9    NA       0.0000   9999     3540  0     0    
2019/03/04  04:46:03  BASE  1.65228  164  2.0286   160  3.1   100   3.1   0     0     983.0    NA       0.0000   9999     4040  0     0    
2019/03/04  04:47:02  BASE  1.64052  157  2.0286   160  3.1   100   3.1   0     0     983.1    NA       0.0000   9999     3810  0     0    
2019/03/04  04:48:02  BASE  1.54056  157  2.0286   160  3.1   100   3.1   0     0     983.0    NA       0.0000   9999     4070  0     0    
2019/03/04  04:49:03  BASE  1.68168  157  2.0874   155  3.1   100   3.1   0     0     982.9    NA       0.0000   9999     4040  0     0    
2019/03/04  04:50:02  BASE  2.205    158  3.02232  163  3.0   100   3.0   0     0     982.9    NA       0.0000   9999     3970  0     0    
2019/03/04  04:51:03  BASE  2.81652  161  3.2046   161  3.0   100   3.0   0     0     982.9    NA       0.0000   9999     3870  0     0    
2019/03/04  04:52:03  BASE  2.5872   153  3.2046   161  3.0   100   3.0   0     0     982.9    NA       0.0000   9999     3870  0     0    
2019/03/04  04:53:03  BASE  1.75812  130  3.2046   161  2.9   100   2.9   0     0     982.9    NA       0.0000   9999     3810  0     0    
2019/03/04  04:54:03  BASE  1.77576  131  3.2046   161  2.9   100   2.9   0     0     982.9    NA       0.0000   9999     3740  0     0    
2019/03/04  04:55:02  BASE  2.81652  150  3.75144  158  2.9   100   2.9   0     0     982.8    NA       0.0000   9999     3610  0     0    
2019/03/04  04:56:03  BASE  2.81652  144  3.75144  158  2.9   100   2.9   0     0     982.8    NA       0.0000   9999     3710  0     0    
2019/03/04  04:57:02  BASE  1.72872  131  3.75144  158  3.0   100   3.0   0     0     982.9    NA       0.0000   9999     3710  0     0    
2019/03/04  04:58:03  BASE  1.2936   117  3.75144  158  3.0   100   3.0   0     0     982.9    NA       0.0000   9999     3670  6140  0    
2019/03/04  04:59:03  BASE  1.78752  131  3.75144  158  3.0   100   3.0   0     0     982.6    NA       0.0000   9999     3450  0     0    
2019/03/04  05:00:02  BASE  2.64012  165  3.75144  158  3.1   100   3.1   0     0     982.5    NA       0.0000   9999     3120  0     0    
2019/03/04  05:01:03  BASE  2.28732  142  3.75144  158  3.1   100   3.1   0     0     982.7    NA       0.0000   9999     3050  0     0    
2019/03/04  05:02:03  BASE  1.50528  114  3.75144  158  3.2   100   3.2   0     0     982.7    NA       0.0000   9999     3180  0     0    
2019/03/04  05:03:03  BASE  1.52292  119  3.75144  158  3.2   100   3.2   0     0     982.7    NA       0.0000   9999     3220  0     0    
2019/03/04  05:04:03  BASE  1.48764  116  3.75144  158  3.2   100   3.2   0     0     982.7    NA       0.0000   9999     3220  0     0    
2019/03/04  05:05:04  BASE  1.01724  115  3.53976  176  3.2   100   3.2   0     0     982.7    NA       0.0000   9999     3020  0     0    
2019/03/04  05:06:02  BASE  0.68208  131  3.53976  176  3.3   100   3.3   0     0     982.6    NA       0.0000   9999     3180  0     0    
2019/03/04  05:07:03  BASE  0.95256  148  3.53976  176  3.3   100   3.3   0     0     982.6    NA       0.0000   9999     2950  3580  0    
2019/03/04  05:08:03  BASE  1.42296  154  3.53976  176  3.4   100   3.4   0     0     982.6    NA       0.0000   9999     3020  0     0    
2019/03/04  05:09:03  BASE  1.4994   151  3.53976  176  3.4   100   3.4   0     0     982.6    NA       0.0000   9999     3610  0     0    
2019/03/04  05:10:02  BASE  1.39944  135  1.84632  123  3.4   100   3.4   0     0     982.6    NA       0.0000   9999     3410  0     0    
2019/03/04  05:11:02  BASE  1.42884  118  1.84632  123  3.5   100   3.5   0     0     982.7    NA       0.0000   9999     3480  0     0    
2019/03/04  05:12:04  BASE  1.10544  115  1.84632  123  3.5   100   3.5   0     0     982.7    NA       0.0000   9999     3410  0     0    
2019/03/04  05:13:03  BASE  0.81732  136  1.81692  160  3.5   100   3.5   0     0     982.6    NA       0.0000   9999     3840  0     0    
2019/03/04  05:14:02  BASE  0.53508  162  1.81692  160  3.6   100   3.6   0     0     982.6    NA       0.0000   9999     3970  0     0    
2019/03/04  05:15:02  BASE  0.41748  131  1.81692  160  3.7   100   3.7   0     0     982.7    NA       0.0000   9999     3970  0     0    
2019/03/04  05:16:02  BASE  0.78792  108  1.81692  160  3.7   100   3.7   0     0     982.6    NA       0.0000   9999     4070  0     0    
2019/03/04  05:17:02  BASE  1.68168  156  2.81064  180  3.7   100   3.7   0     0     982.5    NA       0.0000   9999     4070  0     0    
2019/03/04  05:18:03  BASE  2.46372  182  2.81064  180  3.7   100   3.7   0     0     982.4    NA       0.0000   9999     3940  0     0    
2019/03/04  05:19:03  BASE  2.22852  178  2.81064  180  3.6   100   3.6   0     0     982.6    NA       0.0000   9999     3940  0     0    
2019/03/04  05:20:03  BASE  1.27008  160  2.81064  180  3.5   100   3.5   0     0     982.7    NA       0.0000   9999     3970  0     0    
2019/03/04  05:21:02  BASE  0.81732  165  2.81064  180  3.4   100   3.4   0     0     982.7    NA       0.0000   9999     4000  0     0    
2019/03/04  05:22:03  BASE  1.27008  192  2.81064  180  3.4   100   3.4   0     0     982.7    NA       0.0000   9999     4000  0     0    
2019/03/04  05:23:03  BASE  1.79928  196  2.81064  180  3.4   100   3.4   0     0     982.6    NA       0.0000   9999     3840  0     0    
2019/03/04  05:24:02  BASE  2.22852  192  2.81064  180  3.4   100   3.4   0     0     982.6    NA       0.0000   9999     3840  0     0    
2019/03/04  05:25:02  BASE  2.07564  193  2.81064  180  3.3   100   3.3   0     0     982.7    NA       0.0000   9999     3770  0     0    
2019/03/04  05:26:02  BASE  1.39356  194  2.81064  180  3.3   100   3.3   0     0     982.7    NA       0.0000   9999     3840  0     0    
2019/03/04  05:27:02  BASE  0.99372  202  2.75184  184  3.2   100   3.2   0     0     982.7    NA       0.0000   9999     3840  0     0    
2019/03/04  05:28:03  BASE  1.04076  207  2.63424  196  3.2   100   3.2   0     0     982.7    NA       0.0000   9999     3770  0     0    
2019/03/04  05:29:03  BASE  1.2054   201  2.63424  196  3.2   100   3.2   0     0     982.6    NA       0.0000   9999     3840  0     0    
2019/03/04  05:30:02  BASE  1.53468  193  2.63424  196  3.2   100   3.2   0     0     982.6    NA       0.0000   9999     3870  0     0    
2019/03/04  05:31:02  BASE  1.7346   190  2.63424  196  3.2   100   3.2   0     0     982.6    NA       0.0000   9999     3810  0     0    
2019/03/04  05:32:02  BASE  1.6464   199  2.63424  196  3.2   100   3.2   0     0     982.4    NA       0.0000   9999     3870  0     0    
2019/03/04  05:33:03  BASE  1.55232  211  2.63424  196  3.2   100   3.2   0     0     982.4    NA       0.0000   9999     3710  0     0    
2019/03/04  05:34:03  BASE  1.42884  215  2.1462   189  3.2   100   3.2   0     0     982.5    NA       0.0000   9999     3710  0     0    
2019/03/04  05:35:02  BASE  1.07016  212  1.81692  187  3.1   100   3.1   0     0     982.6    NA       0.0000   9999     3740  0     0    
2019/03/04  05:36:03  BASE  0.42336  203  1.81692  187  3.1   100   3.1   0     0     982.6    NA       0.0000   9999     3670  0     0    
2019/03/04  05:37:02  BASE  0.36456  200  1.81692  187  3.2   100   3.2   0     0     982.6    NA       0.0000   9999     3610  0     0    
2019/03/04  05:38:02  BASE  0.39396  195  1.81692  187  3.2   100   3.2   0     0     982.6    NA       0.0000   9999     3810  0     0    
2019/03/04  05:39:03  BASE  0.05292  180  1.81692  187  3.2   100   3.2   0     0     982.5    NA       0.0000   9999     3670  0     0    
2019/03/04  05:40:03  BASE  0.31752  200  1.78752  195  3.3   100   3.3   0     0     982.4    NA       0.0000   9999     3580  0     0    
2019/03/04  05:41:02  BASE  0.71148  212  1.69344  213  3.4   100   3.4   0     0     982.4    NA       0.0000   9999     3480  0     0    
2019/03/04  05:42:02  BASE  0.5292   176  1.63464  215  3.4   100   3.4   0     0     982.4    NA       0.0000   9999     3540  0     0    
2019/03/04  05:43:02  BASE  0.12936  152  1.42296  215  3.4   100   3.4   0     0     982.4    NA       0.0000   9999     3610  0     0    
2019/03/04  05:44:02  BASE  0.3822   138  1.1466   120  3.4   100   3.4   0     0     982.4    NA       0.0000   9999     3610  0     0    
2019/03/04  05:45:02  BASE  0.84672  146  1.42296  162  3.3   100   3.3   0     0     982.4    NA       0.0000   UP       9999  3710  0    
2019/03/04  05:46:03  BASE  1.1172   143  1.42296  133  3.3   100   3.3   0     0     982.3    NA       0.0000   UP       9999  3840  0    
2019/03/04  05:47:03  BASE  1.18776  126  1.42296  133  3.2   100   3.2   0     0     982.3    NA       0.0000   UP       9999  3670  0    
2019/03/04  05:48:02  BASE  0.95256  129  1.42296  133  3.2   100   3.2   0     0     982.3    NA       0.0000   UP       9999  3670  0    
2019/03/04  05:49:02  BASE  0.42336  148  1.42296  133  3.2   100   3.2   0     0     982.3    NA       0.0000   UP       9999  3770  0    
2019/03/04  05:50:02  BASE  0        147  1.42296  133  3.2   100   3.2   0     0     982.3    NA       0.0000   UP       9999  3740  0    
2019/03/04  05:51:03  BASE  0.2646   19   1.42296  133  3.3   100   3.3   0     0     982.3    NA       0.0000   UP       9999  3840  0    
2019/03/04  05:52:02  BASE  0.66444  18   1.42296  133  3.4   100   3.4   0     0     982.2    NA       0.0000   UP       9999  3840  0    
2019/03/04  05:53:03  BASE  0.39396  25   1.42296  133  3.5   100   3.5   0     0     982.2    NA       0.0000   UP       9999  3840  0    
2019/03/04  05:54:02  BASE  0.09996  33   1.42296  133  3.6   100   3.6   0     0     982.2    NA       0.0000   UP       9999  3770  0    
2019/03/04  05:55:02  BASE  0.16464  48   1.42296  133  3.7   100   3.7   0     0     982.2    NA       0.0000   UP       9999  3870  0    
2019/03/04  05:56:02  BASE  0.0588   64   1.29948  113  3.8   100   3.8   0     0     982.2    NA       0.0000   UP       9999  3970  0    
2019/03/04  05:57:02  BASE  0        133  1.21128  108  3.9   100   3.9   0     0     982.2    NA       0.0000   UP       9999  3970  0    
2019/03/04  05:58:03  BASE  0        173  1.18188  22   4.1   100   4.1   0     0     982.2    NA       0.0000   UP       9999  4040  0    
2019/03/04  05:59:03  BASE  0        153  1.18188  22   4.2   100   4.2   0     0     982.2    NA       0.0000   UP       9999  3940  0    
2019/03/04  06:00:02  BASE  0.25284  122  1.18188  22   4.2   100   4.2   0     0     982.2    NA       0.0000   UP       9999  3900  0    
2019/03/04  06:01:03  BASE  0.25284  127  0.9996   23   4.3   100   4.3   0     0     982.2    NA       0.0000   -RA      9999  4070  0    
2019/03/04  06:02:02  BASE  0        137  0.84672  96   4.3   100   4.3   0     0     982.2    NA       0.0000   -RA      9999  4040  0    
2019/03/04  06:03:02  BASE  0        143  0.84672  96   4.3   100   4.3   0     0     982.2    NA       0.0000   9999     3970  0     0    
2019/03/04  06:04:03  BASE  0.07056  155  0.9702   126  4.3   100   4.3   0     0     982.2    NA       0.0000   -RA      9999  3710  0    
2019/03/04  06:05:04  BASE  0.5292   140  1.32888  124  4.2   100   4.2   0     0     982.2    NA       0.0000   -RA      9999  3970  0    
2019/03/04  06:06:02  BASE  0.45276  125  1.32888  124  4.1   100   4.1   0     0     982.2    NA       0.0000   -RA      9999  4000  0    
2019/03/04  06:07:03  BASE  0.48216  89   1.35828  320  3.8   100   3.8   0     0     982.2    NA       0.0000   -RA      9999  3970  0    
2019/03/04  06:08:02  BASE  0.95844  315  1.35828  316  3.5   100   3.5   0     0     982.2    NA       0.0000   -RA      9999  3970  0    
2019/03/04  06:09:02  BASE  0.82908  318  1.35828  316  3.3   100   3.3   0     0     982.2    NA       0.0000   -RA      9999  3970  0    
2019/03/04  06:10:02  BASE  0.59976  311  1.35828  316  3.1   100   3.1   0     0     982.2    NA       0.0000   -RA      9999  3970  0    
2019/03/04  06:11:03  BASE  0.55272  323  1.35828  316  3.0   100   3.0   0     0     982.2    NA       0.0000   -RA      9999  4070  0    
2019/03/04  06:12:02  BASE  0.75852  4    1.35828  316  3.0   100   3.0   0     0     982.2    NA       0.0000   -RA      9999  3940  0    
2019/03/04  06:13:03  BASE  0.50568  42   1.35828  316  3.1   100   3.1   0     0     982.2    NA       0.0000   -RA      9999  4000  0    
2019/03/04  06:14:02  BASE  0.3528   33   1.35828  316  3.3   100   3.3   0     0     982.2    NA       0.0000   -RA      9999  4000  0    
2019/03/04  06:15:02  BASE  1.2642   356  2.35788  345  3.4   100   3.4   0     0     982.2    NA       0.0000   -RA      9999  3940  0    
2019/03/04  06:16:02  BASE  1.8816   352  2.35788  345  3.5   100   3.5   0     0     982.2    NA       0.0000   -RA      9999  4100  0    
2019/03/04  06:17:03  BASE  1.68756  3    2.35788  345  3.4   100   3.4   0     0     982.3    NA       0.0000   9999     4130  0     0    
2019/03/04  06:18:03  BASE  1.05252  5    2.35788  345  3.4   100   3.4   0     0     982.2    NA       0.0000   9999     4100  0     0    
2019/03/04  06:19:03  BASE  0.28224  5    2.35788  345  3.2   100   3.2   0     0     982.2    NA       0.0000   9999     4000  0     0    
2019/03/04  06:20:02  BASE  0.45864  25   2.35788  345  3.1   100   3.1   0     0     982.2    NA       0.0000   9999     4040  0     0    
2019/03/04  06:21:02  BASE  1.24068  43   2.42256  20   3.2   100   3.2   0     0     982.3    NA       0.0000   9999     4130  0     0    
2019/03/04  06:22:02  BASE  1.64052  28   2.48136  25   3.4   100   3.4   0     0     982.3    NA       0.0000   9999     4040  0     0    
2019/03/04  06:23:02  BASE  1.35828  19   2.48136  25   3.4   100   3.4   0     0     982.3    NA       0.0000   9999     3810  0     0    
2019/03/04  06:24:03  BASE  0.7644   30   2.48136  25   3.4   100   3.4   0     0     982.2    NA       0.0000   9999     3940  0     0    
2019/03/04  06:25:03  BASE  0.25872  40   2.48136  25   3.5   100   3.5   0     0     982.2    NA       0.0000   9999     3940  0     0    
2019/03/04  06:26:03  BASE  0.18816  101  2.48136  25   3.5   100   3.5   0     0     982.1    NA       0.0000   9999     3970  0     0    
2019/03/04  06:27:02  BASE  0.18816  197  2.48136  25   3.6   100   3.6   0     0     982.1    NA       0.0000   9999     4040  0     0    
2019/03/04  06:28:02  BASE  0        188  2.48136  25   3.8   100   3.8   0     0     982.2    NA       0.0000   9999     3940  0     0    
2019/03/04  06:29:02  BASE  0        63   2.48136  25   3.9   100   3.9   0     0     982.2    NA       0.0000   9999     3970  0     0    
2019/03/04  06:30:02  BASE  0.24696  27   2.48136  25   3.9   100   3.9   0     0     982.2    NA       0.0000   9999     3940  0     0    
2019/03/04  06:31:02  BASE  0.64092  29   2.48136  25   4.0   100   4.0   0     0     982.1    NA       0.0000   9999     3870  0     0    
2019/03/04  06:32:02  BASE  0.41748  31   1.24068  24   4.0   100   4.0   0     0     982.1    NA       0.0000   9999     3900  0     0    
2019/03/04  06:33:03  BASE  0.0294   358  1.18188  28   4.0   100   4.0   0     0     982.1    NA       0.0000   9999     3870  0     0    
2019/03/04  06:34:02  BASE  0        242  0.87612  32   4.0   100   4.0   0     0     982.1    NA       0.0000   9999     3940  0     0    
2019/03/04  06:35:02  BASE  0        208  0.87612  32   4.1   100   4.1   0     0     982.2    NA       0.0000   9999     3940  0     0    
2019/03/04  06:36:02  BASE  0        197  0.87612  32   4.2   100   4.2   0     0     982.2    NA       0.0000   9999     3970  0     0    
2019/03/04  06:37:03  BASE  0        203  0.87612  32   4.2   100   4.2   0     0     982.2    NA       0.0000   9999     3900  0     0    
2019/03/04  06:38:03  BASE  0        221  0.87612  32   4.1   100   4.1   0     0     982.2    NA       0.0000   9999     3900  0     0    
2019/03/04  06:39:03  BASE  0        223  0.87612  32   4.0   100   4.0   0     0     982.2    NA       0.0000   9999     3280  3840  0    
2019/03/04  06:40:02  BASE  0.294    232  0.87612  32   3.9   100   3.9   0     0     982.1    NA       0.0000   9999     3220  3810  0    
2019/03/04  06:41:02  BASE  1.14072  246  2.1462   250  3.7   100   3.7   0     0     982.1    NA       0.0000   9999     3840  0     0    
2019/03/04  06:42:01  BASE  1.74048  250  2.26968  256  3.6   100   3.6   0     0     982.1    NA       0.0000   9999     3900  0     0    
2019/03/04  06:43:02  BASE  1.72284  252  2.26968  256  3.5   100   3.5   0     0     982.2    NA       0.0000   9999     3870  0     0    
2019/03/04  06:44:01  BASE  1.63464  250  2.26968  256  3.4   100   3.4   0     0     982.2    NA       0.0000   9999     3940  0     0    
2019/03/04  06:45:02  BASE  1.48764  245  2.26968  256  3.4   100   3.4   0     0     982.2    NA       0.0000   9999     3940  0     0    
2019/03/04  06:46:02  BASE  1.19952  232  2.26968  256  3.4   100   3.4   0     0     982.2    NA       0.0000   9999     3840  0     0    
2019/03/04  06:47:02  BASE  0.98196  224  2.26968  256  3.4   100   3.4   0     0     982.1    NA       0.0000   9999     3840  0     0    
2019/03/04  06:48:01  BASE  0.98784  233  2.26968  256  3.5   100   3.5   0     0     982.1    NA       0.0000   9999     4000  0     0    
2019/03/04  06:49:03  BASE  1.11132  249  2.26968  256  3.6   100   3.6   0     0     982.1    NA       0.0000   9999     3900  0     0    
2019/03/04  06:50:02  BASE  1.34064  308  2.38728  25   3.7   100   3.7   0     0     982.2    NA       0.0000   9999     3740  0     0    
2019/03/04  06:51:02  BASE  2.06388  22   2.99292  32   3.5   100   3.5   0     0     982.2    NA       0.0000   9999     3810  0     0    
2019/03/04  06:52:02  BASE  2.5284   32   2.99292  32   3.3   100   3.3   0     0     982.2    NA       0.0000   9999     3840  0     0    
2019/03/04  06:53:03  BASE  2.01096  32   2.99292  32   3.2   100   3.2   0     0     982.2    NA       0.0000   9999     3840  0     0    
2019/03/04  06:54:01  BASE  1.02312  34   2.99292  32   3.0   100   3.0   0     0     982.1    NA       0.0000   9999     3770  0     0    
2019/03/04  06:55:02  BASE  0.24108  44   2.99292  32   2.9   100   2.9   0     0     982.1    NA       0.0000   9999     3810  0     0    
2019/03/04  06:56:02  BASE  0.02352  32   2.99292  32   3.0   100   3.0   0     0     982.1    NA       0.0000   9999     3970  0     0    
2019/03/04  06:57:02  BASE  0.29988  324  2.99292  32   3.0   100   3.0   0     0     982.1    NA       0.0000   9999     3900  0     0    
2019/03/04  06:58:02  BASE  0.78792  290  2.99292  32   3.1   100   3.1   0     0     982.1    NA       0.0000   9999     3740  0     0    
2019/03/04  06:59:03  BASE  0.63504  303  2.99292  32   3.2   100   3.2   0     0     982.1    NA       0.0000   9999     3710  0     0    
2019/03/04  07:00:03  BASE  0.43512  341  2.99292  32   3.3   100   3.3   0     0     982.1    NA       0.0000   9999     3770  0     0    
2019/03/04  07:01:02  BASE  0.588    43   2.66364  32   3.4   100   3.4   0     0     982.1    NA       0.0000   9999     3770  0     0    
2019/03/04  07:02:01  BASE  0.30576  83   2.0286   31   3.4   100   3.4   0     0     982.0    NA       0.0000   9999     3810  0     0    
2019/03/04  07:03:02  BASE  0        144  1.45236  56   3.4   100   3.4   0     0     982.0    NA       0.0000   9999     3740  0     0    
2019/03/04  07:04:02  BASE  0        202  1.45236  56   3.4   100   3.4   0     0     982.0    NA       0.0000   9999     3740  0     0    
2019/03/04  07:05:04  BASE  0.1176   284  1.45236  56   3.4   100   3.4   0     0     982.0    NA       0.0000   9999     3740  0     0    
2019/03/04  07:06:02  BASE  0.54096  349  1.45236  56   3.3   100   3.3   0     0     982.0    NA       0.0000   9999     3710  0     0    
2019/03/04  07:07:02  BASE  0.45276  354  1.45236  56   3.3   100   3.3   0     0     982.0    NA       0.0000   9999     3710  0     0    
2019/03/04  07:08:02  BASE  0.05292  355  1.45236  56   3.3   100   3.3   0     0     982.0    NA       0.0000   9999     3640  0     0    
2019/03/04  07:09:03  BASE  0.34104  18   1.45236  56   3.2   100   3.2   0     0     982.0    NA       0.0000   9999     3610  0     0    
2019/03/04  07:10:03  BASE  1.08192  44   1.69344  52   3.2   100   3.2   0     0     982.0    NA       0.0000   9999     3710  0     0    
2019/03/04  07:11:02  BASE  1.22304  63   1.69344  52   3.2   100   3.2   0     0     981.9    NA       0.0000   9999     3740  0     0    
2019/03/04  07:12:02  BASE  1.029    115  2.0874   189  3.2   100   3.2   0     0     981.8    NA       0.0000   9999     3710  0     0    
2019/03/04  07:13:03  BASE  1.48176  191  2.26968  230  3.2   100   3.2   0     0     981.7    NA       0.0000   9999     3670  0     0    
2019/03/04  07:14:02  BASE  1.8522   214  2.29908  216  3.2   100   3.2   0     0     981.6    NA       0.0000   UP       9999  3740  0    
2019/03/04  07:15:02  BASE  1.4406   213  2.29908  216  3.3   100   3.3   0     0     981.6    NA       0.0000   UP       9999  3640  0    
2019/03/04  07:16:02  BASE  0.92316  193  2.29908  216  3.3   100   3.3   0     0     981.7    NA       0.0000   UP       9999  3640  0    
2019/03/04  07:17:02  BASE  1.17012  138  2.29908  216  3.4   100   3.4   0     0     981.7    NA       0.0000   UP       9999  3740  0    
2019/03/04  07:18:03  BASE  1.12896  94   2.29908  216  3.4   100   3.4   0     0     981.6    NA       0.0000   UP       9999  3670  0    
2019/03/04  07:19:02  BASE  0.86436  59   2.29908  216  3.4   100   3.4   0     0     981.6    NA       0.0000   UP       9999  3710  0    
2019/03/04  07:20:02  BASE  1.34652  51   2.48136  62   3.4   100   3.4   0     0     981.7    NA       0.0000   UP       9999  3640  0    
2019/03/04  07:21:02  BASE  2.0286   60   2.48136  62   3.4   100   3.4   0     0     981.7    NA       0.0000   UP       9999  3640  0    
2019/03/04  07:22:02  BASE  1.911    79   2.48136  62   3.4   100   3.4   0     0     981.7    NA       0.0000   UP       9999  3640  0    
2019/03/04  07:23:02  BASE  1.27008  147  2.48136  62   3.4   100   3.4   0     0     981.6    NA       0.0000   UP       9999  3640  0    
2019/03/04  07:24:01  BASE  1.10544  204  2.48136  62   3.4   100   3.4   0     0     981.6    NA       0.0000   UP       9999  3610  0    
2019/03/04  07:25:02  BASE  0.588    242  2.48136  62   3.5   100   3.5   0     0     981.6    NA       0.0000   UP       9999  3610  0    
2019/03/04  07:26:01  BASE  0.34104  318  2.48136  62   3.6   100   3.6   0     0     981.6    NA       0.0000   UP       9999  3610  0    
2019/03/04  07:27:03  BASE  0.34104  316  2.48136  62   3.6   100   3.6   0     0     981.6    NA       0.0000   UP       9999  3810  0    
2019/03/04  07:28:02  BASE  0        143  2.48136  62   3.6   100   3.6   0     0     981.6    NA       0.0000   9999     3770  0     0    
2019/03/04  07:29:02  BASE  0.51744  96   2.48136  62   3.6   100   3.6   0     0     981.6    NA       0.0000   9999     3770  0     0    
2019/03/04  07:30:03  BASE  1.13484  68   2.42256  63   3.6   100   3.6   0     0     981.6    NA       0.0000   9999     3770  0     0    
2019/03/04  07:31:02  BASE  1.41708  59   2.24028  219  3.5   100   3.5   0     0     981.6    NA       0.0000   9999     3740  0     0    
2019/03/04  07:32:03  BASE  1.90512  64   2.38728  69   3.5   100   3.5   0     0     981.6    NA       0.0000   9999     3710  0     0    
2019/03/04  07:33:03  BASE  1.83456  67   2.38728  69   3.5   100   3.5   0     0     981.6    NA       0.0000   9999     3640  0     0    
2019/03/04  07:34:02  BASE  0.84672  58   2.38728  69   3.5   100   3.5   0     0     981.6    NA       0.0000   9999     3640  0     0    
2019/03/04  07:35:02  BASE  0.1176   56   2.38728  69   3.5   100   3.5   0     0     981.6    NA       0.0000   9999     3670  0     0    
2019/03/04  07:36:02  BASE  0.5586   83   2.38728  69   3.6   100   3.6   0     0     981.5    NA       0.0000   9999     3740  0     0    
2019/03/04  07:37:02  BASE  0.882    125  2.38728  69   3.7   100   3.7   0     0     981.6    NA       0.0000   9999     3670  0     0    
2019/03/04  07:38:03  BASE  0.48216  147  2.38728  69   3.7   100   3.7   0     0     981.6    NA       0.0000   9999     3640  0     0    
2019/03/04  07:39:02  BASE  0.48804  154  2.38728  69   3.8   100   3.8   0     0     981.5    NA       0.0000   9999     3710  0     0    
2019/03/04  07:40:02  BASE  1.22892  158  2.38728  69   3.8   100   3.8   0     0     981.5    NA       0.0000   9999     3670  0     0    
2019/03/04  07:41:02  BASE  2.0286   166  2.59896  181  3.8   100   3.8   0     0     981.4    NA       0.0000   9999     3740  0     0    
2019/03/04  07:42:02  BASE  2.5284   176  3.1458   178  3.7   100   3.7   0     0     981.4    NA       0.0000   9999     3770  0     0    
2019/03/04  07:43:02  BASE  2.6754   180  3.1458   178  3.6   100   3.6   0     0     981.4    NA       0.0000   -RA      9999  3740  0    
2019/03/04  07:44:02  BASE  2.57544  185  3.1458   178  3.5   100   3.5   0     0     981.4    NA       0.0000   -RA      9999  3740  0    
2019/03/04  07:45:02  BASE  2.646    194  3.1458   178  3.4   100   3.4   0     0     981.4    NA       0.0000   -RA      9999  3710  0    
2019/03/04  07:46:01  BASE  2.45196  190  3.1458   178  3.4   100   3.4   0     0     981.4    NA       0.0000   -RA      9999  3670  0    
2019/03/04  07:47:03  BASE  1.9992   179  3.1458   178  3.4   100   3.4   0     0     981.4    NA       0.0000   -RA      9999  3610  0    
2019/03/04  07:48:02  BASE  2.00508  185  3.1458   178  3.3   100   3.3   0     0     981.3    NA       0.0000   -RA      9999  3540  0    
2019/03/04  07:49:02  BASE  2.1462   186  3.1458   178  3.3   100   3.3   0     0     981.3    NA       0.0000   -RA      9999  3540  0    
2019/03/04  07:50:02  BASE  1.75224  175  3.1458   178  3.2   100   3.2   0     0     981.4    NA       0.0000   -RA      9999  3640  0    
2019/03/04  07:51:02  BASE  1.27008  163  3.1458   178  3.2   100   3.2   0     0     981.3    NA       0.0000   -RA      9999  3670  0    
2019/03/04  07:52:02  BASE  0.97608  154  2.96352  195  3.2   100   3.2   0     0     981.2    NA       0.0000   -RA      9999  3670  0    
2019/03/04  07:53:02  BASE  0.90552  143  2.96352  195  3.1   100   3.1   0     0     981.2    NA       0.0000   -RA      9999  3640  0    
2019/03/04  07:54:02  BASE  1.01724  128  2.87532  202  3.1   100   3.1   0     0     981.2    NA       0.0000   -RA      9999  3740  0    
2019/03/04  07:55:03  BASE  1.15836  118  2.63424  188  3.1   100   3.1   0     0     981.2    NA       0.0000   -RA      9999  3710  0    
2019/03/04  07:56:03  BASE  1.39356  116  2.35788  195  3.1   100   3.1   0     0     981.2    NA       0.0000   -RA      9999  3810  0    
2019/03/04  07:57:02  BASE  1.27008  110  2.35788  195  3.1   100   3.1   0     0     981.2    NA       0.0000   -RA      9999  3810  0    
2019/03/04  07:58:02  BASE  0.5586   86   2.1756   185  3.1   100   3.1   0     0     981.2    NA       0.0000   9999     3840  0     0    
2019/03/04  07:59:02  BASE  0.17052  47   1.90512  176  3.2   100   3.2   0     0     981.2    NA       0.0000   9999     3900  0     0    
2019/03/04  08:00:02  BASE  0.30576  21   1.60524  120  3.1   100   3.1   0     0     981.2    NA       0.0000   9999     3870  0     0    
2019/03/04  08:01:02  BASE  0.57624  35   1.60524  120  3.1   100   3.1   0     0     981.2    NA       0.0000   9999     3940  0     0    
2019/03/04  08:02:02  BASE  0.7938   64   1.60524  120  3.1   100   3.1   0     0     981.2    NA       0.0000   9999     3840  0     0    
2019/03/04  08:03:02  BASE  0.57624  67   1.60524  120  3.1   100   3.1   0     0     981.2    NA       0.0000   9999     3900  0     0    
2019/03/04  08:04:02  BASE  0.41748  30   1.60524  120  3.0   100   3.0   0     0     981.2    NA       0.0000   9999     3970  0     0    
2019/03/04  08:05:03  BASE  0.588    0    1.60524  120  3.0   100   3.0   0     0     981.2    NA       0.0000   9999     4130  0     0    
2019/03/04  08:06:02  BASE  0.35868  357  1.29948  113  3.0   100   3.0   0     0     981.2    NA       0.0000   9999     4100  0     0    
2019/03/04  08:07:02  BASE  0.02352  15   0.9996   78   3.1   100   3.1   0     0     981.2    NA       0.0000   9999     3970  0     0    
2019/03/04  08:08:03  BASE  0        38   0.9996   78   3.2   100   3.2   0     0     981.2    NA       0.0000   9999     4070  0     0    
2019/03/04  08:09:02  BASE  0        48   0.9996   78   3.3   100   3.3   0     0     981.2    NA       0.0000   9999     4130  0     0    
2019/03/04  08:10:03  BASE  0.1764   72   0.9996   78   3.5   100   3.5   0     0     981.2    NA       0.0000   9999     4000  0     0    
2019/03/04  08:11:03  BASE  0.7644   82   1.27008  71   3.7   100   3.7   0     0     981.2    NA       0.0000   9999     3180  0     0    
2019/03/04  08:12:03  BASE  1.29948  76   1.54056  70   3.9   100   3.9   0     0     981.2    NA       0.0000   9999     3840  0     0    
2019/03/04  08:13:02  BASE  1.41708  75   1.54056  74   3.9   100   3.9   0     0     981.2    NA       0.0000   9999     3810  0     0    
2019/03/04  08:14:02  BASE  1.15836  86   1.54056  74   3.8   100   3.8   0     0     981.1    NA       0.0000   9999     3580  0     0    
2019/03/04  08:15:03  BASE  0.45864  110  1.54056  74   3.8   100   3.8   0     0     981.0    NA       0.0000   9999     3480  0     0    
2019/03/04  08:16:03  BASE  0        114  1.54056  74   3.8   100   3.8   0     0     981.0    NA       0.0000   9999     3540  0     0    
2019/03/04  08:17:03  BASE  0.51156  94   1.54056  74   3.8   100   3.8   0     0     981.0    NA       0.0000   9999     3580  0     0    
2019/03/04  08:18:02  BASE  1.14072  92   1.54056  74   3.9   100   3.9   0     0     981.0    NA       0.0000   9999     3580  0     0    
2019/03/04  08:19:02  BASE  1.22304  98   1.54056  74   3.9   100   3.9   0     0     981.0    NA       0.0000   9999     3540  0     0    
2019/03/04  08:20:02  BASE  1.10544  80   1.54056  74   3.8   100   3.8   0     0     981.0    NA       0.0000   9999     3510  0     0    
2019/03/04  08:21:02  BASE  0.588    66   1.54056  74   3.6   100   3.6   0     0     980.9    NA       0.0000   9999     3670  0     0    
2019/03/04  08:22:02  BASE  0.40572  61   1.54056  74   3.5   100   3.5   0     0     980.9    NA       0.0000   9999     3670  0     0    
2019/03/04  08:23:02  BASE  1.07016  59   1.75224  64   3.4   100   3.4   0     0     980.9    NA       0.0000   -RA      9999  3540  0    
2019/03/04  08:24:02  BASE  1.63464  67   2.24028  81   3.3   100   3.3   0     0     980.9    NA       0.0000   -RA      9999  3610  0    
2019/03/04  08:25:02  BASE  1.40532  74   2.24028  81   3.3   100   3.3   0     0     980.8    NA       0.0000   -RA      9999  3810  0    
2019/03/04  08:26:02  BASE  0.92904  65   2.24028  81   3.4   100   3.4   0     0     980.8    NA       0.0000   -RA      9999  3810  0    
2019/03/04  08:27:02  BASE  0.97608  63   2.24028  81   3.5   100   3.5   0     0     980.8    NA       0.0000   -RA      9999  3810  0    
2019/03/04  08:28:02  BASE  0.72912  82   2.24028  81   3.6   100   3.6   0     0     980.8    NA       0.0000   -RA      9999  3770  0    
2019/03/04  08:29:02  BASE  0.18228  88   2.24028  81   3.8   100   3.8   0     0     980.7    NA       0.0000   -RA      9999  3810  0    
2019/03/04  08:30:02  BASE  0        86   2.24028  81   4.0   100   4.0   0     0     980.7    NA       0.0000   -RA      9999  3970  4560 
2019/03/04  08:31:02  BASE  0        122  2.24028  81   4.1   100   4.1   0     0     980.7    NA       0.0000   -RA      9999  4490  0    
2019/03/04  08:32:02  BASE  0.14112  165  2.24028  81   4.2   100   4.2   0     0     980.7    NA       0.0000   -RA      9999  4890  0    
2019/03/04  08:33:02  BASE  0.58212  157  2.24028  81   4.3   100   4.3   0     0     980.7    NA       0.0000   -RA      9999  4430  0    
2019/03/04  08:34:02  BASE  0.5586   162  1.45236  84   4.4   100   4.4   0     0     980.6    NA       0.0000   -RA      9999  5050  0    
2019/03/04  08:35:02  BASE  0.12348  151  1.21128  94   4.4   100   4.4   0     0     980.7    NA       0.0000   -RA      9999  5020  0    
2019/03/04  08:36:02  BASE  0.3528   85   1.21128  94   4.5   100   4.5   0     0     980.7    NA       0.0000   -RA      9999  3900  0    
2019/03/04  08:37:02  BASE  0.53508  75   1.029    74   4.5   100   4.5   0     0     980.7    NA       0.0000   -RA      9999  3940  0    
2019/03/04  08:38:02  BASE  0.2058   106  1.029    74   4.5   100   4.5   0     0     980.6    NA       0.0000   -RA      9999  4200  0    
2019/03/04  08:39:03  BASE  0.09996  142  1.029    74   4.5   100   4.5   0     0     980.6    NA       0.0000   -RA      9999  4820  0    
2019/03/04  08:40:02  BASE  0.2352   164  1.029    74   4.6   100   4.6   0     0     980.5    NA       0.0000   9999     4070  4820  0    
2019/03/04  08:41:02  BASE  0.55272  179  1.029    74   4.6   100   4.6   0     0     980.4    NA       0.0000   9999     3940  0     0    
2019/03/04  08:42:02  BASE  0.51156  174  1.029    74   4.6   100   4.6   0     0     980.5    NA       0.0000   9999     3900  0     0    
2019/03/04  08:43:02  BASE  0.57624  121  1.29948  77   4.6   100   4.6   0     0     980.6    NA       0.0000   9999     3900  0     0    
2019/03/04  08:44:02  BASE  1.07604  84   1.32888  77   4.5   100   4.5   0     0     980.6    NA       0.0000   9999     4040  0     0    
2019/03/04  08:45:03  BASE  0.82908  78   1.32888  77   4.5   100   4.5   0     0     980.5    NA       0.0000   9999     3970  0     0    
2019/03/04  08:46:02  BASE  0.22344  96   1.32888  77   4.4   100   4.4   0     0     980.4    NA       0.0000   9999     4000  0     0    
2019/03/04  08:47:03  BASE  0.37044  123  1.32888  77   4.4   100   4.4   0     0     980.5    NA       0.0000   9999     4000  0     0    
2019/03/04  08:48:02  BASE  0.57624  122  1.32888  77   4.4   100   4.4   0     0     980.6    NA       0.0000   9999     3970  0     0    
2019/03/04  08:49:02  BASE  0.19992  110  1.32888  77   4.3   100   4.3   0     0     980.5    NA       0.0000   9999     4000  0     0    
2019/03/04  08:50:02  BASE  0        115  1.32888  77   4.3   100   4.3   0     0     980.4    NA       0.0000   9999     4070  0     0    
2019/03/04  08:51:02  BASE  0.05292  137  1.32888  77   4.3   100   4.3   0     0     980.4    NA       0.0000   9999     4100  0     0    
2019/03/04  08:52:02  BASE  0.43512  149  1.32888  77   4.3   100   4.3   0     0     980.4    NA       0.0000   9999     4170  0     0    
2019/03/04  08:53:02  BASE  0.78792  142  1.32888  77   4.3   100   4.3   0     0     980.4    NA       0.0000   9999     4130  0     0    
2019/03/04  08:54:03  BASE  0.46452  135  1.0584   78   4.2   100   4.2   0     0     980.4    NA       0.0000   9999     4070  0     0    
2019/03/04  08:55:03  BASE  0.05292  130  0.90552  136  4.2   100   4.2   0     0     980.4    NA       0.0000   9999     4040  0     0    
2019/03/04  08:56:02  BASE  0        111  0.90552  136  4.2   100   4.2   0     0     980.4    NA       0.0000   9999     4070  0     0    
2019/03/04  08:57:02  BASE  0        92   0.90552  136  4.3   100   4.3   0     0     980.4    NA       0.0000   9999     4000  0     0    
2019/03/04  08:58:03  BASE  0.06468  83   0.90552  136  4.4   100   4.4   0     0     980.3    NA       0.0000   9999     3940  0     0    
2019/03/04  08:59:03  BASE  0.588    7    1.48176  336  4.3   100   4.3   0     0     980.3    NA       0.0000   9999     3940  0     0    
2019/03/04  09:00:03  BASE  1.18776  328  1.48176  320  4.1   100   4.1   0     0     980.3    NA       0.0000   9999     3870  0     0    
2019/03/04  09:01:03  BASE  1.01724  335  1.48176  320  3.9   100   3.8   0     0     980.3    NA       0.0000   9999     3940  0     0    
2019/03/04  09:02:03  BASE  0.87612  4    1.48176  320  3.5   100   3.5   0     0     980.4    NA       0.0000   9999     3900  0     0    
2019/03/04  09:03:02  BASE  1.24656  15   1.60524  7    3.2   100   3.2   0     0     980.3    NA       0.0000   9999     3900  0     0    
2019/03/04  09:04:02  BASE  1.29948  12   1.60524  7    3.1   100   3.1   0     0     980.3    NA       0.0000   9999     3870  4560  0    
2019/03/04  09:05:04  BASE  1.3818   25   1.87572  41   3.0   100   3.0   0     0     980.3    NA       0.0000   9999     3900  4660  0    
2019/03/04  09:06:02  BASE  1.68756  30   2.0286   32   3.0   100   3.0   0     0     980.2    NA       0.0000   9999     4100  0     0    
2019/03/04  09:07:02  BASE  1.6758   14   2.0286   32   3.0   100   3.0   0     0     980.2    NA       0.0000   9999     3970  0     0    
2019/03/04  09:08:02  BASE  1.62288  9    2.0286   32   3.1   100   3.1   0     0     980.2    NA       0.0000   9999     4000  0     0    
2019/03/04  09:09:02  BASE  1.45236  8    2.0286   32   3.1   100   3.1   0     0     980.2    NA       0.0000   9999     3940  4630  0    
2019/03/04  09:10:02  BASE  1.52292  333  2.0286   306  3.3   100   3.3   0     0     980.1    NA       0.0000   9999     4130  4920  0    
2019/03/04  09:11:02  BASE  1.5582   347  2.0286   306  3.5   100   3.5   0     0     980.2    NA       0.0000   9999     3970  0     0    
2019/03/04  09:12:02  BASE  1.25832  25   2.0286   306  3.6   100   3.6   0     0     980.2    NA       0.0000   9999     4040  0     0    
2019/03/04  09:13:02  BASE  0.98784  39   2.0286   306  3.7   100   3.7   0     0     980.2    NA       0.0000   9999     3970  4990  0    
2019/03/04  09:14:02  BASE  0.92904  57   2.0286   306  3.8   100   3.8   0     0     980.2    NA       0.0000   9999     4000  0     0    
2019/03/04  09:15:02  BASE  0.77028  60   2.0286   306  4.0   100   4.0   0     0     980.2    NA       0.0000   9999     4070  5450  0    
2019/03/04  09:16:02  BASE  0.6174   99   2.0286   306  4.1   100   4.1   0     0     980.1    NA       0.0000   9999     5480  0     0    
2019/03/04  09:17:02  BASE  2.05212  99   4.59816  85   4.2   100   4.2   0     0     980.1    NA       0.0000   9999     4790  5910  0    
2019/03/04  09:18:02  BASE  3.4986   91   4.59816  85   4.3   100   4.3   0     0     980.1    NA       0.0000   9999     3940  0     0    
2019/03/04  09:19:03  BASE  3.59856  100  4.59816  85   4.4   100   4.4   0     0     980.1    NA       0.0000   9999     3870  0     0    
2019/03/04  09:20:03  BASE  3.94548  102  4.96272  100  4.4   100   4.4   0     0     980.1    NA       0.0000   9999     3970  0     0    
2019/03/04  09:21:03  BASE  5.09796  96   6.53268  94   4.4   99    4.4   0     0     980.0    NA       0.0000   9999     4000  4660  0    
2019/03/04  09:22:02  BASE  4.65108  88   6.53268  94   4.4   99    4.3   0     0     979.9    NA       0.0000   9999     3940  4530  0    
2019/03/04  09:23:03  BASE  2.793    73   6.53268  94   4.4   99    4.3   0     0     979.9    NA       0.0000   9999     3970  0     0    
2019/03/04  09:24:03  BASE  1.71108  68   6.53268  94   4.4   99    4.2   0     0     979.9    NA       0.0000   9999     4000  0     0    
2019/03/04  09:25:03  BASE  1.1172   69   6.53268  94   4.4   99    4.2   0     0     979.9    NA       0.0000   9999     3900  0     0    
2019/03/04  09:26:03  BASE  1.176    90   6.53268  94   4.3   99    4.2   0     0     979.9    NA       0.0000   9999     4040  4560  0    
2019/03/04  09:27:03  BASE  1.27008  129  6.53268  94   4.2   99    4.1   0     0     979.8    NA       0.0000   9999     4490  0     0    
2019/03/04  09:28:03  BASE  1.02312  173  6.53268  94   4.1   99    4.0   0     0     979.8    NA       0.0000   9999     4070  0     0    
2019/03/04  09:29:02  BASE  0.78204  226  6.53268  94   4.0   100   3.9   0     0     979.8    NA       0.0000   9999     4820  0     0    
2019/03/04  09:30:02  BASE  0.37044  268  6.53268  94   3.9   100   3.9   0     0     979.9    NA       0.0000   9999     3940  5020  0    
2019/03/04  09:31:03  BASE  0.47628  302  4.59816  90   3.9   100   3.9   1     0     979.9    NA       0.0000   9999     3970  5150  0    
2019/03/04  09:32:03  BASE  0.95844  288  2.93412  126  4.0   100   4.0   1     0     979.8    NA       0.0000   9999     5150  0     0    
2019/03/04  09:33:03  BASE  1.37004  271  2.93412  126  4.1   100   4.1   1     0     979.8    NA       0.0000   9999     5250  0     0    
2019/03/04  09:34:03  BASE  1.19364  266  2.93412  126  4.3   100   4.3   1     0     979.8    NA       0.0000   9999     4000  5450  0    
2019/03/04  09:35:03  BASE  1.28184  281  2.93412  126  4.5   99    4.3   1     0     979.8    NA       0.0000   9999     4000  6270  0    
2019/03/04  09:36:03  BASE  1.94628  320  3.0576   337  4.4   98    4.1   1     0     979.8    NA       0.0000   9999     6140  0     0    
2019/03/04  09:37:03  BASE  1.99332  327  3.0576   337  4.2   98    3.9   1     0     979.8    NA       0.0000   9999     5910  6300  0    
2019/03/04  09:38:03  BASE  1.62288  330  3.0576   337  3.9   98    3.6   1     0     979.8    NA       0.0000   9999     5680  0     0    
2019/03/04  09:39:03  BASE  1.04076  342  3.0576   337  3.6   98    3.4   1     0     979.7    NA       0.0000   9999     5180  6170  0    
2019/03/04  09:40:03  BASE  0.80556  330  3.0576   337  3.3   99    3.2   1     0     979.7    NA       0.0000   9999     4330  0     0    
2019/03/04  09:41:04  BASE  1.25244  311  3.0576   337  3.2   100   3.2   1     0     979.7    NA       0.0000   9999     4430  0     0    
2019/03/04  09:42:02  BASE  1.5876   314  3.0576   337  3.1   100   3.1   1     0     979.8    NA       0.0000   9999     6100  0     0    
2019/03/04  09:43:03  BASE  0.82908  321  3.0576   337  2.9   100   2.9   1     0     979.8    NA       0.0000   9999     6300  0     0    
2019/03/04  09:44:02  BASE  0.29988  18   3.0576   337  2.8   100   2.8   2     0     979.7    NA       0.0000   9999     4130  0     0    
2019/03/04  09:45:02  BASE  0.2352   162  3.0576   337  2.7   100   2.7   2     0     979.7    NA       0.0000   9999     4460  0     0    
2019/03/04  09:46:02  BASE  0        172  2.35788  317  2.7   100   2.7   2     0     979.6    NA       0.0000   9999     6070  0     0    
2019/03/04  09:47:03  BASE  0.68796  27   1.90512  305  2.8   100   2.8   2     0     979.6    NA       0.0000   9999     4000  0     0    
2019/03/04  09:48:02  BASE  1.34064  351  1.90512  305  3.0   100   3.0   2     0     979.6    NA       0.0000   9999     3970  0     0    
2019/03/04  09:49:03  BASE  1.04076  338  1.90512  305  3.2   100   3.2   3     0     979.6    NA       0.0000   9999     3840  0     0    
2019/03/04  09:50:02  BASE  0.9702   322  1.90512  305  3.4   100   3.4   3     0     979.6    NA       0.0000   UP       9999  4130  0    
2019/03/04  09:51:02  BASE  1.56996  310  2.24028  298  3.5   100   3.5   3     0     979.6    NA       0.0000   UP       9999  4330  0    
2019/03/04  09:52:02  BASE  1.92276  309  2.24028  298  3.4   100   3.4   3     0     979.5    NA       0.0000   UP       9999  4490  0    
2019/03/04  09:53:03  BASE  1.72284  322  2.29908  322  3.2   100   3.2   3     0     979.6    NA       0.0000   UP       9999  4490  0    
2019/03/04  09:54:02  BASE  1.09368  341  2.29908  322  3.1   100   3.1   3     0     979.6    NA       0.0000   UP       9999  4460  0    
2019/03/04  09:55:02  BASE  0.6174   355  2.29908  322  2.9   100   2.9   4     0     979.5    NA       0.0000   9999     4490  0     0    
2019/03/04  09:56:02  BASE  0.3234   1    2.29908  322  3.0   100   3.0   4     0     979.5    NA       0.0000   9999     4530  6170  0    
2019/03/04  09:57:02  BASE  0.42336  60   2.29908  322  3.2   100   3.2   4     0     979.5    NA       0.0000   UP       9999  5150  0    
2019/03/04  09:58:03  BASE  0.78204  114  2.29908  322  3.4   100   3.4   4     0     979.4    NA       0.0000   UP       9999  6170  6730 
2019/03/04  09:59:02  BASE  0.36456  103  2.29908  322  3.7   100   3.7   4     0     979.4    NA       0.0000   UP       9999  6170  0    
2019/03/04  10:00:03  BASE  0        34   2.29908  322  3.8   100   3.8   5     0     979.5    NA       0.0000   9999     4920  6560  0    
2019/03/04  10:01:03  BASE  0.45276  27   2.29908  322  3.9   100   3.9   5     0     979.4    NA       0.0000   9999     4920  0     0    
2019/03/04  10:02:02  BASE  0.65268  1    2.29908  322  3.8   100   3.8   5     0     979.3    NA       0.0000   9999     4920  0     0    
2019/03/04  10:03:03  BASE  0.74088  337  1.54056  110  3.6   100   3.6   5     0     979.3    NA       0.0000   9999     4990  0     0    
2019/03/04  10:04:02  BASE  0.74088  13   1.54056  110  3.4   100   3.4   5     0     979.4    NA       0.0000   9999     5090  0     0    
2019/03/04  10:05:04  BASE  0.62916  65   1.57584  81   3.2   100   3.2   5     0     979.5    NA       0.0000   9999     5090  0     0    
2019/03/04  10:06:02  BASE  0.46452  71   1.57584  81   3.1   100   3.1   5     0     979.5    NA       0.0000   9999     5120  0     0    
2019/03/04  10:07:03  BASE  0.0294   48   1.57584  81   3.2   100   3.2   5     0     979.4    NA       0.0000   9999     4530  0     0    
2019/03/04  10:08:03  BASE  0        46   1.57584  81   3.4   100   3.4   6     0     979.3    NA       0.0000   9999     4530  5020  0    
2019/03/04  10:09:03  BASE  0        61   1.57584  81   3.6   100   3.6   6     0     979.4    NA       0.0000   9999     5180  0     0    
2019/03/04  10:10:02  BASE  0.05292  61   1.57584  81   3.6   100   3.6   6     0     979.3    NA       0.0000   9999     4630  0     0    
2019/03/04  10:11:03  BASE  0.27048  41   1.57584  81   3.5   100   3.5   6     0     979.3    NA       0.0000   9999     4660  0     0    
2019/03/04  10:12:03  BASE  0.58212  352  1.57584  81   3.3   100   3.3   6     0     979.3    NA       0.0000   9999     5050  0     0    
2019/03/04  10:13:03  BASE  0.99372  320  1.57584  81   3.1   100   3.1   6     0     979.5    NA       0.0000   9999     4990  0     0    
2019/03/04  10:14:02  BASE  1.4112   324  1.63464  331  2.8   100   2.8   7     0     979.5    NA       0.0000   9999     5050  0     0    
2019/03/04  10:15:03  BASE  0.89376  327  1.63464  331  2.5   100   2.5   7     0     979.5    NA       0.0000   9999     5640  0     0    
2019/03/04  10:16:02  BASE  0.11172  292  1.63464  331  2.4   100   2.4   7     0     979.4    NA       0.0000   9999     4920  0     0    
2019/03/04  10:17:02  BASE  0        248  1.63464  331  2.5   100   2.5   8     0     979.3    NA       0.0000   9999     5380  0     0    
2019/03/04  10:18:02  BASE  0        211  1.63464  331  2.7   100   2.7   8     0     979.4    NA       0.0000   9999     0     0     0    
2019/03/04  10:19:02  BASE  0        186  1.63464  331  3.0   100   3.0   8     0     979.4    NA       0.0000   9999     0     0     0    
2019/03/04  10:20:02  BASE  0.18228  211  1.63464  331  3.2   100   3.2   9     0     979.3    NA       0.0000   UP       9999  0     0    
2019/03/04  10:21:02  BASE  0.441    259  1.63464  331  3.5   100   3.5   9     0     979.4    NA       0.0000   UP       9999  0     0    
2019/03/04  10:22:02  BASE  0.55272  294  1.63464  331  3.5   100   3.5   9     0     979.5    NA       0.0000   UP       9999  0     0    
2019/03/04  10:23:02  BASE  0.68208  317  1.63464  331  3.4   100   3.4   9     0     979.5    NA       0.0000   UP       9999  0     0    
2019/03/04  10:24:02  BASE  0.3822   322  1.24068  347  3.3   100   3.3   9     0     979.5    NA       0.0000   UP       9000  0     0    
2019/03/04  10:25:03  BASE  0.7938   317  2.72244  308  3.1   100   3.1   9     0     979.6    NA       0.0000   UP       9000  0     0    
2019/03/04  10:26:02  BASE  2.48724  314  4.263    320  2.8   100   2.8   9     0     979.5    NA       0.0000   UP       9999  0     0    
2019/03/04  10:27:03  BASE  3.42804  317  4.263    320  2.7   100   2.7   9     0     979.5    NA       0.0000   UP       9999  0     0    
2019/03/04  10:28:03  BASE  3.63384  320  4.263    322  2.7   100   2.7   9     0     979.5    NA       0.0000   UP       9999  0     0    
2019/03/04  10:29:03  BASE  3.81612  319  4.263    322  2.6   100   2.6   10    0     979.5    NA       0.0000   UP       9999  0     0    
2019/03/04  10:30:03  BASE  3.42216  320  4.263    322  2.5   100   2.5   10    0     979.6    NA       0.0000   UP       9999  0     0    
2019/03/04  10:31:03  BASE  3.11052  326  4.263    322  2.5   100   2.5   10    0     979.6    NA       0.0000   UP       9999  0     0    
2019/03/04  10:32:02  BASE  3.11052  329  4.263    322  2.4   100   2.4   10    0     979.6    NA       0.0000   UP       9999  0     0    
2019/03/04  10:33:02  BASE  2.88708  335  4.263    322  2.3   100   2.3   11    0     979.6    NA       0.0000   UP       BR    9000  0    
2019/03/04  10:34:02  BASE  2.80476  338  4.263    322  2.3   100   2.3   11    0     979.5    NA       0.0000   UP       BR    9000  0    
2019/03/04  10:35:03  BASE  2.66952  335  4.263    322  2.2   100   2.2   12    0     979.5    NA       0.0000   UP       BR    9000  1180 
2019/03/04  10:36:03  BASE  2.39316  328  4.263    322  2.2   100   2.2   12    0     979.5    NA       0.0000   UP       BR    9000  0    
2019/03/04  10:37:03  BASE  2.4696   326  4.263    322  2.2   100   2.2   13    0     979.5    NA       0.0000   UP       BR    9999  460  
2019/03/04  10:38:03  BASE  2.53428  328  4.1454   318  2.2   100   2.2   13    0     979.5    NA       0.0000   UP       BR    9000  0    
2019/03/04  10:39:03  BASE  2.31672  328  3.35748  326  2.2   100   2.2   13    0     979.5    NA       0.0000   UP       BR    9000  390  
2019/03/04  10:40:02  BASE  2.02272  339  3.35748  326  2.2   100   2.2   12    0     979.3    NA       0.0000   UP       BR    8000  360  
2019/03/04  10:41:02  BASE  1.63464  346  3.26928  330  2.2   100   2.2   12    0     979.5    NA       0.0000   UP       BR    9000  360  
2019/03/04  10:42:03  BASE  1.28772  339  3.087    337  2.2   100   2.2   12    0     979.5    NA       0.0000   UP       BR    8000  360  
2019/03/04  10:43:03  BASE  1.1466   331  3.087    337  2.2   100   2.2   12    0     979.4    NA       0.0000   UP       BR    9000  360  
2019/03/04  10:44:03  BASE  0.94668  328  3.0576   332  2.1   100   2.1   12    0     979.3    NA       0.0000   UP       BR    8000  390  
2019/03/04  10:45:03  BASE  0.8526   331  3.0576   332  2.1   100   2.1   11    0     979.3    NA       0.0000   UP       BR    7000  390  
2019/03/04  10:46:03  BASE  1.17012  343  3.0576   332  2.1   100   2.1   11    0     979.3    NA       0.0000   UP       BR    8000  390  
2019/03/04  10:47:03  BASE  1.54056  0    2.59896  329  2.2   100   2.2   11    0     979.3    NA       0.0000   UP       BR    9000  390  
2019/03/04  10:48:03  BASE  1.77576  7    2.42256  325  2.2   100   2.2   12    0     979.3    NA       0.0000   UP       BR    9000  390  
2019/03/04  10:49:03  BASE  1.81692  8    2.1462   15   2.2   100   2.2   12    0     979.3    NA       0.0000   UP       BR    9999  390  
2019/03/04  10:50:02  BASE  1.59348  7    2.1462   15   2.2   100   2.2   12    0     979.3    NA       0.0000   UP       BR    9999  390  
2019/03/04  10:51:02  BASE  1.40532  3    2.1462   15   2.2   100   2.2   12    0     979.3    NA       0.0000   UP       BR    9999  0    
2019/03/04  10:52:03  BASE  1.56408  354  2.1462   15   2.2   100   2.2   12    0     979.3    NA       0.0000   UP       BR    9999  390  
2019/03/04  10:53:03  BASE  1.63464  355  2.1462   15   2.2   100   2.2   12    0     979.3    NA       0.0000   UP       BR    9999  390  
2019/03/04  10:54:02  BASE  1.48764  3    2.1462   15   2.2   100   2.2   13    0     979.3    NA       0.0000   UP       BR    9999  390  
2019/03/04  10:55:02  BASE  1.28184  8    2.1462   15   2.2   100   2.2   13    0     979.3    NA       0.0000   UP       BR    9000  0    
2019/03/04  10:56:03  BASE  1.02312  15   2.1462   15   2.2   100   2.2   13    0     979.3    NA       0.0000   UP       BR    9000  390  
2019/03/04  10:57:03  BASE  0.7938   20   2.1462   15   2.2   100   2.2   13    0     979.3    NA       0.0000   UP       BR    9000  390  
2019/03/04  10:58:03  BASE  0.55272  22   2.0874   13   2.2   100   2.2   13    0     979.3    NA       0.0000   UP       BR    9999  430  
2019/03/04  10:59:03  BASE  0.6174   18   1.9992   319  2.2   100   2.2   13    0     979.3    NA       0.0000   UP       BR    9000  430  
2019/03/04  11:00:03  BASE  0.9996   15   1.9992   319  2.3   100   2.3   13    0     979.3    NA       0.0000   UP       BR    8000  390  
2019/03/04  11:01:03  BASE  1.3818   16   1.9992   319  2.3   100   2.3   13    0     979.3    NA       0.0000   UP       BR    8000  390  
2019/03/04  11:02:03  BASE  1.5288   19   1.81692  6    2.4   100   2.4   13    0     979.3    NA       0.0000   UP       BR    8000  430  
2019/03/04  11:03:03  BASE  1.32888  13   1.81692  6    2.4   100   2.4   13    0     979.3    NA       0.0000   UP       BR    9000  2620 
2019/03/04  11:04:03  BASE  0.96432  2    1.81692  6    2.4   100   2.4   13    0     979.3    NA       0.2540   UP       BR    7000  430  
2019/03/04  11:05:04  BASE  0.75264  9    1.81692  6    2.4   100   2.4   13    0     979.3    NA       0.0000   UP       BR    7000  390  
2019/03/04  11:06:03  BASE  0.7644   22   1.81692  6    2.4   100   2.4   13    0     979.3    NA       0.0000   UP       BR    7000  2690 
2019/03/04  11:07:02  BASE  0.72912  30   1.81692  6    2.5   100   2.5   14    0     979.3    NA       0.0000   UP       BR    8000  430  
2019/03/04  11:08:03  BASE  0.72912  29   1.81692  6    2.5   100   2.5   14    0     979.3    NA       0.0000   UP       BR    8000  390  
2019/03/04  11:09:03  BASE  0.75264  21   1.81692  6    2.5   100   2.5   14    0     979.3    NA       0.0000   UP       BR    9000  390  
2019/03/04  11:10:03  BASE  0.72912  18   1.81692  6    2.5   100   2.5   15    0     979.3    NA       0.0000   UP       BR    8000  390  
2019/03/04  11:11:03  BASE  0.62916  8    1.78752  14   2.6   100   2.6   15    0     979.3    NA       0.0000   UP       BR    8000  360  
2019/03/04  11:12:03  BASE  0.61152  1    1.78752  14   2.6   100   2.6   16    0     979.3    NA       0.0000   UP       BR    7000  390  
2019/03/04  11:13:03  BASE  0.4704   359  1.0878   7    2.6   100   2.6   16    0     979.3    NA       0.0000   UP       BR    8000  390  
2019/03/04  11:14:02  BASE  0.12348  347  1.029    32   2.6   100   2.6   17    0     979.3    NA       0.0000   UP       BR    6000  390  
2019/03/04  11:15:03  BASE  0        337  1.029    32   2.6   100   2.6   17    0     979.3    NA       0.0000   UP       BR    5000  390  
2019/03/04  11:16:02  BASE  0        303  0.9702   35   2.6   100   2.6   18    0     979.3    NA       0.0000   UP       BR    6000  430  
2019/03/04  11:17:03  BASE  0        253  0.90552  360  2.7   100   2.7   18    0     979.3    NA       0.0000   UP       BR    7000  2460 
2019/03/04  11:18:02  BASE  0        236  0.90552  360  2.7   100   2.7   19    0     979.3    NA       0.0000   UP       BR    6000  2460 
2019/03/04  11:19:03  BASE  0        256  0.90552  360  2.7   100   2.7   19    0     979.3    NA       0.2540   UP       BR    5000  2560 
2019/03/04  11:20:03  BASE  0.31752  351  0.90552  360  2.7   100   2.7   19    0     979.3    NA       0.0000   UP       BR    4200  390  
2019/03/04  11:21:00  BASE  0.6468   6    0.90552  360  2.7   100   2.7   19    0     979.3    NA       0.0000   UP       BR    3600  390  
2019/03/04  11:22:02  BASE  0.84672  18   1.29948  25   2.7   100   2.7   19    0     979.3    NA       0.0000   UP       BR    3100  390  
2019/03/04  11:23:00  BASE  1.17012  22   1.45236  20   2.7   100   2.7   17    0     979.3    NA       0.0000   UP       BR    4500  390  
2019/03/04  11:24:03  BASE  1.2348   25   1.45236  20   2.7   100   2.7   17    0     979.3    NA       0.0000   UP       BR    6000  390  
2019/03/04  11:25:02  BASE  1.21716  36   1.45236  20   2.7   100   2.7   17    0     979.4    NA       0.0000   UP       BR    6000  430  
2019/03/04  11:26:03  BASE  1.29948  45   1.45236  20   2.7   100   2.7   17    0     979.5    NA       0.0000   UP       BR    6000  390  
2019/03/04  11:27:03  BASE  1.33476  46   1.45236  40   2.7   100   2.7   17    0     979.4    NA       0.0000   UP       BR    6000  390  
2019/03/04  11:28:03  BASE  1.31712  42   1.45236  40   2.7   100   2.7   17    0     979.3    NA       0.5080   UP       BR    6000  430  
2019/03/04  11:29:03  BASE  1.176    41   1.45236  40   2.7   100   2.7   18    0     979.3    NA       0.0000   UP       BR    6000  390  
2019/03/04  11:30:03  BASE  1.07604  45   1.45236  40   2.8   100   2.8   18    0     979.3    NA       0.0000   UP       BR    5000  360  
2019/03/04  11:31:03  BASE  1.176    51   1.45236  40   2.8   100   2.8   18    0     979.3    NA       0.0000   UP       BR    5000  360  
2019/03/04  11:32:03  BASE  1.21128  56   1.45236  40   2.8   100   2.8   19    0     979.3    NA       0.0000   UP       BR    6000  360  
2019/03/04  11:33:03  BASE  1.0878   59   1.45236  40   2.8   100   2.8   19    0     979.3    NA       0.0000   UP       BR    6000  390  
2019/03/04  11:34:03  BASE  1.01724  61   1.45236  40   2.8   100   2.8   19    0     979.3    NA       0.0000   UP       BR    6000  390  
2019/03/04  11:35:03  BASE  1.10544  63   1.45236  40   2.8   100   2.8   19    0     979.3    NA       0.5080   UP       BR    6000  2130 
2019/03/04  11:36:04  BASE  1.2054   68   1.45236  40   2.8   100   2.8   19    0     979.3    NA       0.0000   UP       BR    6000  430  
2019/03/04  11:37:02  BASE  1.29948  81   1.54056  93   2.8   100   2.8   19    0     979.3    NA       0.0000   UP       BR    7000  430  
2019/03/04  11:38:03  BASE  1.2642   93   1.54056  93   2.8   100   2.8   19    0     979.2    NA       0.0000   UP       BR    7000  390  
2019/03/04  11:39:02  BASE  1.08192  95   1.54056  93   2.8   100   2.8   20    0     979.2    NA       0.0000   UP       BR    7000  0    
2019/03/04  11:40:02  BASE  0.9702   85   1.54056  93   2.8   100   2.8   20    0     979.2    NA       0.0000   UP       BR    6000  0    
2019/03/04  11:41:02  BASE  0.92904  76   1.54056  93   2.9   100   2.9   20    0     979.2    NA       0.0000   UP       BR    6000  430  
2019/03/04  11:42:02  BASE  0.9702   65   1.54056  93   3.0   100   3.0   20    0     979.2    NA       0.0000   UP       BR    6000  430  
2019/03/04  11:43:03  BASE  0.91728  57   1.54056  93   3.1   100   3.1   20    0     979.2    NA       0.5080   UP       BR    7000  430  
2019/03/04  11:44:02  BASE  0.77028  57   1.54056  93   3.2   100   3.2   21    0     979.2    NA       0.0000   UP       BR    7000  2070 
2019/03/04  11:45:03  BASE  0.6762   56   1.54056  93   3.2   100   3.2   22    0     979.2    NA       0.0000   UP       BR    7000  0    
2019/03/04  11:46:02  BASE  0.74088  53   1.54056  93   3.3   100   3.3   22    0     979.2    NA       0.0000   UP       BR    7000  0    
2019/03/04  11:47:03  BASE  0.81144  52   1.42296  93   3.3   100   3.3   23    0     979.2    NA       0.0000   UP       BR    6000  0    
2019/03/04  11:48:03  BASE  0.79968  59   1.24068  85   3.3   100   3.3   25    0     979.2    NA       0.0000   UP       BR    6000  390  
2019/03/04  11:49:03  BASE  0.79968  60   1.18188  76   3.3   100   3.3   26    0     979.2    NA       0.0000   UP       BR    6000  430  
2019/03/04  11:50:02  BASE  0.78792  52   1.1466   49   3.3   100   3.3   28    0     979.2    NA       0.0000   UP       BR    6000  2200 
2019/03/04  11:51:03  BASE  0.83496  46   1.1466   49   3.3   100   3.3   30    0     979.2    NA       0.0000   UP       BR    6000  0    
2019/03/04  11:52:03  BASE  0.96432  41   1.42296  32   3.3   100   3.3   31    0     979.1    NA       0.0000   UP       BR    6000  0    
2019/03/04  11:53:03  BASE  0.99372  40   1.42296  32   3.3   100   3.3   32    0     979.1    NA       0.0000   UP       BR    6000  0    
2019/03/04  11:54:03  BASE  1.0878   40   1.42296  32   3.4   100   3.4   32    0     979.1    NA       0.0000   UP       BR    6000  0    
2019/03/04  11:55:03  BASE  1.31124  41   1.48176  44   3.3   100   3.3   34    0     979.2    NA       0.0000   UP       BR    6000  0    
2019/03/04  11:56:03  BASE  1.59936  41   1.96392  44   3.2   100   3.2   35    0     979.1    NA       0.2540   UP       BR    6000  0    
2019/03/04  11:57:03  BASE  1.62288  45   1.96392  44   3.2   100   3.2   35    0     979.1    NA       0.0000   BR       6000  0     0    
2019/03/04  11:58:03  BASE  1.3524   51   1.96392  44   3.1   100   3.1   35    0     979.1    NA       0.0000   BR       6000  0     0    
2019/03/04  11:59:03  BASE  1.14072  50   1.96392  44   3.1   100   3.1   34    0     979.1    NA       0.0000   BR       6000  0     0    
2019/03/04  12:00:03  BASE  0.77028  49   1.96392  44   3.2   100   3.2   32    0     979.1    NA       0.0000   BR       6000  0     0    
2019/03/04  12:01:03  BASE  0.27048  52   1.96392  44   3.2   100   3.2   31    0     979.1    NA       0.0000   BR       6000  0     0    
2019/03/04  12:02:03  BASE  0        28   1.96392  44   3.2   100   3.2   31    0     979.0    NA       0.0000   BR       6000  0     0    
2019/03/04  12:03:03  BASE  0.0294   2    1.96392  44   3.1   100   3.1   31    0     979.0    NA       0.0000   BR       6000  0     0    
2019/03/04  12:04:02  BASE  0.2058   353  1.96392  44   3.0   100   3.0   31    0     979.0    NA       0.0000   BR       6000  0     0    
2019/03/04  12:05:04  BASE  0.1764   351  1.96392  44   3.0   100   3.0   31    0     979.0    NA       0.0000   BR       6000  390   0    
2019/03/04  12:06:02  BASE  0        7    1.75224  50   2.9   100   2.9   31    0     979.0    NA       0.0000   BR       6000  2620  0    
2019/03/04  12:07:02  BASE  0        45   1.35828  51   2.9   100   2.9   32    0     979.0    NA       0.0000   BR       6000  2660  0    
2019/03/04  12:08:02  BASE  0        100  1.21128  48   2.9   100   2.9   33    0     979.0    NA       0.0000   UP       BR    6000  430  
2019/03/04  12:09:03  BASE  0        136  0.90552  333  2.9   100   2.9   35    0     978.9    NA       0.0000   UP       BR    6000  430  
2019/03/04  12:10:03  BASE  0        170  0.90552  333  2.9   100   2.9   37    0     978.9    NA       0.0000   UP       BR    5000  0    
2019/03/04  12:11:03  BASE  0        186  0.90552  333  2.8   100   2.8   40    0     978.9    NA       0.0000   UP       BR    6000  0    
2019/03/04  12:12:02  BASE  0        215  0.90552  333  2.8   100   2.8   42    0     978.9    NA       0.0000   UP       BR    6000  0    
2019/03/04  12:13:02  BASE  0        252  0.90552  333  2.7   100   2.7   44    0     978.9    NA       0.2540   UP       BR    6000  0    
2019/03/04  12:14:02  BASE  0        280  0        M    2.7   100   2.7   45    0     978.9    NA       0.0000   UP       BR    6000  0    
2019/03/04  12:15:03  BASE  0        314  0        M    2.6   100   2.6   46    0     978.9    NA       0.0000   UP       BR    6000  2590 
2019/03/04  12:16:02  BASE  0        336  0        M    2.6   100   2.6   46    0     978.9    NA       0.0000   UP       BR    6000  0    
2019/03/04  12:17:02  BASE  0        354  0        M    2.6   100   2.6   45    0     978.9    NA       0.0000   UP       BR    6000  0    
2019/03/04  12:18:02  BASE  0        10   0        M    2.6   100   2.6   44    0     978.9    NA       0.0000   UP       BR    6000  0    
2019/03/04  12:19:03  BASE  0        18   0        M    2.6   100   2.6   43    0     978.9    NA       0.0000   UP       BR    6000  0    
2019/03/04  12:20:03  BASE  0        17   0        M    2.6   100   2.6   42    0     978.9    NA       0.0000   BR       6000  0     0    
2019/03/04  12:21:03  BASE  0.02352  16   0.60564  24   2.6   100   2.6   41    0     978.9    NA       0.0000   BR       6000  0     0    
2019/03/04  12:22:03  BASE  0.15876  26   0.66444  32   2.6   100   2.6   40    0     978.9    NA       0.0000   BR       6000  0     0    
2019/03/04  12:23:03  BASE  0.2352   35   0.66444  32   2.6   100   2.6   38    0     979.0    NA       0.0000   BR       6000  0     0    
2019/03/04  12:24:03  BASE  0.09996  40   0.66444  32   2.6   100   2.6   36    0     979.0    NA       0.0000   BR       6000  2430  0    
2019/03/04  12:25:03  BASE  0        47   0.66444  32   2.6   100   2.6   35    0     979.0    NA       0.0000   BR       6000  2400  0    
2019/03/04  12:26:02  BASE  0        63   0.66444  32   2.6   100   2.6   34    0     978.9    NA       0.0000   BR       6000  2360  0    
2019/03/04  12:27:03  BASE  0        93   0.66444  32   2.6   100   2.6   34    0     978.9    NA       0.0000   BR       6000  1940  0    
2019/03/04  12:28:02  BASE  0        108  0.66444  32   2.6   100   2.6   33    0     978.9    NA       0.0000   BR       6000  1840  0    
2019/03/04  12:29:02  BASE  0        106  0.66444  32   2.6   100   2.6   34    0     978.9    NA       0.0000   UP       BR    8000  1740 
2019/03/04  12:30:02  BASE  0        97   0.66444  32   2.6   100   2.6   34    0     978.9    NA       0.0000   UP       BR    8000  1670 
2019/03/04  12:31:03  BASE  0        86   0.66444  32   2.7   100   2.7   34    0     978.9    NA       0.0000   UP       BR    8000  0    
2019/03/04  12:32:02  BASE  0        74   0.63504  37   2.7   100   2.7   35    0     978.9    NA       0.0000   UP       BR    8000  0    
2019/03/04  12:33:03  BASE  0        48   0        M    2.7   100   2.7   36    0     978.8    NA       0.5080   UP       BR    6000  1770 
2019/03/04  12:34:03  BASE  0        25   0        M    2.7   100   2.7   37    0     978.7    NA       0.0000   UP       BR    5000  1670 
2019/03/04  12:35:02  BASE  0        8    0        M    2.7   100   2.7   38    0     978.7    NA       0.0000   UP       BR    5000  1710 
2019/03/04  12:36:02  BASE  0        339  0        M    2.6   100   2.6   39    0     978.7    NA       0.0000   UP       BR    5000  2330 
2019/03/04  12:37:02  BASE  0        298  0        M    2.7   100   2.7   41    0     978.7    NA       0.0000   UP       BR    5000  390  
2019/03/04  12:38:03  BASE  0        248  0        M    2.7   100   2.7   42    0     978.7    NA       0.0000   UP       BR    5000  330  
2019/03/04  12:39:03  BASE  0.42336  211  1.0878   203  2.6   100   2.6   42    0     978.7    NA       0.0000   UP       BR    5000  360  
2019/03/04  12:40:03  BASE  1.01724  199  1.39356  192  2.5   100   2.5   43    0     978.7    NA       0.0000   UP       BR    6000  390  
2019/03/04  12:41:03  BASE  1.37592  197  1.69344  203  2.4   100   2.4   44    0     978.7    NA       0.0000   UP       BR    6000  1770 
2019/03/04  12:42:03  BASE  1.59348  202  1.69344  208  2.4   100   2.4   46    0     978.6    NA       0.0000   UP       BR    6000  1670 
2019/03/04  12:43:03  BASE  1.48176  203  1.69344  208  2.3   100   2.3   47    0     978.6    NA       0.0000   UP       BR    6000  1800 
2019/03/04  12:44:02  BASE  1.45824  196  1.87572  199  2.3   100   2.3   49    0     978.6    NA       0.0000   UP       BR    6000  1740 
2019/03/04  12:45:03  BASE  1.74048  195  2.0286   196  2.2   100   2.2   50    0     978.6    NA       0.0000   UP       BR    6000  1740 
2019/03/04  12:46:02  BASE  1.86984  196  2.1168   195  2.2   100   2.2   51    0     978.6    NA       0.0000   UP       BR    6000  1350 
2019/03/04  12:47:03  BASE  1.75812  193  2.1168   195  2.2   100   2.2   52    0     978.6    NA       0.0000   UP       BR    6000  1710 
2019/03/04  12:48:03  BASE  1.47     189  2.1168   195  2.2   100   2.2   53    0     978.6    NA       0.0000   BR       6000  390   0    
2019/03/04  12:49:02  BASE  1.33476  190  2.1168   195  2.2   100   2.2   54    0     978.6    NA       0.0000   BR       6000  390   1840 
2019/03/04  12:50:03  BASE  1.3818   184  2.1168   195  2.2   100   2.2   55    0     978.6    NA       0.0000   UP       BR    3900  360  
2019/03/04  12:51:03  BASE  1.60524  173  2.21088  166  2.2   100   2.2   55    0     978.7    NA       0.0000   UP       BR    3000  390  
2019/03/04  12:52:03  BASE  1.90512  174  2.32848  188  2.2   100   2.2   53    0     978.7    NA       0.0000   UP       BR    2400  360  
2019/03/04  12:53:03  BASE  1.83456  175  2.32848  188  2.2   100   2.2   52    0     978.7    NA       0.0000   UP       BR    2000  330  
2019/03/04  12:54:02  BASE  1.74636  178  2.32848  188  2.2   100   2.2   53    0     978.7    NA       0.0000   UP       BR    1900  330  
2019/03/04  12:55:03  BASE  1.7052   187  2.32848  188  2.2   100   2.2   56    0     978.7    NA       0.0000   UP       BR    1900  360  
2019/03/04  12:56:02  BASE  1.49352  189  2.32848  188  2.2   100   2.2   56    0     978.7    NA       0.5080   UP       BR    2000  330  
2019/03/04  12:57:03  BASE  1.18188  172  2.32848  188  2.2   100   2.2   55    0     978.7    NA       0.0000   UP       BR    2000  330  
2019/03/04  12:58:03  BASE  0.87024  161  2.32848  188  2.2   100   2.2   54    0     978.7    NA       0.0000   UP       BR    2100  330  
2019/03/04  12:59:02  BASE  1.1172   152  2.32848  188  2.3   100   2.3   50    0     978.7    NA       0.0000   UP       BR    2300  330  
2019/03/04  13:00:03  BASE  1.60524  143  2.32848  188  2.3   100   2.3   46    0     978.7    NA       0.0000   UP       BR    2100  260  
2019/03/04  13:01:02  BASE  1.7934   147  2.32848  188  2.3   100   2.3   42    0     978.7    NA       0.0000   UP       BR    1700  330  
2019/03/04  13:02:03  BASE  1.617    154  2.24028  149  2.3   100   2.3   42    0     978.7    NA       0.0000   UP       BR    1400  330  
2019/03/04  13:03:03  BASE  1.32888  155  2.24028  149  2.4   100   2.4   44    0     978.7    NA       0.0000   UP       BR    1200  330  
2019/03/04  13:04:02  BASE  1.21716  155  2.24028  149  2.4   100   2.4   45    0     978.7    NA       0.0000   UP       BR    1100  330  
2019/03/04  13:05:04  BASE  1.24068  153  2.24028  149  2.4   100   2.4   46    0     978.7    NA       0.0000   UP       BR    1100  360  
2019/03/04  13:06:03  BASE  1.25244  146  2.24028  149  2.4   100   2.4   47    0     978.7    NA       0.0000   UP       BR    1100  360  
2019/03/04  13:07:03  BASE  1.30536  146  2.24028  149  2.4   100   2.4   48    0     978.7    NA       0.0000   UP       BR    1100  360  
2019/03/04  13:08:02  BASE  1.35828  149  2.24028  149  2.4   100   2.4   49    0     978.7    NA       0.0000   UP       BR    1300  360  
2019/03/04  13:09:02  BASE  1.28184  148  2.24028  149  2.4   100   2.4   49    0     978.7    NA       0.0000   UP       BR    1400  360  
2019/03/04  13:10:03  BASE  1.17012  151  2.24028  149  2.4   100   2.4   49    0     978.7    NA       0.0000   UP       BR    1400  390  
2019/03/04  13:11:03  BASE  0.89376  153  1.75224  157  2.4   100   2.4   48    0     978.7    NA       0.0000   UP       BR    1400  360  
2019/03/04  13:12:03  BASE  0.74088  149  1.75224  157  2.4   100   2.4   48    0     978.7    NA       0.0000   UP       BR    1400  360  
2019/03/04  13:13:03  BASE  0.55272  150  1.75224  157  2.4   100   2.4   47    0     978.7    NA       0.0000   UP       BR    1800  360  
2019/03/04  13:14:03  BASE  0.45276  145  1.75224  157  2.4   100   2.4   47    0     978.7    NA       0.2540   UP       BR    2300  390  
2019/03/04  13:15:02  BASE  0.81732  135  1.75224  157  2.4   100   2.4   44    0     978.7    NA       0.0000   UP       BR    2600  360  
2019/03/04  13:16:03  BASE  0.94668  135  1.75224  157  2.5   100   2.5   44    0     978.7    NA       0.0000   UP       BR    2800  360  
2019/03/04  13:17:03  BASE  0.58212  134  1.69344  166  2.5   100   2.5   46    0     978.7    NA       0.0000   UP       BR    3000  360  
2019/03/04  13:18:03  BASE  0.1764   145  1.35828  169  2.5   100   2.5   49    0     978.7    NA       0.0000   UP       BR    3200  360  
2019/03/04  13:19:02  BASE  0.22344  150  1.35828  169  2.5   100   2.5   51    0     978.7    NA       0.0000   UP       BR    3300  390  
2019/03/04  13:20:02  BASE  0.65856  138  1.21128  134  2.6   100   2.6   49    0     978.7    NA       0.0000   UP       BR    3500  360  
2019/03/04  13:21:03  BASE  1.0584   138  1.39356  148  2.6   100   2.6   47    0     978.6    NA       0.0000   UP       BR    3500  360  
2019/03/04  13:22:02  BASE  1.33476  142  1.81692  151  2.6   100   2.6   48    0     978.6    NA       0.0000   UP       BR    3600  330  
2019/03/04  13:23:02  BASE  1.6758   149  2.26968  150  2.5   100   2.5   50    0     978.6    NA       0.0000   UP       BR    3200  360  
2019/03/04  13:24:02  BASE  1.92276  157  2.26968  150  2.5   100   2.5   52    0     978.6    NA       0.0000   UP       BR    2500  360  
2019/03/04  13:25:03  BASE  1.8816   158  2.26968  150  2.5   100   2.5   54    0     978.6    NA       0.0000   UP       BR    2200  360  
2019/03/04  13:26:03  BASE  2.04624  155  2.81064  151  2.5   100   2.5   53    0     978.6    NA       0.0000   UP       BR    2200  360  
2019/03/04  13:27:02  BASE  2.51664  157  3.234    155  2.5   100   2.5   51    0     978.6    NA       0.0000   UP       BR    1900  330  
2019/03/04  13:28:03  BASE  2.47548  160  3.234    155  2.5   100   2.5   49    0     978.6    NA       0.0000   UP       BR    1400  360  
2019/03/04  13:29:02  BASE  2.24616  160  3.234    155  2.5   100   2.5   50    0     978.6    NA       0.2540   UP       BR    1100  260  
2019/03/04  13:30:03  BASE  1.90512  161  3.234    155  2.4   100   2.4   51    0     978.6    NA       0.0000   UP       BR    1000  300  
2019/03/04  13:31:03  BASE  1.47     167  3.234    155  2.4   100   2.4   52    0     978.6    NA       0.0000   UP       BR    1000  300  
2019/03/04  13:32:02  BASE  1.58172  177  3.234    155  2.4   100   2.4   53    0     978.6    NA       0.0000   UP       BR    1100  330  
2019/03/04  13:33:03  BASE  1.94628  184  3.234    155  2.4   100   2.4   53    0     978.5    NA       0.0000   UP       BR    1100  300  
2019/03/04  13:34:02  BASE  2.04036  198  3.234    155  2.3   100   2.3   54    0     978.5    NA       0.0000   UP       BR    1200  330  
2019/03/04  13:35:03  BASE  2.32848  207  3.35748  203  2.3   100   2.3   55    0     978.6    NA       0.0000   UP       BR    1300  360  
2019/03/04  13:36:03  BASE  2.9106   200  3.59856  191  2.3   100   2.3   58    0     978.6    NA       0.0000   UP       BR    1500  300  
2019/03/04  13:37:03  BASE  3.07524  195  3.59856  191  2.2   100   2.2   61    0     978.6    NA       0.0000   UP       BR    1600  360  
2019/03/04  13:38:03  BASE  2.95176  197  3.59856  191  2.2   100   2.2   65    0     978.6    NA       0.0000   UP       BR    1600  360  
2019/03/04  13:39:02  BASE  3.07524  192  4.2042   192  2.2   100   2.2   68    0     978.6    NA       0.0000   UP       BR    1500  390  
2019/03/04  13:40:02  BASE  3.32808  194  4.2042   192  2.2   100   2.2   71    0     978.6    NA       0.0000   UP       BR    1300  360  
2019/03/04  13:41:03  BASE  2.96352  208  4.2042   192  2.2   100   2.2   72    0     978.5    NA       0.0000   UP       BR    1200  390  
2019/03/04  13:42:03  BASE  2.7342   206  4.2042   192  2.2   100   2.2   72    0     978.5    NA       0.5080   UP       BR    1300  360  
2019/03/04  13:43:02  BASE  2.74596  207  4.2042   192  2.2   100   2.2   73    0     978.5    NA       0.0000   UP       BR    1300  330  
2019/03/04  13:44:02  BASE  2.21088  223  4.2042   192  2.2   100   2.2   72    0     978.5    NA       0.0000   UP       BR    1300  430  
2019/03/04  13:45:03  BASE  1.59936  232  4.2042   192  2.2   100   2.2   70    0     978.5    NA       0.0000   UP       BR    1300  430  
2019/03/04  13:46:02  BASE  0.99372  218  4.2042   192  2.2   100   2.2   67    0     978.5    NA       0.0000   UP       BR    1300  460  
2019/03/04  13:47:02  BASE  0.65856  203  4.2042   192  2.1   100   2.1   63    0     978.5    NA       0.0000   UP       BR    1300  300  
2019/03/04  13:48:02  BASE  0.77616  209  4.2042   192  2.1   100   2.1   60    0     978.5    NA       0.0000   UP       BR    1300  360  
2019/03/04  13:49:02  BASE  0.68208  212  3.75144  217  2.1   100   2.1   57    0     978.5    NA       0.0000   UP       BR    1300  490  
2019/03/04  13:50:03  BASE  0.64092  214  3.41628  215  2.1   100   2.1   56    0     978.5    NA       0.0000   UP       BR    1300  520  
2019/03/04  13:51:03  BASE  0.98784  222  3.41628  215  2.1   100   2.1   55    0     978.5    NA       0.0000   UP       BR    1300  520  
2019/03/04  13:52:02  BASE  1.38768  230  3.087    200  2.1   100   2.1   55    0     978.5    NA       0.0000   BR       1300  520   1510 
2019/03/04  13:53:03  BASE  1.62876  237  2.48136  227  2.1   100   2.1   55    0     978.5    NA       0.0000   BR       1300  520   1480 
2019/03/04  13:54:02  BASE  1.56408  234  2.48136  227  2.0   100   2.0   56    0     978.5    NA       0.0000   BR       1300  520   1150 
2019/03/04  13:55:03  BASE  1.44648  234  2.48136  227  2.0   100   2.0   55    0     978.5    NA       0.0000   BR       1300  490   1440 
2019/03/04  13:56:02  BASE  1.9992   238  2.99292  240  2.0   100   2.0   54    0     978.5    NA       0.0000   BR       1300  490   1180 
2019/03/04  13:57:03  BASE  2.205    240  2.99292  240  2.1   100   2.1   56    0     978.5    NA       0.0000   BR       1300  460   1210 
2019/03/04  13:58:03  BASE  2.06388  239  2.99292  240  2.1   100   2.1   59    0     978.5    NA       0.0000   BR       1300  460   1380 
2019/03/04  13:59:03  BASE  1.99332  238  2.99292  238  2.1   100   2.1   59    0     978.5    NA       0.0000   BR       1300  460   1440 
2019/03/04  14:00:03  BASE  1.96392  243  3.087    248  2.1   100   2.1   58    0     978.5    NA       0.0000   BR       1300  460   0    
2019/03/04  14:01:02  BASE  1.68168  249  3.087    248  2.2   100   2.2   58    0     978.5    NA       0.0000   BR       1300  460   1250 
2019/03/04  14:02:02  BASE  1.28772  252  3.087    248  2.2   100   2.2   58    0     978.5    NA       0.0000   BR       1300  520   1840 
2019/03/04  14:03:03  BASE  1.2642   258  3.087    248  2.2   100   2.2   59    0     978.5    NA       0.0000   BR       1300  430   0    
2019/03/04  14:04:02  BASE  0.6762   272  3.087    248  2.2   100   2.2   59    0     978.5    NA       0.0000   BR       1300  460   0    
2019/03/04  14:05:04  BASE  0.1176   265  3.087    248  2.2   100   2.2   59    0     978.5    NA       0.2540   BR       1300  590   2430 
2019/03/04  14:06:03  BASE  0.14112  74   3.087    248  2.2   100   2.2   59    0     978.5    NA       0.0000   BR       1300  590   2330 
2019/03/04  14:07:02  BASE  0.3234   34   3.087    248  2.2   100   2.2   60    0     978.5    NA       0.0000   BR       1300  560   0    
2019/03/04  14:08:03  BASE  0.2058   29   3.087    248  2.1   100   2.1   60    0     978.5    NA       0.0000   BR       1300  620   0    
2019/03/04  14:09:03  BASE  0.25284  51   3.087    248  2.1   100   2.1   61    0     978.5    NA       0.0000   BR       1300  660   0    
2019/03/04  14:10:02  BASE  0.294    74   2.1462   239  2.1   100   2.1   62    0     978.5    NA       0.0000   BR       1300  620   0    
2019/03/04  14:11:03  BASE  0.294    76   2.1462   239  2.1   100   2.1   63    0     978.5    NA       0.0000   BR       1300  660   0    
2019/03/04  14:12:02  BASE  0.68208  46   1.90512  258  2.1   100   2.1   64    0     978.4    NA       0.0000   BR       1300  660   0    
2019/03/04  14:13:03  BASE  0.88788  36   1.21128  32   2.2   100   2.2   64    0     978.4    NA       0.0000   BR       1300  720   0    
2019/03/04  14:14:02  BASE  0.77028  49   1.21128  32   2.2   100   2.2   64    0     978.4    NA       0.0000   BR       1300  390   0    
2019/03/04  14:15:02  BASE  0.68208  77   1.32888  115  2.3   100   2.3   64    0     978.4    NA       0.0000   UP       BR    3100  750  
2019/03/04  14:16:02  BASE  0.66444  80   1.32888  115  2.3   100   2.3   64    0     978.4    NA       0.0000   UP       BR    7000  390  
2019/03/04  14:17:03  BASE  0.59976  43   1.32888  115  2.3   100   2.3   65    0     978.4    NA       0.0000   UP       BR    8000  360  
2019/03/04  14:18:03  BASE  0.66444  31   1.32888  115  2.4   100   2.4   66    0     978.4    NA       0.0000   UP       BR    8000  360  
2019/03/04  14:19:03  BASE  0.4116   51   1.32888  115  2.4   100   2.4   67    0     978.4    NA       0.0000   UP       BR    8000  390  
2019/03/04  14:20:03  BASE  0.17052  51   1.32888  115  2.4   100   2.4   68    0     978.4    NA       0.0000   UP       BR    8000  390  
2019/03/04  14:21:03  BASE  0.36456  51   1.48176  21   2.5   100   2.5   70    0     978.4    NA       0.0000   UP       BR    8000  430  
2019/03/04  14:22:02  BASE  0.9996   48   1.75224  58   2.5   100   2.5   71    0     978.4    NA       0.0000   UP       BR    8000  390  
2019/03/04  14:23:03  BASE  1.32888  35   1.75224  58   2.5   100   2.5   71    0     978.4    NA       0.0000   UP       BR    9000  390  
2019/03/04  14:24:03  BASE  1.44648  31   2.45196  17   2.5   100   2.5   71    0     978.4    NA       0.0000   UP       BR    9999  390  
2019/03/04  14:25:03  BASE  1.36416  40   2.45196  17   2.5   100   2.5   71    0     978.4    NA       0.5080   UP       BR    9999  430  
2019/03/04  14:26:02  BASE  1.38768  43   2.45196  17   2.5   100   2.5   72    0     978.4    NA       0.0000   UP       BR    9999  460  
2019/03/04  14:27:02  BASE  1.68168  39   2.45196  17   2.5   100   2.5   72    0     978.4    NA       0.0000   UP       BR    9999  430  
2019/03/04  14:28:03  BASE  1.62288  42   2.45196  17   2.5   100   2.5   71    0     978.4    NA       0.0000   UP       BR    9999  460  
2019/03/04  14:29:02  BASE  1.4994   30   2.45196  17   2.5   100   2.5   69    0     978.4    NA       0.0000   UP       BR    9999  430  
2019/03/04  14:30:02  BASE  0.72324  12   2.45196  17   2.4   100   2.4   69    0     978.4    NA       0.0000   UP       BR    9999  430  
2019/03/04  14:31:02  BASE  0.50568  357  2.45196  17   2.5   100   2.5   71    0     978.4    NA       0.0000   UP       BR    9999  460  
2019/03/04  14:32:03  BASE  0.96432  348  2.45196  17   2.4   100   2.4   72    0     978.4    NA       0.0000   UP       BR    9999  430  
2019/03/04  14:33:03  BASE  0.51156  22   2.45196  17   2.4   100   2.4   71    0     978.4    NA       0.0000   UP       BR    9999  950  
2019/03/04  14:34:02  BASE  0.05292  64   2.24028  18   2.4   100   2.4   70    0     978.4    NA       0.0000   UP       BR    9999  360  
2019/03/04  14:35:03  BASE  0.05292  23   2.24028  18   2.3   100   2.3   70    0     978.4    NA       0.0000   UP       9999  460   0    
2019/03/04  14:36:02  BASE  0        332  2.0286   337  2.3   100   2.3   71    0     978.4    NA       0.0000   UP       9999  980   0    
2019/03/04  14:37:03  BASE  0.18228  25   2.0286   337  2.3   100   2.3   72    0     978.4    NA       0.0000   UP       9999  920   0    
2019/03/04  14:38:02  BASE  0.18228  23   2.0286   337  2.3   100   2.3   71    0     978.4    NA       0.0000   UP       9999  390   920  
2019/03/04  14:39:02  BASE  0.294    17   2.0286   337  2.4   100   2.4   70    0     978.4    NA       0.0000   UP       9999  390   890  
2019/03/04  14:40:03  BASE  0.62328  349  2.0286   337  2.4   100   2.4   71    0     978.4    NA       0.0000   UP       9999  390   950  
2019/03/04  14:41:02  BASE  0.3528   311  2.0286   337  2.4   100   2.4   72    0     978.4    NA       0.0000   UP       9999  430   1020 
2019/03/04  14:42:03  BASE  0.42924  304  1.57584  306  2.4   100   2.4   74    0     978.3    NA       0.0000   UP       9999  460   1020 
2019/03/04  14:43:02  BASE  1.19364  321  1.84632  330  2.4   100   2.4   75    0     978.3    NA       0.0000   UP       9999  850   0    
2019/03/04  14:44:02  BASE  1.2936   338  1.84632  330  2.4   100   2.4   74    0     978.3    NA       0.0000   UP       9999  950   0    
2019/03/04  14:45:02  BASE  0.4998   289  1.84632  330  2.3   100   2.3   73    0     978.4    NA       0.0000   UP       9999  920   0    
2019/03/04  14:46:02  BASE  0.441    285  1.84632  330  2.3   100   2.3   71    0     978.4    NA       0.0000   UP       9999  920   0    
2019/03/04  14:47:02  BASE  1.25832  333  2.0874   321  2.3   100   2.3   70    0     978.4    NA       0.5080   UP       9999  890   0    
2019/03/04  14:48:02  BASE  1.08192  304  2.0874   321  2.3   100   2.3   69    0     978.4    NA       0.0000   UP       9999  980   0    
2019/03/04  14:49:02  BASE  0.2646   297  2.0874   321  2.2   100   2.2   67    0     978.4    NA       0.0000   UP       9999  950   0    
2019/03/04  14:50:03  BASE  0        296  2.0874   321  2.2   100   2.2   66    0     978.4    NA       0.0000   UP       9999  920   0    
2019/03/04  14:51:03  BASE  0.22932  279  2.0874   321  2.2   100   2.2   66    0     978.4    NA       0.0000   UP       9999  920   0    
2019/03/04  14:52:03  BASE  0.53508  280  2.0874   321  2.3   100   2.3   69    0     978.4    NA       0.0000   UP       9999  850   0    
2019/03/04  14:53:03  BASE  0.588    289  2.0874   321  2.3   100   2.3   71    0     978.4    NA       0.0000   UP       9999  820   0    
2019/03/04  14:54:02  BASE  0.42924  309  2.0874   321  2.3   100   2.3   72    0     978.4    NA       0.0000   UP       9999  820   0    
2019/03/04  14:55:03  BASE  0.59388  329  2.0874   321  2.3   100   2.3   72    0     978.4    NA       0.0000   UP       9999  820   0    
2019/03/04  14:56:03  BASE  1.09368  305  2.0874   321  2.2   100   2.2   73    0     978.4    NA       0.0000   UP       9999  750   0    
2019/03/04  14:57:02  BASE  1.02312  283  1.63464  278  2.2   100   2.2   75    0     978.4    NA       0.0000   UP       9999  790   0    
2019/03/04  14:58:03  BASE  0.7938   278  1.63464  271  2.2   100   2.2   77    0     978.4    NA       0.0000   UP       9999  820   0    
2019/03/04  14:59:03  BASE  0.74676  275  1.63464  271  2.2   100   2.2   77    0     978.4    NA       0.0000   UP       9999  790   0    
2019/03/04  15:00:04  BASE  0.56448  291  1.63464  271  2.2   100   2.2   77    0     978.4    NA       0.0000   UP       9999  750   0    
2019/03/04  15:01:03  BASE  0.5292   308  1.63464  271  2.1   100   2.1   79    0     978.4    NA       0.0000   UP       9999  720   0    
2019/03/04  15:02:03  BASE  0.62328  299  1.63464  271  2.1   100   2.1   83    0     978.4    NA       0.0000   UP       9999  720   0    
2019/03/04  15:03:03  BASE  0.62328  286  1.63464  271  2.1   100   2.1   86    0     978.4    NA       0.0000   UP       9999  690   0    
2019/03/04  15:04:03  BASE  0.71736  281  1.63464  271  2.1   100   2.1   88    0     978.4    NA       0.0000   UP       9999  690   0    
2019/03/04  15:05:03  BASE  0.64092  293  1.63464  271  2.1   100   2.1   89    0     978.4    NA       0.0000   UP       9999  660   0    
2019/03/04  15:06:03  BASE  0.77028  295  1.90512  281  2.1   100   2.1   90    0     978.4    NA       0.0000   9999     660   0     0    
2019/03/04  15:07:03  BASE  1.14072  283  1.90512  281  2.1   100   2.1   90    0     978.4    NA       0.0000   UP       9999  660   0    
2019/03/04  15:08:03  BASE  1.4112   277  2.1462   276  2.1   100   2.1   91    0     978.4    NA       0.5080   UP       9999  620   0    
2019/03/04  15:09:03  BASE  1.30536  284  2.1462   276  2.1   100   2.1   91    0     978.5    NA       0.0000   UP       9999  620   0    
2019/03/04  15:10:03  BASE  1.18188  293  2.1462   276  2.0   100   2.0   91    0     978.5    NA       0.0000   UP       9999  590   0    
2019/03/04  15:11:03  BASE  1.44648  299  2.32848  311  2.0   100   2.0   89    0     978.5    NA       0.0000   UP       9999  490   0    
2019/03/04  15:12:02  BASE  1.93452  310  2.63424  315  2.0   100   2.0   89    0     978.5    NA       0.0000   UP       9999  430   0    
2019/03/04  15:13:03  BASE  1.92276  305  2.63424  315  2.0   100   2.0   92    0     978.5    NA       0.0000   UP       9999  360   0    
2019/03/04  15:14:02  BASE  1.323    292  2.63424  315  1.9   100   1.9   94    0     978.5    NA       0.0000   UP       9999  390   0    
2019/03/04  15:15:03  BASE  1.27596  291  2.63424  315  1.9   100   1.9   92    0     978.5    NA       0.0000   UP       9999  460   0    
2019/03/04  15:16:03  BASE  1.40532  294  2.63424  315  1.8   100   1.8   91    0     978.5    NA       0.0000   UP       9999  460   0    
2019/03/04  15:17:03  BASE  1.41708  298  2.63424  315  1.8   100   1.8   88    0     978.5    NA       0.0000   UP       9999  430   0    
2019/03/04  15:18:03  BASE  1.53468  305  2.63424  315  1.8   100   1.8   86    0     978.5    NA       0.0000   -RA      9999  430   0    
2019/03/04  15:19:03  BASE  1.764    313  2.63424  315  1.8   100   1.8   86    0     978.5    NA       0.0000   -RA      9999  390   0    
2019/03/04  15:20:02  BASE  1.88748  319  2.63424  315  1.8   100   1.8   88    0     978.5    NA       0.0000   -RA      9999  390   0    
2019/03/04  15:21:03  BASE  1.68756  321  2.63424  315  1.8   100   1.8   89    0     978.5    NA       0.0000   -RA      9999  390   0    
2019/03/04  15:22:02  BASE  1.62876  321  2.35788  312  1.8   100   1.8   89    0     978.5    NA       0.2540   -RA      9999  390   0    
2019/03/04  15:23:03  BASE  1.71108  320  2.0874   318  1.8   100   1.8   87    0     978.5    NA       0.0000   -RA      9999  390   0    
2019/03/04  15:24:02  BASE  1.64052  321  2.0874   318  1.8   100   1.8   86    0     978.5    NA       0.0000   -RA      9999  390   0    
2019/03/04  15:25:03  BASE  1.71696  318  2.0874   318  1.8   100   1.8   88    0     978.5    NA       0.0000   -RA      9999  390   0    
2019/03/04  15:26:02  BASE  1.764    314  2.0874   318  1.8   100   1.8   90    0     978.5    NA       0.0000   -RA      9999  360   0    
2019/03/04  15:27:02  BASE  1.84632  314  2.0874   318  1.7   100   1.7   91    0     978.5    NA       0.0000   -RA      9999  390   0    
2019/03/04  15:28:03  BASE  1.83456  316  2.0874   318  1.7   100   1.7   91    0     978.5    NA       0.0000   -RA      9999  390   0    
2019/03/04  15:29:02  BASE  1.8228   322  2.0874   325  1.7   100   1.7   89    0     978.5    NA       0.0000   -RA      9999  390   0    
2019/03/04  15:30:03  BASE  1.98744  326  2.21088  325  1.7   100   1.7   87    0     978.5    NA       0.0000   -RA      9999  390   0    
2019/03/04  15:31:02  BASE  2.1168   325  2.29908  321  1.6   100   1.6   86    0     978.5    NA       0.0000   -RA      9999  390   0    
2019/03/04  15:32:03  BASE  2.1756   323  2.29908  321  1.6   100   1.6   83    0     978.5    NA       0.0000   -RA      9999  390   0    
2019/03/04  15:33:03  BASE  2.205    323  2.42256  321  1.6   100   1.6   80    0     978.5    NA       0.0000   -RA      9999  360   0    
2019/03/04  15:34:03  BASE  2.10504  326  2.42256  321  1.6   100   1.6   77    0     978.5    NA       0.0000   -RA      9999  360   0    
2019/03/04  15:35:03  BASE  2.04036  326  2.42256  321  1.6   100   1.6   76    0     978.5    NA       0.0000   -RA      9999  360   0    
2019/03/04  15:36:03  BASE  1.89336  323  2.42256  321  1.6   100   1.6   75    0     978.5    NA       0.0000   -RA      9999  360   0    
2019/03/04  15:37:03  BASE  1.66992  325  2.42256  321  1.6   100   1.6   74    0     978.5    NA       0.2540   -RA      9999  330   0    
2019/03/04  15:38:03  BASE  1.55232  322  2.42256  321  1.6   100   1.6   73    0     978.5    NA       0.0000   -RA      9999  300   0    
2019/03/04  15:39:03  BASE  1.42884  320  2.42256  321  1.6   100   1.6   72    0     978.5    NA       0.0000   -RA      9999  330   0    
2019/03/04  15:40:03  BASE  1.54056  320  2.42256  321  1.5   100   1.5   72    0     978.5    NA       0.0000   -RA      9999  330   0    
2019/03/04  15:41:02  BASE  1.5582   318  2.42256  321  1.4   100   1.4   72    0     978.5    NA       0.0000   -RA      9999  360   0    
2019/03/04  15:42:02  BASE  1.36416  319  2.42256  321  1.4   100   1.4   72    0     978.5    NA       0.0000   -RA      9999  330   0    
2019/03/04  15:43:02  BASE  1.39944  321  2.26968  323  1.3   100   1.3   72    0     978.5    NA       0.0000   -RA      6000  330   0    
2019/03/04  15:44:03  BASE  1.48176  322  2.26968  323  1.3   100   1.3   71    0     978.5    NA       0.0000   -SN      BR    4200  300  
2019/03/04  15:45:03  BASE  1.2936   326  2.0286   321  1.3   100   1.3   71    0     978.5    NA       0.0000   -SN      BR    2300  330  
2019/03/04  15:46:03  BASE  1.176    328  1.78752  329  1.3   100   1.3   70    0     978.5    NA       0.0000   -SN      BR    3500  330  
2019/03/04  15:47:03  BASE  1.0584   326  1.75224  316  1.4   100   1.4   68    0     978.5    NA       0.0000   -SN      BR    5000  330  
2019/03/04  15:48:03  BASE  0.8232   322  1.75224  316  1.4   100   1.4   68    0     978.5    NA       0.0000   -SN      BR    6000  300  
2019/03/04  15:49:02  BASE  0.588    316  1.75224  316  1.4   100   1.4   70    0     978.5    NA       0.0000   -SN      BR    4100  300  
2019/03/04  15:50:02  BASE  0.21168  313  1.75224  316  1.4   100   1.4   73    0     978.5    NA       0.0000   -SN      BR    3800  330  
2019/03/04  15:51:03  BASE  0        308  1.75224  316  1.3   100   1.3   76    0     978.5    NA       0.0000   -SN      BR    4600  330  
2019/03/04  15:52:03  BASE  0.05292  300  1.75224  316  1.3   100   1.3   79    0     978.5    NA       0.0000   -SN      BR    6000  360  
2019/03/04  15:53:02  BASE  0.05292  302  1.63464  318  1.3   100   1.3   80    0     978.5    NA       0.5080   -SN      BR    9999  360  
2019/03/04  15:54:02  BASE  0        316  1.54056  321  1.3   100   1.3   81    0     978.5    NA       0.0000   -SN      BR    9999  360  
2019/03/04  15:55:02  BASE  0.18228  326  1.42296  331  1.3   100   1.3   82    0     978.5    NA       0.0000   -SN      BR    9999  330  
2019/03/04  15:56:02  BASE  0.54684  334  1.029    323  1.3   100   1.3   82    0     978.5    NA       0.0000   -SN      BR    8000  330  
2019/03/04  15:57:03  BASE  0.47628  334  0.81732  336  1.3   100   1.3   84    0     978.5    NA       0.0000   -SN      BR    4500  300  
2019/03/04  15:58:03  BASE  0.11172  315  0.81732  336  1.3   100   1.3   85    0     978.5    NA       0.0000   -SN      BR    6000  300  
2019/03/04  15:59:02  BASE  0        291  0.81732  336  1.3   100   1.3   87    0     978.5    NA       0.0000   -SN      BR    4000  330  
2019/03/04  16:00:03  BASE  0        275  0.81732  336  1.3   100   1.3   89    0     978.5    NA       0.0000   -SN      BR    6000  360  
2019/03/04  16:01:03  BASE  0        269  0.81732  336  1.2   100   1.2   88    0     978.5    NA       0.0000   -SN      BR    9999  0    
2019/03/04  16:02:02  BASE  0        270  0.81732  336  1.2   100   1.2   84    0     978.5    NA       0.0000   -SN      BR    9999  390  
2019/03/04  16:03:02  BASE  0        273  0.81732  336  1.2   100   1.2   80    0     978.5    NA       0.0000   -SN      BR    9999  330  
2019/03/04  16:04:03  BASE  0        274  0.81732  336  1.2   100   1.2   77    0     978.5    NA       0.0000   -SN      BR    9999  330  
2019/03/04  16:05:03  BASE  0        315  0.81732  336  1.1   100   1.1   72    0     978.6    NA       0.2540   -SN      BR    9999  330  
2019/03/04  16:06:03  BASE  0        4    0.69384  335  1.2   100   1.2   69    0     978.6    NA       0.0000   -SN      BR    9999  360  
2019/03/04  16:07:03  BASE  0        7    0        M    1.2   100   1.2   67    0     978.6    NA       0.0000   -SN      BR    9999  360  
2019/03/04  16:08:02  BASE  0        353  0        M    1.2   100   1.2   66    0     978.6    NA       0.0000   -SN      9999  360   1210 
2019/03/04  16:09:03  BASE  0.05292  340  0.63504  350  1.2   100   1.2   66    0     978.6    NA       0.0000   -SN      9999  360   0    
2019/03/04  16:10:03  BASE  0.27048  349  0.72324  353  1.2   100   1.2   66    0     978.6    NA       0.0000   -SN      9999  330   0    
2019/03/04  16:11:03  BASE  0.22344  358  0.72324  353  1.2   100   1.2   68    0     978.6    NA       0.0000   -SN      9999  260   0    
2019/03/04  16:12:03  BASE  0        0    0.72324  353  1.2   100   1.2   71    0     978.6    NA       0.0000   -SN      9000  260   0    
2019/03/04  16:13:03  BASE  0        351  0.72324  353  1.2   100   1.2   74    0     978.6    NA       0.0000   -SN      8000  260   0    
2019/03/04  16:14:03  BASE  0        319  0.72324  353  1.2   100   1.2   75    0     978.6    NA       0.0000   -SN      9000  260   0    
2019/03/04  16:15:03  BASE  0        320  0.72324  353  1.2   100   1.2   72    0     978.6    NA       0.0000   -SN      9999  300   0    
2019/03/04  16:16:03  BASE  0        351  0.72324  353  1.2   100   1.2   68    0     978.7    NA       0.0000   -SN      9999  300   0    
2019/03/04  16:17:02  BASE  0.09996  7    0.72324  353  1.3   100   1.3   67    0     978.7    NA       0.0000   -SN      9999  300   0    
2019/03/04  16:18:03  BASE  0.09996  8    0.72324  353  1.3   100   1.3   70    0     978.7    NA       0.0000   -SN      9999  260   0    
2019/03/04  16:19:03  BASE  0        10   0.72324  353  1.3   100   1.3   73    0     978.7    NA       0.0000   -SN      9999  230   0    
2019/03/04  16:20:03  BASE  0.27636  25   0.69384  33   1.2   100   1.2   75    0     978.7    NA       0.0000   -SN      9999  230   0    
2019/03/04  16:21:03  BASE  0.59388  35   0.90552  32   1.2   100   1.2   80    0     978.7    NA       0.0000   -SN      9999  230   0    
2019/03/04  16:22:02  BASE  0.31752  34   0.90552  32   1.2   100   1.2   89    0     978.7    NA       0.0000   -SN      9999  200   0    
2019/03/04  16:23:03  BASE  0        31   0.90552  32   1.1   100   1.1   93    0     978.6    NA       0.0000   -SN      9999  200   0    
2019/03/04  16:24:03  BASE  0        39   0.90552  32   1.1   100   1.1   92    0     978.6    NA       0.0000   -SN      9999  230   0    
2019/03/04  16:25:02  BASE  0        126  0.90552  32   1.2   100   1.2   87    0     978.7    NA       0.0000   -SN      9999  230   0    
2019/03/04  16:26:03  BASE  0        168  0.90552  32   1.2   100   1.2   84    0     978.7    NA       0.0000   -SN      9999  230   0    
2019/03/04  16:27:03  BASE  0        168  0.90552  32   1.3   100   1.3   82    0     978.7    NA       0.0000   -SN      9999  230   0    
2019/03/04  16:28:03  BASE  0        159  0.90552  32   1.3   100   1.3   83    0     978.7    NA       0.0000   -SN      9999  230   0    
2019/03/04  16:29:02  BASE  0        67   0.90552  32   1.4   100   1.4   87    0     978.7    NA       0.0000   -SN      9999  230   0    
2019/03/04  16:30:03  BASE  0        126  0.90552  32   1.4   100   1.4   92    0     978.7    NA       0.0000   -SN      9999  230   0    
2019/03/04  16:31:03  BASE  0        148  0        M    1.4   100   1.4   96    0     978.7    NA       0.0000   -SN      9999  230   0    
2019/03/04  16:32:02  BASE  0.02352  177  0.60564  193  1.4   100   1.4   100   0     978.7    NA       0.0000   -SN      9999  260   0    
2019/03/04  16:33:03  BASE  0.47628  199  1.51116  208  1.3   100   1.3   102   0     978.7    NA       0.0000   -SN      9999  260   0    
2019/03/04  16:34:03  BASE  1.12896  207  1.51116  208  1.2   100   1.2   102   0     978.7    NA       0.0000   -SN      9999  260   0    
2019/03/04  16:35:03  BASE  1.19952  204  1.51116  208  1.2   100   1.2   102   0     978.7    NA       0.0000   -SN      9999  260   0    
2019/03/04  16:36:03  BASE  0.91728  206  1.51116  208  1.2   100   1.2   104   0     978.7    NA       0.0000   -SN      9999  230   0    
2019/03/04  16:37:03  BASE  0.79968  213  1.51116  208  1.1   100   1.1   106   0     978.7    NA       0.0000   -SN      9999  230   0    
2019/03/04  16:38:03  BASE  0.43512  220  1.51116  208  1.1   100   1.1   105   0     978.7    NA       0.0000   -SN      9999  260   0    
2019/03/04  16:39:02  BASE  0.0294   225  1.51116  208  1.0   100   1.0   104   0     978.7    NA       0.0000   -SN      9999  260   22540
2019/03/04  16:40:02  BASE  0        234  1.51116  208  1.0   100   1.0   105   0     978.7    NA       0.0000   -SN      9999  230   0    
2019/03/04  16:41:02  BASE  0.39396  233  1.51116  208  1.0   100   1.0   108   0     978.7    NA       0.0000   -SN      9999  200   0    
2019/03/04  16:42:02  BASE  1.11132  219  1.69344  212  1.0   100   1.0   109   0     978.6    NA       0.0000   -SN      9999  200   0    
2019/03/04  16:43:03  BASE  1.40532  205  1.69344  212  1.0   100   1.0   105   0     978.6    NA       0.0000   -SN      7000  230   0    
2019/03/04  16:44:02  BASE  1.06428  183  1.69344  212  1.0   100   1.0   90    0     978.7    NA       0.0000   -SN      9999  230   1640 
2019/03/04  16:45:03  BASE  1.03488  152  2.0874   123  1.1   100   1.1   74    0     978.8    NA       0.0000   -SN      9999  230   0    
2019/03/04  16:46:02  BASE  1.98156  130  2.93412  128  1.1   100   1.1   71    0     978.8    NA       0.0000   -SN      9999  230   0    
2019/03/04  16:47:03  BASE  2.66952  125  3.02232  132  1.2   100   1.2   79    0     978.8    NA       0.0000   -SN      9999  200   0    
2019/03/04  16:48:03  BASE  2.62836  130  3.02232  132  1.2   100   1.2   86    0     978.8    NA       0.0000   -SN      5000  200   0    
2019/03/04  16:49:03  BASE  2.31672  141  3.02232  132  1.3   100   1.3   98    0     978.8    NA       0.0000   -SN      BR    2900  230  
2019/03/04  16:50:02  BASE  2.05212  151  3.02232  132  1.2   100   1.2   108   0     978.7    NA       0.2540   -SN      BR    2200  230  
2019/03/04  16:51:02  BASE  1.88748  157  3.02232  132  1.2   100   1.2   109   0     978.8    NA       0.0000   -SN      BR    2100  230  
2019/03/04  16:52:02  BASE  1.911    152  3.02232  132  1.2   100   1.2   136   0     978.9    NA       0.0000   -SN      BR    2500  260  
2019/03/04  16:53:03  BASE  2.24028  147  3.02232  132  1.2   100   1.2   135   0     978.9    NA       0.0000   -SN      BR    3200  230  
2019/03/04  16:54:03  BASE  2.48136  158  3.02232  132  1.2   100   1.2   136   0     978.9    NA       0.0000   -SN      BR    4200  230  
2019/03/04  16:55:03  BASE  2.49312  166  3.02232  160  1.2   100   1.2   135   0     978.9    NA       0.0000   -SN      BR    7000  300  
2019/03/04  16:56:03  BASE  2.66952  165  3.1458   165  1.3   100   1.3   131   0     978.9    NA       0.0000   -SN      BR    6000  300  
2019/03/04  16:57:03  BASE  2.9988   169  3.234    171  1.3   100   1.3   126   0     978.9    NA       0.0000   -SN      BR    3800  330  
2019/03/04  16:58:03  BASE  3.02232  169  3.234    171  1.3   100   1.3   126   0     978.9    NA       0.0000   -SN      BR    3900  260  
2019/03/04  16:59:02  BASE  2.92236  168  3.38688  170  1.3   100   1.3   130   0     978.9    NA       0.0000   -SN      BR    3900  260  
2019/03/04  17:00:03  BASE  2.95764  165  3.38688  170  1.2   100   1.2   128   0     978.9    NA       0.0000   -SN      BR    3600  360  
2019/03/04  17:01:02  BASE  3.04584  163  3.38688  170  1.2   100   1.2   123   0     978.9    NA       0.0000   -SN      BR    2800  260  
2019/03/04  17:02:02  BASE  2.793    159  3.38688  170  1.2   100   1.2   121   0     978.9    NA       0.0000   -SN      BR    2300  230  
2019/03/04  17:03:03  BASE  2.5578   151  3.38688  170  1.2   100   1.2   121   0     978.9    NA       0.0000   -SN      BR    2700  200  
2019/03/04  17:04:03  BASE  2.68128  152  3.38688  170  1.2   100   1.2   117   0     978.9    NA       0.0000   -SN      BR    2700  200  
2019/03/04  17:05:04  BASE  2.54604  148  3.38688  170  1.2   100   1.2   110   0     979.0    NA       0.0000   -SN      BR    2100  200  
2019/03/04  17:06:02  BASE  2.54016  134  3.38688  170  1.1   100   1.1   103   0     979.0    NA       0.0000   -SN      BR    2700  160  
2019/03/04  17:07:03  BASE  2.68128  123  3.38688  170  1.1   100   1.1   100   0     979.0    NA       0.0000   -SN      BR    1800  200  
2019/03/04  17:08:03  BASE  2.45196  117  3.38688  170  1.1   100   1.1   103   0     979.0    NA       0.0000   -SN      BR    2500  200  
2019/03/04  17:09:03  BASE  2.63424  114  3.32808  155  1.1   100   1.1   105   0     979.0    NA       0.0000   -SN      BR    2800  200  
2019/03/04  17:10:03  BASE  2.78712  115  3.32808  155  1.1   100   1.1   106   0     979.0    NA       0.0000   -SN      BR    2200  200  
2019/03/04  17:11:02  BASE  2.7636   121  3.234    109  1.0   100   1.0   106   0     979.0    NA       0.0000   -SN      BR    2500  200  
2019/03/04  17:12:02  BASE  3.00468  126  3.51036  127  1.0   100   1.0   102   0     979.0    NA       0.0000   -SN      BR    3000  200  
2019/03/04  17:13:03  BASE  3.10464  129  3.51036  127  1.0   100   1.0   98    0     979.0    NA       0.0000   -SN      BR    2800  160  
2019/03/04  17:14:02  BASE  2.98704  126  3.51036  127  1.0   100   1.0   94    0     979.0    NA       0.0000   -SN      BR    3400  200  
2019/03/04  17:15:03  BASE  2.71068  121  3.51036  127  0.9   100   0.9   88    0     979.1    NA       0.0000   -SN      BR    3300  200  
2019/03/04  17:16:02  BASE  2.35788  119  3.51036  127  0.9   100   0.9   83    0     979.1    NA       0.0000   -SN      BR    3600  200  
2019/03/04  17:17:03  BASE  2.09328  116  3.51036  127  0.9   100   0.9   79    0     979.1    NA       0.0000   -SN      BR    6000  200  
2019/03/04  17:18:03  BASE  1.84632  111  3.51036  127  0.9   100   0.9   73    0     979.1    NA       0.0000   -SN      BR    4200  200  
2019/03/04  17:19:02  BASE  1.7052   105  3.51036  127  0.9   100   0.9   69    0     979.1    NA       0.0000   -SN      BR    6000  200  
2019/03/04  17:20:03  BASE  1.6758   110  3.51036  127  0.9   100   0.9   68    0     979.1    NA       0.0000   -SN      BR    9000  160  
2019/03/04  17:21:03  BASE  1.63464  118  3.51036  127  0.9   100   0.9   67    0     979.1    NA       0.0000   -SN      BR    3600  160  
2019/03/04  17:22:02  BASE  1.59348  130  3.41628  125  0.9   100   0.9   67    0     979.1    NA       0.0000   -SN      BR    3700  160  
2019/03/04  17:23:03  BASE  1.35828  149  3.1458   128  0.9   100   0.9   68    0     979.0    NA       0.0000   -SN      BR    4300  160  
2019/03/04  17:24:03  BASE  1.1466   163  2.81064  123  0.9   100   0.9   68    0     979.0    NA       0.0000   -SN      BR    4700  200  
2019/03/04  17:25:03  BASE  0.95844  157  2.51076  117  0.9   100   0.9   65    0     979.1    NA       0.0000   -SN      BR    3500  200  
2019/03/04  17:26:02  BASE  0.82908  146  2.21088  106  0.9   100   0.9   63    0     979.0    NA       0.0000   -SN      BR    2400  160  
2019/03/04  17:27:02  BASE  1.14072  154  1.9992   103  0.9   100   0.9   62    0     979.0    NA       0.0000   -SN      BR    3300  160  
2019/03/04  17:28:03  BASE  1.91688  169  2.63424  180  0.9   100   0.9   64    0     978.9    NA       0.0000   -SN      BR    8000  160  
2019/03/04  17:29:03  BASE  2.793    180  3.62796  189  0.9   100   0.9   64    0     978.8    NA       0.0000   -SN      BR    9999  200  
2019/03/04  17:30:03  BASE  3.33984  187  3.69264  185  0.9   100   0.9   67    0     978.7    NA       0.0000   -SN      BR    3700  0    
2019/03/04  17:31:02  BASE  3.54564  191  3.96312  196  0.9   100   0.9   69    0     978.7    NA       0.0000   -SN      BR    7000  0    
2019/03/04  17:32:03  BASE  3.52212  192  3.96312  196  0.9   100   0.9   70    0     978.7    NA       0.0000   -SN      BR    9999  0    
2019/03/04  17:33:03  BASE  3.37512  188  3.96312  196  0.9   100   0.9   69    0     978.7    NA       0.0000   -SN      BR    9999  0    
2019/03/04  17:34:03  BASE  3.22224  181  3.96312  196  0.9   100   0.9   69    0     978.7    NA       0.0000   -SN      BR    9999  1940 
2019/03/04  17:35:03  BASE  3.3222   179  4.02192  188  0.9   100   0.9   67    0     978.7    NA       0.0000   -SN      BR    9999  300  
2019/03/04  17:36:03  BASE  3.5574   185  4.02192  188  0.8   100   0.8   67    0     978.6    NA       0.0000   -SN      BR    9999  1870 
2019/03/04  17:37:02  BASE  3.2928   189  4.02192  188  0.8   100   0.8   65    0     978.6    NA       0.0000   -SN      BR    9000  1940 
2019/03/04  17:38:03  BASE  2.76948  198  4.02192  188  0.8   100   0.8   63    0     978.7    NA       0.0000   -SN      BR    9000  1940 
2019/03/04  17:39:03  BASE  1.49352  219  4.02192  188  0.8   100   0.8   59    0     978.8    NA       0.0000   BR       9000  3580  0    
2019/03/04  17:40:02  BASE  0.21756  223  4.02192  188  0.9   100   0.9   55    0     978.8    NA       0.0000   BR       8000  200   0    
2019/03/04  17:41:02  BASE  0.34104  218  4.02192  188  0.9   100   0.9   55    0     978.9    NA       0.0000   BR       9999  0     0    
2019/03/04  17:42:02  BASE  1.12896  217  4.02192  188  0.9   100   0.9   58    0     978.8    NA       0.0000   BR       9000  0     0    
2019/03/04  17:43:02  BASE  1.53468  211  4.02192  188  0.9   100   0.9   60    0     978.7    NA       0.0000   BR       9000  1610  0    
2019/03/04  17:44:03  BASE  1.18776  213  4.02192  188  0.8   100   0.8   63    0     978.7    NA       0.0000   BR       8000  1610  0    
2019/03/04  17:45:03  BASE  0.97608  198  3.96312  189  0.8   100   0.8   65    0     978.7    NA       0.0000   BR       8000  2890  0    
2019/03/04  17:46:02  BASE  1.02312  171  3.65736  186  0.8   100   0.8   66    0     978.7    NA       0.0000   BR       7000  330   1610 
2019/03/04  17:47:03  BASE  1.22892  162  2.96352  198  0.9   100   0.9   66    0     978.8    NA       0.0000   BR       7000  230   0    
2019/03/04  17:48:03  BASE  1.12308  133  2.29908  209  0.9   100   0.9   67    0     978.9    NA       0.0000   BR       6000  330   0    
2019/03/04  17:49:03  BASE  0.37044  102  2.29908  209  0.9   100   0.9   70    0     978.8    NA       0.0000   BR       6000  160   0    
2019/03/04  17:50:02  BASE  0.7938   217  2.29908  209  0.9   100   0.9   76    0     978.7    NA       0.0000   BR       6000  200   0    
2019/03/04  17:51:03  BASE  1.05252  217  2.29908  209  0.9   100   0.9   79    0     978.8    NA       0.0000   BR       5000  260   0    
2019/03/04  17:52:03  BASE  0.3234   231  2.29908  209  0.9   100   0.9   81    0     978.8    NA       0.0000   BR       5000  230   0    
2019/03/04  17:53:03  BASE  0.7056   222  2.1168   211  0.9   100   0.9   82    0     978.7    NA       0.0000   BR       5000  230   0    
2019/03/04  17:54:02  BASE  0.88788  165  2.1168   211  0.9   100   0.9   80    0     978.7    NA       0.0000   BR       5000  200   0    
2019/03/04  17:55:03  BASE  0.29988  79   2.1168   211  0.9   100   0.9   78    0     978.8    NA       0.0000   BR       4800  230   0    
2019/03/04  17:56:04  BASE  0.05292  99   2.1168   211  1.0   100   1.0   78    0     978.9    NA       0.0000   BR       4600  230   0    
2019/03/04  17:57:03  BASE  0.02352  140  2.1168   211  1.0   100   1.0   78    0     978.9    NA       0.0000   BR       4400  200   0    
2019/03/04  17:58:02  BASE  0.54684  117  2.1168   211  1.1   100   1.1   75    0     978.9    NA       0.0000   BR       4200  200   0    
2019/03/04  17:59:02  BASE  1.42296  117  2.32848  132  1.1   100   1.1   76    0     978.9    NA       0.0000   BR       4000  0     0    
2019/03/04  18:00:03  BASE  1.78164  141  2.48136  158  1.1   100   1.1   75    0     978.9    NA       0.0000   -SN      BR    6000  260  
2019/03/04  18:01:02  BASE  1.90512  148  2.69304  151  1.0   100   1.0   74    0     978.9    NA       0.0000   -SN      BR    6000  230  
2019/03/04  18:02:03  BASE  1.3818   137  2.69304  151  1.0   100   1.0   73    0     979.0    NA       0.0000   -SN      BR    6000  330  
2019/03/04  18:03:03  BASE  0.92904  144  2.69304  151  1.0   100   1.0   74    0     979.0    NA       0.2540   -SN      BR    6000  1740 
2019/03/04  18:04:02  BASE  2.56956  105  5.86824  26   1.1   100   1.1   75    0     978.9    NA       0.0000   -SN      BR    6000  1610 
2019/03/04  18:05:04  BASE  3.39276  70   5.92704  27   1.2   100   1.2   77    0     979.0    NA       0.0000   -SN      BR    6000  1670 
2019/03/04  18:06:02  BASE  2.48724  73   5.92704  27   1.4   100   1.4   80    0     979.0    NA       0.0000   -SN      BR    6000  2230 
2019/03/04  18:07:03  BASE  2.96352  59   5.92704  27   1.7   100   1.7   80    0     979.0    NA       0.0000   -SN      BR    6000  2260 
2019/03/04  18:08:03  BASE  4.26888  53   7.2618   49   2.0   100   2.0   82    0     979.0    NA       0.0000   -SN      BR    5000  2000 
2019/03/04  18:09:03  BASE  5.6448   46   7.74396  31   2.2   100   2.2   83    0     978.9    NA       0.0000   -SN      BR    5000  1740 
2019/03/04  18:10:03  BASE  7.203    44   10.7075  59   2.5   100   2.5   81    0     978.8    NA       0.0000   -SN      BR    5000  1770 
2019/03/04  18:11:03  BASE  7.203    48   10.7075  59   2.7   100   2.7   82    0     978.8    NA       0.0000   -SN      BR    8000  1840 
2019/03/04  18:12:03  BASE  6.19752  43   10.7075  59   2.9   100   2.9   85    0     978.7    NA       0.0000   -SN      BR    9000  1940 
2019/03/04  18:13:03  BASE  6.36804  40   10.7075  59   3.0   100   3.0   89    0     978.7    NA       0.0000   -SN      BR    9000  1970 
2019/03/04  18:14:03  BASE  6.8208   47   10.7075  59   3.1   100   3.1   94    0     978.8    NA       0.0000   -SN      BR    9000  1940 
2019/03/04  18:15:02  BASE  7.15596  46   10.7075  59   3.1   100   3.1   95    0     978.7    NA       0.0000   -SN      BR    9000  1770 
2019/03/04  18:16:03  BASE  7.36176  34   10.7075  59   3.2   100   3.2   96    0     978.7    NA       0.0000   -SN      BR    9000  1800 
2019/03/04  18:17:02  BASE  7.07364  27   10.7075  59   3.3   100   3.3   98    0     978.6    NA       0.0000   -SN      BR    9000  2490 
2019/03/04  18:18:02  BASE  8.10852  23   10.7075  59   3.3   100   3.3   99    0     978.6    NA       0.0000   -SN      BR    9000  2330 
2019/03/04  18:19:03  BASE  9.03168  25   10.7075  59   3.4   100   3.4   102   0     978.6    NA       0.0000   -SN      BR    9000  2230 
2019/03/04  18:20:02  BASE  9.25512  25   11.0132  23   3.4   100   3.4   106   0     978.6    NA       0.0000   -SN      BR    9999  1840 
2019/03/04  18:21:03  BASE  8.4084   27   11.0132  23   3.5   100   3.5   112   0     978.6    NA       0.0000   BR       9999  1900  0    
2019/03/04  18:22:03  BASE  7.47348  29   11.0132  23   3.5   100   3.5   116   0     978.7    NA       0.0000   9999     2030  0     0    
2019/03/04  18:23:03  BASE  7.8498   27   11.0132  23   3.5   100   3.5   119   0     978.6    NA       0.0000   9999     2230  0     0    
2019/03/04  18:24:03  BASE  8.9964   28   12.101   29   3.5   100   3.5   120   0     978.6    NA       0.0000   9999     2460  0     0    
2019/03/04  18:25:03  BASE  9.53736  27   12.101   29   3.6   100   3.6   124   0     978.6    NA       0.0000   9999     2430  3410  0    
2019/03/04  18:26:03  BASE  9.7314   31   12.1598  42   3.6   100   3.6   125   0     978.5    NA       0.0000   9999     2430  0     0    
2019/03/04  18:27:02  BASE  11.5895  30   14.2472  32   3.7   100   3.7   132   0     978.4    NA       0.0000   9999     2360  0     0    
2019/03/04  18:28:03  BASE  12.8478  25   14.2472  32   3.8   100   3.8   139   0     978.3    NA       0.0000   9999     2360  3080  0    
2019/03/04  18:29:03  BASE  12.1716  25   14.2472  32   3.8   100   3.8   152   0     978.3    NA       0.0000   9999     3410  0     0    
2019/03/04  18:30:03  BASE  12.1187  26   14.9117  30   3.8   100   3.8   154   0     978.2    NA       0.0000   9999     2330  3220  0    
2019/03/04  18:31:03  BASE  12.6008  29   14.9117  30   3.9   100   3.9   167   0     978.3    NA       0.0000   9999     2230  3310  0    
2019/03/04  18:32:02  BASE  11.7894  29   14.9117  30   3.9   100   3.9   175   0     978.3    NA       0.0000   9999     3350  0     0    
2019/03/04  18:33:02  BASE  11.8541  27   14.9117  30   3.9   100   3.9   190   0     978.3    NA       0.0000   9999     3380  0     0    
2019/03/04  18:34:03  BASE  11.9952  27   14.9117  30   4.0   100   4.0   207   0     978.3    NA       0.0000   9999     3480  4300  0    
2019/03/04  18:35:03  BASE  11.6189  27   14.9117  30   4.0   100   4.0   225   0     978.3    NA       0.0000   9999     4070  4690  0    
2019/03/04  18:36:03  BASE  11.8717  27   14.9117  30   4.1   100   4.1   237   0     978.3    NA       0.0000   9999     4100  4590  0    
2019/03/04  18:37:02  BASE  11.2132  23   14.9117  30   4.2   100   4.2   246   0     978.4    NA       0.0000   9999     4270  4860  21520
2019/03/04  18:38:03  BASE  10.7898  23   14.9117  30   4.2   100   4.2   252   0     978.3    NA       0.0000   9999     4270  0     0    
2019/03/04  18:39:03  BASE  10.3723  28   14.9117  30   4.2   100   4.2   261   0     978.4    NA       0.0000   9999     4330  0     0    
2019/03/04  18:40:03  BASE  9.38448  28   13.9474  26   4.2   100   4.2   267   0     978.4    NA       0.0000   9999     4360  0     0    
2019/03/04  18:41:02  BASE  10.2724  26   13.9474  26   4.3   100   4.3   267   0     978.3    NA       0.0000   9999     2890  4690  0    
2019/03/04  18:42:02  BASE  10.7663  25   13.9474  26   4.3   100   4.3   267   0     978.4    NA       0.0000   9999     4530  5510  0    
2019/03/04  18:43:03  BASE  9.97248  26   13.9474  26   4.3   100   4.3   271   0     978.5    NA       0.0000   9999     4590  5220  0    
2019/03/04  18:44:02  BASE  10.0372  28   13.9474  26   4.4   100   4.4   266   0     978.5    NA       0.0000   9999     3770  0     0    
2019/03/04  18:45:03  BASE  9.45504  25   13.6416  25   4.4   100   4.4   264   0     978.5    NA       0.0000   9999     3640  0     0    
2019/03/04  18:46:03  BASE  8.88468  25   12.642   33   4.5   100   4.5   261   0     978.6    NA       0.0000   9999     2590  0     0    
2019/03/04  18:47:03  BASE  8.75532  25   12.642   33   4.5   100   4.5   263   0     978.6    NA       0.0000   9999     2690  0     0    
2019/03/04  18:48:03  BASE  8.53776  26   12.3715  31   4.5   100   4.5   263   0     978.7    NA       0.0000   9999     2690  0     0    
2019/03/04  18:49:03  BASE  9.25512  28   12.3715  31   4.6   100   4.5   257   0     978.6    NA       0.0000   9999     2890  3450  4270 
2019/03/04  18:50:03  BASE  10.5722  25   13.2476  25   4.6   99    4.5   248   0     978.5    NA       0.0000   9999     2790  4270  0    
2019/03/04  18:51:03  BASE  11.2308  26   13.2476  25   4.7   99    4.5   240   0     978.5    NA       0.0000   9999     2890  4100  0    
2019/03/04  18:52:03  BASE  10.3076  27   13.2476  25   4.7   98    4.4   225   0     978.5    NA       0.0000   9999     3080  4100  0    
2019/03/04  18:53:03  BASE  9.2022   26   13.2476  25   4.6   98    4.4   206   0     978.5    NA       0.0000   9999     3970  0     0    
2019/03/04  18:54:02  BASE  10.2371  24   13.2476  25   4.6   98    4.3   193   0     978.4    NA       0.0000   9999     3900  0     0    
2019/03/04  18:55:03  BASE  11.8012  24   13.2476  25   4.6   98    4.3   191   0     978.4    NA       0.0000   9999     3940  0     0    
2019/03/04  18:56:03  BASE  11.5954  25   13.2476  25   4.5   99    4.3   192   0     978.4    NA       0.0000   9999     3870  0     0    
2019/03/04  18:57:03  BASE  11.219   25   13.2476  25   4.5   99    4.3   193   0     978.4    NA       0.0000   9999     3810  0     0    
2019/03/04  18:58:03  BASE  11.5013  25   13.4887  24   4.4   99    4.3   192   0     978.4    NA       0.0000   9999     3840  0     0    
2019/03/04  18:59:03  BASE  10.7192  26   13.4887  24   4.4   99    4.2   192   0     978.5    NA       0.0000   9999     3740  0     0    
2019/03/04  19:00:03  BASE  10.3547  26   13.4887  24   4.4   99    4.2   190   0     978.4    NA       0.0000   9999     3710  0     0    
2019/03/04  19:01:02  BASE  11.613   24   13.4887  24   4.4   99    4.3   195   0     978.4    NA       0.0000   9999     3710  0     0    
2019/03/04  19:02:03  BASE  12.154   24   13.9474  16   4.5   99    4.3   208   0     978.3    NA       0.0000   9999     3970  0     0    
2019/03/04  19:03:03  BASE  11.9776  24   13.9474  16   4.5   99    4.3   222   0     978.3    NA       0.0000   9999     3540  4000  0    
2019/03/04  19:04:03  BASE  11.9952  24   13.9474  16   4.5   99    4.3   281   0     978.3    NA       0.0000   9999     3450  0     0    
2019/03/04  19:05:04  BASE  12.3833  26   14.2766  32   4.5   98    4.3   272   0     978.3    NA       0.0000   9999     3410  4070  0    
2019/03/04  19:06:03  BASE  11.7424  28   14.2766  32   4.5   98    4.3   272   0     978.3    NA       0.0000   9999     4040  0     0    
2019/03/04  19:07:03  BASE  11.3954  28   14.2766  32   4.5   98    4.2   277   0     978.3    NA       0.0000   9999     3280  4100  0    
2019/03/04  19:08:02  BASE  11.4366  25   14.2766  32   4.5   99    4.3   265   0     978.4    NA       0.0000   9999     3310  4200  0    
2019/03/04  19:09:02  BASE  11.2955  26   14.2766  32   4.5   99    4.3   280   0     978.4    NA       0.0000   9999     3220  0     0    
2019/03/04  19:10:03  BASE  10.9486  27   14.2766  32   4.5   99    4.4   215   0     978.4    NA       0.0000   9999     3870  0     0    
2019/03/04  19:11:03  BASE  10.6252  25   14.2766  32   4.5   99    4.4   202   0     978.4    NA       0.0000   9999     3810  0     0    
2019/03/04  19:12:02  BASE  10.9368  24   14.2766  32   4.5   99    4.4   197   0     978.4    NA       0.0000   9999     3710  0     0    
2019/03/04  19:13:03  BASE  11.1838  23   14.2766  32   4.6   99    4.4   200   0     978.4    NA       0.0000   9999     2890  3610  0    
2019/03/04  19:14:02  BASE  11.4601  22   14.2766  32   4.6   98    4.4   207   0     978.3    NA       0.0000   9999     2820  0     0    
2019/03/04  19:15:02  BASE  11.1132  24   13.3123  26   4.6   98    4.3   213   0     978.4    NA       0.0000   9999     2990  4270  0    
2019/03/04  19:16:02  BASE  10.9133  26   13.3123  26   4.6   98    4.3   214   0     978.4    NA       0.0000   9999     4400  0     0    
2019/03/04  19:17:03  BASE  11.0838  28   13.3123  26   4.6   97    4.2   211   0     978.4    NA       0.0000   9999     3640  0     0    
2019/03/04  19:18:02  BASE  10.8721  29   13.3123  26   4.6   97    4.2   208   0     978.4    NA       0.0000   9999     3900  4630  0    
2019/03/04  19:19:03  BASE  10.8192  28   13.3123  26   4.6   97    4.2   208   0     978.4    NA       0.0000   9999     4130  4760  0    
2019/03/04  19:20:03  BASE  10.9192  26   13.4299  23   4.6   97    4.2   207   0     978.4    NA       0.0000   9999     2720  4590  0    
2019/03/04  19:21:03  BASE  11.2014  25   13.4299  23   4.6   97    4.2   204   0     978.4    NA       0.0000   9999     2430  4530  0    
2019/03/04  19:22:02  BASE  11.4542  25   13.4299  23   4.6   97    4.2   205   0     978.4    NA       0.0000   9999     2360  0     0    
2019/03/04  19:23:03  BASE  11.4836  24   13.4299  23   4.6   97    4.2   208   0     978.4    NA       0.0000   9999     2300  4360  0    
2019/03/04  19:24:02  BASE  11.3602  23   13.4299  23   4.6   97    4.2   211   0     978.5    NA       0.0000   9999     2460  0     0    
2019/03/04  19:25:03  BASE  10.8427  23   13.4299  23   4.6   97    4.2   217   0     978.5    NA       0.0000   9999     2460  4890  0    
2019/03/04  19:26:03  BASE  10.7428  25   13.4299  23   4.6   97    4.2   228   0     978.4    NA       0.0000   9999     2070  0     0    
2019/03/04  19:27:03  BASE  10.9721  25   13.4299  23   4.6   97    4.2   242   0     978.4    NA       0.0000   9999     2430  4300  0    
2019/03/04  19:28:03  BASE  11.3954  24   13.4299  23   4.6   97    4.2   263   0     978.4    NA       0.0000   9999     2560  4460  0    
2019/03/04  19:29:03  BASE  11.6894  25   13.4299  23   4.6   97    4.2   266   0     978.4    NA       0.0000   9999     4530  0     0    
2019/03/04  19:30:02  BASE  10.9309  24   12.9772  23   4.6   98    4.2   264   0     978.5    NA       0.0000   9999     4660  0     0    
2019/03/04  19:31:03  BASE  10.5311  23   12.9772  23   4.6   98    4.2   264   0     978.5    NA       0.0000   9999     4330  0     0    
2019/03/04  19:32:02  BASE  10.0195  25   12.9772  23   4.5   98    4.3   230   0     978.5    NA       0.0000   9999     4560  0     0    
2019/03/04  19:33:03  BASE  9.33156  27   12.9772  23   4.5   98    4.2   215   0     978.5    NA       0.0000   9999     4560  0     0    
2019/03/04  19:34:03  BASE  9.16692  26   12.9772  23   4.5   98    4.2   208   0     978.5    NA       0.0000   9999     4430  0     0    
2019/03/04  19:35:03  BASE  9.32568  24   12.9772  23   4.5   98    4.2   205   0     978.5    NA       0.0000   9999     4360  21060 0    
2019/03/04  19:36:02  BASE  9.79608  25   12.9772  23   4.5   98    4.2   204   0     978.5    NA       0.0000   9999     4400  0     0    
2019/03/04  19:37:03  BASE  10.2194  26   12.9772  23   4.5   98    4.2   204   0     978.5    NA       0.0000   9999     4300  0     0    
2019/03/04  19:38:03  BASE  9.85488  27   12.9184  24   4.5   97    4.2   204   0     978.5    NA       0.0000   9999     3970  0     0    
2019/03/04  19:39:02  BASE  9.76668  28   12.2186  29   4.5   97    4.1   206   0     978.5    NA       0.0000   9999     4000  0     0    
2019/03/04  19:40:02  BASE  10.3547  26   12.2186  29   4.5   97    4.1   207   0     978.5    NA       0.0000   9999     4100  0     0    
2019/03/04  19:41:02  BASE  10.0724  27   11.7365  25   4.5   97    4.1   210   0     978.5    NA       0.0000   9999     4000  0     0    
2019/03/04  19:42:02  BASE  9.79608  30   11.9188  28   4.5   97    4.1   215   0     978.5    NA       0.0000   9999     3840  0     0    
2019/03/04  19:43:02  BASE  9.41976  29   11.9188  28   4.5   97    4.1   230   0     978.5    NA       0.0000   9999     4330  0     0    
2019/03/04  19:44:03  BASE  9.26688  30   11.9188  28   4.5   97    4.1   231   0     978.6    NA       0.0000   9999     4490  22610 0    
2019/03/04  19:45:02  BASE  9.27864  32   11.9188  28   4.5   97    4.1   230   0     978.6    NA       0.0000   9999     4590  0     0    
2019/03/04  19:46:02  BASE  9.00816  30   11.9188  28   4.6   97    4.2   251   0     978.6    NA       0.0000   9999     4760  0     0    
2019/03/04  19:47:03  BASE  9.6432   26   11.9188  28   4.6   97    4.2   349   0     978.5    NA       0.0000   9999     4590  0     0    
2019/03/04  19:48:02  BASE  9.81372  25   11.9188  28   4.7   97    4.3   223   0     978.6    NA       0.0000   9999     2720  4430  0    
2019/03/04  19:49:02  BASE  9.56676  26   11.9188  28   4.7   97    4.2   225   0     978.6    NA       0.0000   9999     4720  0     0    
2019/03/04  19:50:02  BASE  10.0195  27   11.9188  28   4.7   97    4.2   230   0     978.5    NA       0.0000   9999     4720  0     0    
2019/03/04  19:51:02  BASE  9.68436  26   11.9188  28   4.7   97    4.2   240   0     978.6    NA       0.0000   9999     3020  5050  0    
2019/03/04  19:52:02  BASE  9.19632  27   11.3425  36   4.7   97    4.2   240   0     978.6    NA       0.0000   9999     3670  4920  0    
2019/03/04  19:53:02  BASE  9.01404  29   11.3425  36   4.7   97    4.3   247   0     978.6    NA       0.0000   9999     4920  0     0    
2019/03/04  19:54:02  BASE  9.09048  30   11.3425  36   4.7   97    4.3   296   0     978.6    NA       0.0000   9999     4890  0     0    
2019/03/04  19:55:03  BASE  9.32568  31   11.3425  36   4.7   98    4.4   292   0     978.6    NA       0.0000   9999     4690  0     0    
2019/03/04  19:56:02  BASE  8.89056  31   11.3425  36   4.7   98    4.4   419   0     978.6    NA       0.0000   9999     4460  0     0    
2019/03/04  19:57:02  BASE  8.34372  30   11.3425  36   4.7   98    4.4   319   0     978.6    NA       0.0000   9999     4330  4920  0    
2019/03/04  19:58:02  BASE  8.66124  30   11.3425  36   4.7   98    4.4   340   0     978.5    NA       0.0000   9999     4270  4760  0    
2019/03/04  19:59:02  BASE  9.702    29   11.9188  22   4.7   98    4.4   510   0     978.5    NA       0.0000   9999     4590  0     0    
2019/03/04  20:00:03  BASE  9.84312  28   11.9188  22   4.7   98    4.4   207   0     978.5    NA       0.0000   9999     3220  4630  0    
2019/03/04  20:01:03  BASE  10.0254  27   11.9188  22   4.8   97    4.4   198   0     978.4    NA       0.0000   9999     0     0     0    
2019/03/04  20:02:03  BASE  10.7192  27   11.9188  22   4.8   97    4.4   505   0     978.4    NA       0.0000   9999     0     0     0    
2019/03/04  20:03:02  BASE  10.8604  28   11.9188  22   4.8   97    4.4   358   0     978.4    NA       0.0000   9999     0     0     0    
2019/03/04  20:04:02  BASE  10.8721  25   11.9188  22   4.8   97    4.4   163   0     978.4    NA       0.0000   9999     3480  5020  0    
2019/03/04  20:05:04  BASE  10.6134  25   11.9188  22   4.9   97    4.4   154   0     978.5    NA       0.0000   9999     3770  4230  0    
2019/03/04  20:06:03  BASE  10.2959  26   11.9188  22   4.9   97    4.4   135   0     978.5    NA       0.0000   9999     5020  0     0    
2019/03/04  20:07:02  BASE  10.2665  26   11.9188  22   4.9   97    4.4   169   0     978.5    NA       0.0000   9999     3280  0     0    
2019/03/04  20:08:02  BASE  10.5134  24   11.9188  22   4.8   96    4.3   240   0     978.6    NA       0.0000   9999     0     0     0    
2019/03/04  20:09:02  BASE  10.6369  23   11.9188  22   4.8   96    4.3   229   0     978.6    NA       0.0000   9999     5120  0     0    
2019/03/04  20:10:02  BASE  10.3606  23   11.9188  22   4.8   96    4.3   228   0     978.7    NA       0.0000   9999     4950  0     0    
2019/03/04  20:11:02  BASE  9.57852  25   11.9188  22   4.8   96    4.3   485   0     978.7    NA       0.0000   9999     4860  0     0    
2019/03/04  20:12:02  BASE  8.64948  28   11.9188  22   4.8   97    4.3   208   0     978.8    NA       0.0000   9999     4130  4790  0    
2019/03/04  20:13:02  BASE  8.22024  27   11.9188  22   4.9   97    4.4   268   0     978.8    NA       0.0000   9999     3350  4300  0    
2019/03/04  20:14:03  BASE  8.60244  27   11.4366  18   4.9   97    4.4   337   0     978.8    NA       0.0000   9999     3080  0     0    
2019/03/04  20:15:02  BASE  8.59068  26   11.4366  18   4.9   97    4.5   542   0     978.8    NA       0.0000   9999     3120  0     0    
2019/03/04  20:16:02  BASE  9.1434   23   11.4366  18   4.9   97    4.5   538   0     978.7    NA       0.0000   9999     3220  0     0    
2019/03/04  20:17:02  BASE  9.83724  25   11.4366  18   5.0   97    4.5   257   0     978.7    NA       0.0000   9999     3310  0     0    
2019/03/04  20:18:02  BASE  9.56088  26   11.3425  23   5.0   97    4.6   255   0     978.7    NA       0.0000   9999     3510  0     0    
2019/03/04  20:19:02  BASE  9.27864  26   11.0426  27   5.0   97    4.6   261   0     978.8    NA       0.0000   9999     3580  0     0    
2019/03/04  20:20:02  BASE  8.6142   28   11.0426  27   5.1   97    4.6   419   0     978.8    NA       0.0000   9999     3450  0     0    
2019/03/04  20:21:03  BASE  8.37312  29   11.0426  27   5.1   97    4.6   348   0     978.8    NA       0.0000   9999     3380  3870  23200
2019/03/04  20:22:02  BASE  9.41388  28   11.466   28   5.1   97    4.6   213   0     978.7    NA       0.0000   9999     3410  4100  21520
2019/03/04  20:23:02  BASE  10.1371  28   11.466   28   5.0   97    4.6   166   0     978.7    NA       0.0000   9999     3480  4170  0    
2019/03/04  20:24:02  BASE  10.096   27   11.4954  29   5.0   97    4.5   159   0     978.8    NA       0.0000   9999     3350  0     0    
2019/03/04  20:25:03  BASE  10.2253  26   11.4954  29   5.0   97    4.5   151   0     978.8    NA       0.0000   9999     3450  3900  0    
2019/03/04  20:26:02  BASE  10.1136  26   11.4954  29   5.0   97    4.6   149   0     978.8    NA       0.0000   9999     3220  4890  0    
2019/03/04  20:27:02  BASE  10.0136  29   11.4954  29   5.0   97    4.5   147   0     978.8    NA       0.0000   9999     3310  4170  0    
2019/03/04  20:28:02  BASE  9.72552  30   11.4954  29   4.9   97    4.5   146   0     978.9    NA       0.0000   9999     2950  0     0    
2019/03/04  20:29:02  BASE  9.30804  28   11.4954  29   4.9   97    4.5   139   0     978.8    NA       0.0000   9999     2760  0     0    
2019/03/04  20:30:03  BASE  9.04344  27   11.4954  29   4.9   97    4.5   131   0     978.9    NA       0.0000   9999     3050  0     0    
2019/03/04  20:31:03  BASE  8.62008  29   11.4954  29   4.9   98    4.6   124   0     978.9    NA       0.0000   9999     3180  0     0    
2019/03/04  20:32:02  BASE  7.94388  32   11.4954  29   4.9   98    4.6   118   0     978.9    NA       0.0000   9999     3280  0     0    
2019/03/04  20:33:02  BASE  7.93212  32   11.4954  29   4.9   98    4.6   111   0     978.8    NA       0.0000   9999     3250  0     0    
2019/03/04  20:34:03  BASE  7.68516  31   11.3719  22   4.9   98    4.5   106   0     978.9    NA       0.0000   9999     3380  0     0    
2019/03/04  20:35:03  BASE  7.35     32   11.3131  29   4.9   97    4.5   110   0     978.8    NA       0.0000   9999     3510  0     0    
2019/03/04  20:36:03  BASE  8.1144   33   10.8604  28   4.8   97    4.4   122   0     978.8    NA       0.0000   9999     3770  0     0    
2019/03/04  20:37:03  BASE  8.80236  32   10.437   34   4.8   97    4.4   108   0     978.8    NA       0.0000   9999     3870  0     0    
2019/03/04  20:38:03  BASE  8.30256  30   10.3135  21   4.8   97    4.3   90    0     978.8    NA       0.0000   9999     4100  0     0    
2019/03/04  20:39:03  BASE  7.36176  29   10.0724  25   4.8   97    4.3   80    0     978.9    NA       0.0000   9999     4040  0     0    
2019/03/04  20:40:03  BASE  7.49112  30   9.86076  26   4.8   97    4.3   77    0     978.8    NA       0.0000   9999     4200  0     0    
2019/03/04  20:41:02  BASE  8.1144   30   9.67848  29   4.8   97    4.3   73    0     978.8    NA       0.0000   9999     0     0     0    
2019/03/04  20:42:03  BASE  8.54364  29   9.67848  29   4.8   97    4.3   69    0     978.8    NA       0.0000   9999     0     0     0    
2019/03/04  20:43:02  BASE  8.23788  28   9.67848  29   4.7   97    4.3   64    0     978.8    NA       0.0000   9999     0     0     0    
2019/03/04  20:44:02  BASE  8.085    28   9.67848  29   4.7   97    4.3   65    0     978.8    NA       0.0000   9999     0     0     0    
2019/03/04  20:45:03  BASE  8.17908  29   9.64908  38   4.7   97    4.3   61    0     978.8    NA       0.0000   9999     0     0     0    
2019/03/04  20:46:02  BASE  8.19084  29   9.64908  38   4.7   97    4.3   55    0     978.8    NA       0.0000   9999     0     0     0    
2019/03/04  20:47:03  BASE  8.59656  29   9.86076  29   4.7   97    4.3   53    0     978.7    NA       0.0000   9999     0     0     0    
2019/03/04  20:48:03  BASE  9.01992  30   10.1312  37   4.7   97    4.2   51    0     978.7    NA       0.0000   9999     0     0     0    
2019/03/04  20:49:02  BASE  9.2316   29   10.1312  37   4.7   97    4.2   52    0     978.7    NA       0.0000   9999     0     0     0    
2019/03/04  20:50:03  BASE  9.44328  27   10.5252  29   4.7   96    4.2   53    0     978.7    NA       0.0000   9999     0     0     0    
2019/03/04  20:51:03  BASE  9.48444  26   10.5252  29   4.7   96    4.2   49    0     978.7    NA       0.0000   9999     0     0     0    
2019/03/04  20:52:03  BASE  9.30804  24   10.5252  21   4.8   96    4.1   50    0     978.7    NA       0.0000   9999     0     0     0    
2019/03/04  20:53:02  BASE  9.20808  25   10.5252  21   4.8   96    4.2   52    0     978.8    NA       0.0000   9999     0     0     0    
2019/03/04  20:54:02  BASE  8.59068  25   10.5252  21   4.8   95    4.1   58    0     978.9    NA       0.0000   9999     0     0     0    
2019/03/04  20:55:02  BASE  8.03208  23   10.5252  21   4.8   95    4.1   59    0     978.9    NA       0.0000   9999     0     0     0    
2019/03/04  20:56:02  BASE  7.80276  21   10.5252  21   4.8   95    4.1   63    0     978.9    NA       0.0000   9999     0     0     0    
2019/03/04  20:57:03  BASE  7.5852   20   10.5252  21   4.8   95    4.0   67    0     978.9    NA       0.0000   9999     0     0     0    
2019/03/04  20:58:02  BASE  7.66164  20   10.5252  21   4.7   95    4.0   73    0     978.8    NA       0.0000   9999     0     0     0    
2019/03/04  20:59:03  BASE  7.24416  19   10.5252  21   4.7   95    4.0   80    0     978.9    NA       0.0000   9999     0     0     0    
2019/03/04  21:00:03  BASE  6.9678   20   10.5252  21   4.7   95    4.0   86    0     978.8    NA       0.0000   9999     0     0     0    
2019/03/04  21:01:03  BASE  7.60872  20   10.5252  21   4.7   95    4.0   123   0     978.8    NA       0.0000   9999     0     0     0    
2019/03/04  21:02:03  BASE  8.33196  21   9.95484  21   4.7   95    4.0   112   0     978.8    NA       0.0000   9999     0     0     0    
2019/03/04  21:03:02  BASE  8.48484  24   9.91956  18   4.7   95    4.0   91    0     978.7    NA       0.0000   9999     0     0     0    
2019/03/04  21:04:03  BASE  9.01404  24   11.613   27   4.7   95    4.0   89    0     978.7    NA       0.0000   9999     7090  0     0    
2019/03/04  21:05:04  BASE  9.849    25   11.613   32   4.7   95    4.0   84    0     978.7    NA       0.0000   9999     6990  0     0    
2019/03/04  21:06:02  BASE  10.1195  24   11.613   32   4.7   95    4.0   86    0     978.7    NA       0.0000   9999     6890  0     0    
2019/03/04  21:07:03  BASE  10.1959  21   11.613   32   4.8   95    4.0   85    0     978.7    NA       0.0000   9999     0     0     0    
2019/03/04  21:08:03  BASE  9.7608   18   11.613   32   4.8   95    4.0   88    0     978.7    NA       0.0000   9999     0     0     0    
2019/03/04  21:09:03  BASE  9.27276  15   11.613   32   4.7   95    4.0   81    0     978.7    NA       0.0000   9999     0     0     0    
2019/03/04  21:10:02  BASE  8.74356  14   11.613   32   4.7   95    4.0   76    0     978.7    NA       0.0000   9999     0     0     0    
2019/03/04  21:11:03  BASE  7.98504  15   11.613   32   4.7   95    4.0   80    0     978.8    NA       0.0000   9999     0     0     0    
2019/03/04  21:12:03  BASE  8.06736  18   11.613   32   4.6   96    4.0   80    0     978.7    NA       0.0000   9999     6330  0     0    
2019/03/04  21:13:02  BASE  9.36684  20   11.613   32   4.6   96    4.0   83    0     978.6    NA       0.0000   9999     6400  0     0    
2019/03/04  21:14:02  BASE  10.3488  19   11.613   32   4.6   96    4.0   86    0     978.6    NA       0.0000   9999     6300  0     0    
2019/03/04  21:15:02  BASE  10.6428  19   11.7659  14   4.6   96    4.0   89    0     978.6    NA       0.0000   9999     6300  0     0    
2019/03/04  21:16:03  BASE  11.1367  18   12.2186  12   4.6   96    4.0   91    0     978.5    NA       0.0000   9999     6230  0     0    
2019/03/04  21:17:03  BASE  11.5542  17   12.5538  19   4.6   96    4.0   86    0     978.5    NA       0.0000   9999     6200  0     0    
2019/03/04  21:18:03  BASE  10.8368  22   12.5538  19   4.6   96    4.0   81    0     978.6    NA       0.0000   9999     6140  0     0    
2019/03/04  21:19:02  BASE  10.437   27   12.642   31   4.6   96    4.0   118   0     978.5    NA       0.0000   9999     6140  0     0    
2019/03/04  21:20:02  BASE  10.5076  26   12.642   31   4.6   96    4.0   78    0     978.5    NA       0.0000   9999     6140  0     0    
2019/03/04  21:21:03  BASE  10.1077  26   12.642   31   4.6   96    4.0   77    0     978.6    NA       0.0000   9999     6100  0     0    
2019/03/04  21:22:03  BASE  10.2018  26   12.642   31   4.6   96    4.0   75    0     978.5    NA       0.0000   9999     6100  0     0    
2019/03/04  21:23:03  BASE  10.2136  24   12.642   31   4.6   96    4.0   71    0     978.5    NA       0.0000   9999     6100  0     0    
2019/03/04  21:24:02  BASE  9.996    23   12.642   31   4.6   96    4.0   70    0     978.5    NA       0.0000   9999     0     0     0    
2019/03/04  21:25:03  BASE  10.3194  25   13.2182  27   4.6   95    3.9   76    0     978.5    NA       0.0000   9999     0     0     0    
2019/03/04  21:26:03  BASE  10.9838  27   13.2182  27   4.6   95    3.9   76    0     978.4    NA       0.0000   9999     0     0     0    
2019/03/04  21:27:03  BASE  10.7016  25   13.2182  27   4.5   95    3.9   76    0     978.4    NA       0.0000   9999     6170  0     0    
2019/03/04  21:28:03  BASE  10.6957  26   13.2182  27   4.5   96    3.8   76    0     978.4    NA       0.0000   9999     6140  0     0    
2019/03/04  21:29:03  BASE  11.6365  26   13.2182  27   4.4   96    3.8   97    0     978.3    NA       0.0000   9999     0     0     0    
2019/03/04  21:30:03  BASE  12.0775  26   14.306   36   4.4   96    3.9   118   0     978.3    NA       0.0000   9999     0     0     0    
2019/03/04  21:31:03  BASE  11.9011  27   14.306   36   4.4   96    3.9   241   0     978.4    NA       0.0000   9999     6040  0     0    
2019/03/04  21:32:02  BASE  11.8364  27   14.306   36   4.4   96    3.9   232   0     978.4    NA       0.0000   9999     6000  0     0    
2019/03/04  21:33:02  BASE  11.5248  28   14.306   36   4.4   96    3.9   234   0     978.4    NA       0.0000   9999     0     0     0    
2019/03/04  21:34:02  BASE  11.4425  24   14.306   36   4.5   96    3.9   228   0     978.3    NA       0.0000   9999     0     0     0    
2019/03/04  21:35:02  BASE  12.1657  21   14.306   36   4.5   96    3.9   234   0     978.4    NA       0.0000   9999     0     0     0    
2019/03/04  21:36:03  BASE  12.8948  22   14.306   36   4.5   96    3.9   216   0     978.3    NA       0.0000   9999     0     0     0    
2019/03/04  21:37:03  BASE  13.4417  23   14.8235  27   4.5   96    3.9   214   0     978.3    NA       0.0000   9999     0     0     0    
2019/03/04  21:38:03  BASE  12.7302  25   14.8235  27   4.4   96    3.9   75    0     978.4    NA       0.0000   9999     0     0     0    
2019/03/04  21:39:02  BASE  12.448   26   14.8823  23   4.4   96    3.9   116   0     978.4    NA       0.0000   9999     0     0     0    
2019/03/04  21:40:02  BASE  12.9242  26   14.8823  23   4.4   97    3.9   113   0     978.3    NA       0.0000   9999     0     0     0    
2019/03/04  21:41:04  BASE  12.6773  26   14.8823  23   4.3   97    3.9   77    0     978.4    NA       0.0000   9999     0     0     0    
2019/03/04  21:42:02  BASE  12.0305  27   14.8823  23   4.3   97    3.9   66    0     978.4    NA       0.0000   9999     0     0     0    
2019/03/04  21:43:02  BASE  11.2308  29   14.8823  23   4.3   97    3.9   63    0     978.5    NA       0.0000   9999     0     0     0    
2019/03/04  21:44:02  BASE  11.4542  28   14.8823  23   4.3   97    3.9   58    0     978.4    NA       0.0000   9999     0     0     0    
2019/03/04  21:45:03  BASE  11.6483  28   14.8823  23   4.3   97    3.9   58    0     978.5    NA       0.0000   9999     0     0     0    
2019/03/04  21:46:02  BASE  11.1955  29   14.8823  23   4.3   97    3.9   57    0     978.5    NA       0.0000   9999     0     0     0    
2019/03/04  21:47:03  BASE  10.8486  28   14.8823  23   4.3   97    3.9   56    0     978.5    NA       0.0000   9999     0     0     0    
2019/03/04  21:48:03  BASE  10.2841  30   14.8823  23   4.3   97    3.9   56    0     978.6    NA       0.0000   9999     0     0     0    
2019/03/04  21:49:02  BASE  9.80784  33   14.4883  27   4.3   97    3.9   63    0     978.6    NA       0.0000   9999     0     0     0    
2019/03/04  21:50:02  BASE  9.30216  33   13.5534  18   4.3   97    3.9   64    0     978.7    NA       0.0000   9999     6040  0     0    
2019/03/04  21:51:02  BASE  8.98464  33   13.2476  30   4.3   97    3.8   64    0     978.7    NA       0.0000   9999     6040  0     0    
2019/03/04  21:52:02  BASE  9.24336  33   13.2476  30   4.2   97    3.8   66    0     978.7    NA       0.0000   9999     6100  0     0    
2019/03/04  21:53:03  BASE  9.51384  33   13.2476  30   4.2   97    3.8   71    0     978.8    NA       0.0000   9999     6040  0     0    
2019/03/04  21:54:03  BASE  8.7612   33   12.889   24   4.2   97    3.8   71    0     978.9    NA       0.0000   9999     6000  0     0    
2019/03/04  21:55:03  BASE  7.22064  34   12.889   24   4.2   97    3.8   70    0     979.0    NA       0.0000   9999     5970  0     0    
2019/03/04  21:56:02  BASE  7.35588  35   12.889   24   4.2   97    3.8   71    0     979.0    NA       0.0000   9999     5970  0     0    
2019/03/04  21:57:02  BASE  8.96112  39   12.889   24   4.3   97    3.8   68    0     979.0    NA       0.0000   9999     5940  0     0    
2019/03/04  21:58:03  BASE  7.60872  39   12.889   24   4.3   97    3.8   63    0     979.2    NA       0.0000   9999     5940  0     0    
2019/03/04  21:59:03  BASE  5.86824  38   12.889   24   4.3   97    3.8   62    0     979.2    NA       0.0000   9999     5910  0     0    
2019/03/04  22:00:02  BASE  7.19712  43   12.889   24   4.3   96    3.8   64    0     979.2    NA       0.0000   9999     5910  0     0    
2019/03/04  22:01:02  BASE  8.1438   49   12.889   24   4.4   96    3.8   65    0     979.2    NA       0.0000   9999     5870  0     0    
2019/03/04  22:02:02  BASE  6.8208   59   11.613   33   4.4   96    3.8   68    0     979.3    NA       0.0000   9999     4790  5940  0    
2019/03/04  22:03:02  BASE  5.4978   73   11.2543  43   4.4   95    3.7   67    0     979.3    NA       0.0000   9999     4720  0     0    
2019/03/04  22:04:03  BASE  5.38608  90   11.2543  43   4.4   95    3.7   67    0     979.3    NA       0.0000   9999     4590  0     0    
2019/03/04  22:05:01  BASE  5.30376  97   11.2543  43   4.3   95    3.6   59    0     979.4    NA       0.0000   9999     4560  0     0    
2019/03/04  22:06:00  BASE  5.2626   103  11.2543  43   4.3   95    3.5   57    0     979.4    NA       0.0000   9999     4630  0     0    
2019/03/04  22:07:00  BASE  4.9392   118  9.4962   37   4.2   95    3.5   53    0     979.4    NA       0.0000   9999     4560  0     0    
2019/03/04  22:08:02  BASE  4.48056  129  9.4962   37   4.1   96    3.4   51    0     979.5    NA       0.0000   9999     4530  0     0    
2019/03/04  22:09:02  BASE  4.16304  129  9.4962   37   4.0   96    3.4   50    0     979.5    NA       0.0000   9999     4460  0     0    
2019/03/04  22:10:02  BASE  3.74556  120  9.4962   37   3.9   97    3.4   51    0     979.5    NA       0.0000   9999     4460  0     0    
2019/03/04  22:11:02  BASE  2.91648  118  7.47348  81   3.8   97    3.4   48    0     979.6    NA       0.0000   9999     4490  0     0    
2019/03/04  22:12:02  BASE  2.31084  128  7.47348  81   3.7   98    3.4   42    0     979.6    NA       0.0000   9999     4490  0     0    
2019/03/04  22:13:03  BASE  2.01096  95   7.47348  81   3.6   99    3.4   39    0     979.6    NA       0.0000   9999     4460  0     0    
2019/03/04  22:14:02  BASE  1.8816   91   6.41508  110  3.5   99    3.4   37    0     979.6    NA       0.0000   9999     4430  0     0    
2019/03/04  22:15:02  BASE  2.01684  128  6.41508  110  3.5   100   3.4   36    0     979.6    NA       0.0000   9999     4460  0     0    
2019/03/04  22:16:02  BASE  1.4994   184  5.41548  146  3.5   100   3.5   34    0     979.6    NA       0.0000   9999     4400  0     0    
2019/03/04  22:17:03  BASE  1.21716  26   5.41548  146  3.5   100   3.5   32    0     979.6    NA       0.0000   9999     4300  0     0    
2019/03/04  22:18:02  BASE  2.43432  60   4.68636  47   3.6   100   3.6   31    0     979.5    NA       0.0000   9999     4300  0     0    
2019/03/04  22:19:02  BASE  2.53428  40   4.68636  47   3.7   100   3.7   31    0     979.5    NA       0.0000   9999     4300  0     0    
2019/03/04  22:20:03  BASE  3.65148  37   6.59148  40   3.8   100   3.8   31    0     979.4    NA       0.0000   9999     4270  0     0    
2019/03/04  22:21:03  BASE  5.36256  47   6.65616  54   4.0   99    3.9   29    0     979.4    NA       0.0000   9999     4100  0     0    
2019/03/04  22:22:02  BASE  4.49232  54   6.65616  54   4.1   99    3.9   27    0     979.4    NA       0.0000   9999     4230  0     0    
2019/03/04  22:23:02  BASE  4.11012  52   6.65616  54   4.2   98    3.9   26    0     979.4    NA       0.0000   9999     4230  0     0    
2019/03/04  22:24:02  BASE  4.75104  50   7.50288  54   4.2   97    3.8   26    0     979.3    NA       0.0000   9999     4230  0     0    
2019/03/04  22:25:03  BASE  5.45664  50   7.50288  54   4.2   96    3.7   26    0     979.3    NA       0.0000   9999     4230  0     0    
2019/03/04  22:26:02  BASE  5.41548  51   7.50288  54   4.2   96    3.6   27    0     979.2    NA       0.0000   9999     4330  0     0    
2019/03/04  22:27:03  BASE  4.77456  48   7.50288  54   4.3   95    3.6   28    0     979.2    NA       0.0000   9999     4460  0     0    
2019/03/04  22:28:02  BASE  4.28064  42   7.50288  54   4.3   95    3.5   30    0     979.2    NA       0.0000   9999     4230  0     0    
2019/03/04  22:29:03  BASE  4.8216   40   7.50288  54   4.3   95    3.5   31    0     979.2    NA       0.0000   9999     4270  0     0    
2019/03/04  22:30:03  BASE  6.44448  44   8.16732  47   4.2   94    3.4   32    0     979.2    NA       0.0000   9999     4630  0     0    
2019/03/04  22:31:03  BASE  7.33236  48   9.19632  40   4.2   94    3.4   32    0     979.1    NA       0.0000   9999     4230  0     0    
2019/03/04  22:32:02  BASE  7.87332  52   10.6193  43   4.2   94    3.3   32    0     979.1    NA       0.0000   9999     4360  0     0    
2019/03/04  22:33:03  BASE  8.64948  55   10.6193  43   4.2   94    3.3   32    0     979.1    NA       0.0000   9999     4530  0     0    
2019/03/04  22:34:02  BASE  8.1438   56   10.6193  43   4.2   94    3.4   30    0     979.1    NA       0.0000   9999     4630  0     0    
2019/03/04  22:35:02  BASE  7.57932  58   10.6193  43   4.3   94    3.4   28    0     979.1    NA       0.0000   9999     4630  0     0    
2019/03/04  22:36:03  BASE  7.33824  61   10.6193  43   4.3   94    3.4   27    0     979.1    NA       0.0000   9999     4360  0     0    
2019/03/04  22:37:02  BASE  7.59108  63   10.6193  43   4.3   94    3.4   25    0     979.1    NA       0.0000   9999     4560  0     0    
2019/03/04  22:38:03  BASE  7.53228  61   10.6193  43   4.3   94    3.4   24    0     979.1    NA       0.0000   9999     4360  0     0    
2019/03/04  22:39:02  BASE  6.8208   55   10.6193  43   4.3   94    3.4   22    0     979.1    NA       0.0000   9999     4690  0     0    
2019/03/04  22:40:03  BASE  7.10892  49   10.6193  43   4.2   94    3.4   21    0     979.0    NA       0.0000   9999     4630  0     0    
2019/03/04  22:41:03  BASE  8.1732   44   10.6193  43   4.3   94    3.4   20    0     979.0    NA       0.0000   9999     4720  0     0    
2019/03/04  22:42:02  BASE  8.86704  45   10.1018  46   4.3   94    3.4   19    0     979.0    NA       0.0000   9999     4760  0     0    
2019/03/04  22:43:03  BASE  9.01404  45   10.1959  33   4.3   94    3.4   18    0     979.0    NA       0.0000   9999     4690  0     0    
2019/03/04  22:44:02  BASE  8.72004  45   10.1959  33   4.3   93    3.3   18    0     978.9    NA       0.0000   9999     4720  0     0    
2019/03/04  22:45:02  BASE  8.7024   47   10.1959  33   4.4   93    3.3   17    0     978.9    NA       0.0000   9999     4660  0     0    
2019/03/04  22:46:02  BASE  8.97288  49   10.1959  33   4.4   92    3.3   17    0     978.9    NA       0.0000   9999     4760  0     0    
2019/03/04  22:47:02  BASE  8.86704  50   10.1959  33   4.4   92    3.3   16    0     978.9    NA       0.0000   9999     4530  0     0    
2019/03/04  22:48:03  BASE  8.82     51   10.1959  33   4.4   92    3.2   15    0     978.9    NA       0.0000   9999     4530  0     0    
2019/03/04  22:49:03  BASE  8.91996  48   10.3782  53   4.5   92    3.2   15    0     978.9    NA       0.0000   9999     4660  0     0    
2019/03/04  22:50:02  BASE  9.30804  45   10.3782  53   4.5   91    3.2   15    0     978.8    NA       0.0000   9999     4720  0     0    
2019/03/04  22:51:03  BASE  9.19044  42   10.3782  53   4.5   91    3.1   15    0     978.8    NA       0.0000   9999     4760  0     0    
2019/03/04  22:52:02  BASE  8.49072  41   10.3782  53   4.5   91    3.1   14    0     978.9    NA       0.0000   9999     4860  0     0    
2019/03/04  22:53:03  BASE  9.04932  43   11.2543  51   4.5   90    3.0   14    0     978.8    NA       0.0000   9999     4990  0     0    
2019/03/04  22:54:02  BASE  9.13752  42   11.2543  51   4.5   90    3.0   14    0     978.8    NA       0.0000   9999     5050  0     0    
2019/03/04  22:55:02  BASE  8.38488  42   11.2543  51   4.5   90    3.0   14    0     978.8    NA       0.0000   9999     5050  0     0    
2019/03/04  22:56:03  BASE  8.32608  44   11.2543  51   4.6   89    3.0   14    0     978.8    NA       0.0000   9999     4950  0     0    
2019/03/04  22:57:03  BASE  7.94976  45   11.2543  51   4.6   89    3.0   13    0     978.8    NA       0.0000   9999     5090  0     0    
2019/03/04  22:58:02  BASE  7.8792   44   11.2543  51   4.6   89    2.9   12    0     978.8    NA       0.0000   9999     5150  0     0    
2019/03/04  22:59:03  BASE  7.4382   44   11.2543  51   4.6   88    2.8   12    0     978.9    NA       0.0000   9999     5090  0     0    
2019/03/04  23:00:02  BASE  6.90312  42   11.2543  51   4.6   88    2.8   12    0     978.9    NA       0.0000   9999     5020  0     0    
2019/03/04  23:01:02  BASE  7.13832  42   11.2543  51   4.5   88    2.7   12    0     978.9    NA       0.0000   9999     5050  0     0    
2019/03/04  23:02:03  BASE  7.35     43   11.2543  51   4.5   88    2.7   12    0     978.9    NA       0.0000   9999     5050  0     0    
2019/03/04  23:03:03  BASE  7.44996  44   9.4668   36   4.4   89    2.7   12    0     978.8    NA       0.0000   9999     5150  0     0    
2019/03/04  23:04:03  BASE  7.3794   43   9.4668   36   4.4   89    2.7   12    0     978.8    NA       0.0000   9999     5120  0     0    
2019/03/04  23:05:04  BASE  7.20888  39   9.04344  45   4.4   89    2.7   12    0     978.8    NA       0.0000   9999     4890  0     0    
2019/03/04  23:06:02  BASE  7.29708  38   8.77296  46   4.4   89    2.8   12    0     978.8    NA       0.0000   9999     4690  0     0    
2019/03/04  23:07:03  BASE  8.1438   39   9.77256  41   4.4   89    2.8   12    0     978.7    NA       0.0000   9999     4660  0     0    
2019/03/04  23:08:02  BASE  8.60832  41   9.77256  41   4.4   90    2.8   12    0     978.7    NA       0.0000   9999     4630  0     0    
2019/03/04  23:09:02  BASE  8.72004  41   10.1665  47   4.4   90    2.8   11    0     978.7    NA       0.0000   9999     4630  0     0    
2019/03/04  23:10:02  BASE  9.13752  41   10.5899  42   4.4   90    2.9   11    0     978.6    NA       0.0000   9999     4360  0     0    
2019/03/04  23:11:02  BASE  8.91996  45   10.5899  42   4.4   90    3.0   10    0     978.6    NA       0.0000   9999     4330  0     0    
2019/03/04  23:12:03  BASE  9.1728   47   10.5899  42   4.5   90    3.0   10    0     978.6    NA       0.0000   9999     4430  0     0    
2019/03/04  23:13:03  BASE  9.31392  49   10.5899  42   4.5   91    3.1   10    0     978.6    NA       0.0000   9999     4490  0     0    
2019/03/04  23:14:02  BASE  8.86116  50   10.5899  42   4.5   91    3.1   10    0     978.6    NA       0.0000   9999     4490  0     0    
2019/03/04  23:15:03  BASE  9.04932  49   10.5899  42   4.6   91    3.2   10    0     978.6    NA       0.0000   9999     4460  0     0    
2019/03/04  23:16:03  BASE  9.14928  50   10.5899  42   4.6   91    3.2   10    0     978.6    NA       0.0000   9999     4560  0     0    
2019/03/04  23:17:02  BASE  8.79648  51   10.5899  42   4.6   91    3.3   10    0     978.6    NA       0.0000   9999     4530  0     0    
2019/03/04  23:18:02  BASE  8.00268  54   10.5899  42   4.6   91    3.3   9     0     978.6    NA       0.0000   9999     4690  0     0    
2019/03/04  23:19:03  BASE  7.65576  57   10.5899  42   4.6   91    3.3   9     0     978.6    NA       0.0000   9999     5180  9190  0    
2019/03/04  23:20:03  BASE  8.1732   57   10.4958  48   4.6   91    3.3   7     0     978.5    NA       0.0000   9999     4860  9090  9780 
2019/03/04  23:21:02  BASE  8.24376  56   10.4958  48   4.5   92    3.3   6     0     978.5    NA       0.0000   9999     4990  9020  9880 
2019/03/04  23:22:02  BASE  8.35548  54   10.4958  48   4.5   92    3.3   5     0     978.5    NA       0.0000   9999     4950  9940  0    
2019/03/04  23:23:03  BASE  8.7906   49   10.4958  48   4.4   92    3.3   4     0     978.5    NA       0.0000   9999     5180  0     0    
2019/03/04  23:24:02  BASE  8.78472  48   10.4958  48   4.4   93    3.4   4     0     978.5    NA       0.0000   9999     4660  9090  0    
2019/03/04  23:25:02  BASE  8.24964  48   10.437   43   4.5   93    3.4   3     0     978.5    NA       0.0000   9999     4760  0     0    
2019/03/04  23:26:03  BASE  7.85568  47   9.89016  46   4.5   92    3.4   3     0     978.5    NA       0.0000   9999     4590  0     0    
2019/03/04  23:27:03  BASE  7.18536  48   9.89016  46   4.5   92    3.4   3     0     978.5    NA       0.0000   9999     4760  8990  0    
2019/03/04  23:28:03  BASE  6.33276  50   9.89016  46   4.6   92    3.3   3     0     978.5    NA       0.0000   9999     4690  8960  0    
2019/03/04  23:29:03  BASE  6.15636  51   9.89016  46   4.5   91    3.2   3     0     978.5    NA       0.0000   9999     4660  8830  0    
2019/03/04  23:30:02  BASE  5.92116  52   9.89016  46   4.4   91    3.2   3     0     978.5    NA       0.0000   9999     4950  8630  0    
2019/03/04  23:31:03  BASE  5.63892  54   9.89016  46   4.4   92    3.1   3     0     978.5    NA       0.0000   9999     8660  0     0    
2019/03/04  23:32:02  BASE  6.24456  55   9.89016  46   4.3   92    3.1   2     0     978.5    NA       0.0000   9999     8830  0     0    
2019/03/04  23:33:02  BASE  7.24416  49   9.3786   48   4.3   92    3.2   2     0     978.5    NA       0.0000   9999     3380  5280  0    
2019/03/04  23:34:03  BASE  7.60872  45   9.25512  47   4.3   92    3.2   2     0     978.5    NA       0.0000   9999     5120  8830  0    
2019/03/04  23:35:03  BASE  7.39704  45   8.77296  39   4.4   92    3.2   2     0     978.5    NA       0.0000   9999     4130  5120  0    
2019/03/04  23:36:03  BASE  7.15596  45   8.2908   49   4.4   92    3.2   2     0     978.5    NA       0.0000   9999     4530  0     0    
2019/03/04  23:37:02  BASE  6.762    44   8.2908   49   4.5   91    3.2   2     0     978.5    NA       0.0000   9999     4330  0     0    
2019/03/04  23:38:03  BASE  6.30924  44   8.2908   49   4.6   90    3.1   1     0     978.5    NA       0.0000   9999     3840  0     0    
2019/03/04  23:39:02  BASE  5.7918   44   8.2908   49   4.6   89    3.0   1     0     978.5    NA       0.0000   9999     0     0     0    
2019/03/04  23:40:03  BASE  5.39196  43   8.2908   49   4.6   89    3.0   1     0     978.5    NA       0.0000   9999     4560  0     0    
2019/03/04  23:41:02  BASE  5.68596  43   8.2908   49   4.6   89    2.9   1     0     978.5    NA       0.0000   9999     4230  0     0    
2019/03/04  23:42:02  BASE  6.15636  45   8.25552  43   4.6   89    2.9   1     0     978.5    NA       0.0000   9999     4200  0     0    
2019/03/04  23:43:02  BASE  6.69144  44   8.25552  43   4.6   89    2.9   1     0     978.5    NA       0.0000   9999     4330  0     0    
2019/03/04  23:44:02  BASE  7.17948  43   8.4378   45   4.6   88    2.8   1     0     978.5    NA       0.0000   9999     4630  0     0    
2019/03/04  23:45:02  BASE  7.64988  44   8.86116  44   4.6   88    2.8   1     0     978.5    NA       0.0000   9999     4820  0     0    
2019/03/04  23:46:02  BASE  8.085    46   8.86116  44   4.6   88    2.8   1     0     978.4    NA       0.0000   9999     4920  0     0    
2019/03/04  23:47:02  BASE  8.0556   47   8.86116  44   4.6   88    2.8   1     0     978.5    NA       0.0000   9999     5090  0     0    
2019/03/04  23:48:03  BASE  7.86744  48   8.86116  44   4.6   89    2.8   1     0     978.4    NA       0.0000   9999     5450  0     0    
2019/03/04  23:49:03  BASE  7.59696  46   8.86116  44   4.6   89    2.9   1     0     978.5    NA       0.0000   9999     10200 0     0    
2019/03/04  23:50:02  BASE  7.3206   44   8.86116  44   4.6   89    2.9   1     0     978.5    NA       0.0000   9999     10170 0     0    
2019/03/04  23:51:02  BASE  7.28532  47   8.86116  44   4.5   89    2.9   1     0     978.5    NA       0.0000   9999     8730  10200 0    
2019/03/04  23:52:02  BASE  7.203    52   8.86116  44   4.5   90    2.9   1     0     978.5    NA       0.0000   9999     5050  10240 0    
2019/03/04  23:53:03  BASE  7.06776  54   8.86116  44   4.5   90    2.9   1     0     978.5    NA       0.0000   9999     8760  10170 0    
2019/03/04  23:54:02  BASE  7.05012  55   8.86116  44   4.5   90    2.9   0     0     978.5    NA       0.0000   9999     5050  8790  10340
2019/03/04  23:55:02  BASE  7.02072  55   8.83176  40   4.5   90    2.9   0     0     978.4    NA       0.0000   9999     5090  0     0    
2019/03/04  23:56:02  BASE  6.91488  52   8.83176  40   4.5   89    2.9   0     0     978.4    NA       0.0000   9999     5150  8790  0    
2019/03/04  23:57:02  BASE  6.59148  51   8.83176  40   4.5   89    2.9   0     0     978.4    NA       0.0000   9999     8730  0     0    
2019/03/04  23:58:02  BASE  6.3504   48   8.64948  39   4.5   89    2.9   0     0     978.4    NA       0.0000   9999     8760  0     0    
2019/03/04  23:59:02  BASE  6.50916  48   8.64948  39   4.5   90    2.9   0     0     978.4    NA       0.0000   9999     5120  8860  0